<?xml version="1.0" encoding="UTF-8" standalone="no" ?>
<gpx xmlns="http://www.topografix.com/GPX/1/1" xmlns:xsi="http://www.w3.org/2001/XMLSchema-instance" xsi:schemaLocation="http://www.topografix.com/GPX/1/1 http://www.topografix.com/GPX/1/1/gpx.xsd" version="1.1" creator="VisuGPX - https://www.visugpx.com">
  <metadata>
    <name>2021-08-15 VTT MCA</name>
  </metadata>
  <trk>
    <name><![CDATA[2021-08-15 VTT MCA_1]]></name>
    <trkseg>
      <trkpt lat="50.59745" lon="3.25673">
        <ele>85.7</ele>
        <time>2021-08-15T06:33:10Z</time>
      </trkpt>
      <trkpt lat="50.59745" lon="3.25675">
        <ele>93.8</ele>
        <time>2021-08-15T06:33:16Z</time>
      </trkpt>
      <trkpt lat="50.59744" lon="3.25676">
        <ele>93.8</ele>
        <time>2021-08-15T06:33:22Z</time>
      </trkpt>
      <trkpt lat="50.59744" lon="3.25681">
        <ele>93.8</ele>
        <time>2021-08-15T06:33:27Z</time>
      </trkpt>
      <trkpt lat="50.59743" lon="3.25684">
        <ele>93.9</ele>
        <time>2021-08-15T06:33:32Z</time>
      </trkpt>
      <trkpt lat="50.59742" lon="3.25685">
        <ele>93.9</ele>
        <time>2021-08-15T06:33:38Z</time>
      </trkpt>
      <trkpt lat="50.59741" lon="3.25687">
        <ele>93.9</ele>
        <time>2021-08-15T06:33:43Z</time>
      </trkpt>
      <trkpt lat="50.59741" lon="3.25688">
        <ele>93.9</ele>
        <time>2021-08-15T06:33:49Z</time>
      </trkpt>
      <trkpt lat="50.59741" lon="3.25688">
        <ele>93.9</ele>
        <time>2021-08-15T06:33:54Z</time>
      </trkpt>
      <trkpt lat="50.59741" lon="3.25689">
        <ele>93.9</ele>
        <time>2021-08-15T06:34:00Z</time>
      </trkpt>
      <trkpt lat="50.59741" lon="3.2569">
        <ele>93.9</ele>
        <time>2021-08-15T06:34:05Z</time>
      </trkpt>
      <trkpt lat="50.59742" lon="3.25692">
        <ele>93.9</ele>
        <time>2021-08-15T06:34:10Z</time>
      </trkpt>
      <trkpt lat="50.59745" lon="3.25694">
        <ele>93.5</ele>
        <time>2021-08-15T06:34:15Z</time>
      </trkpt>
      <trkpt lat="50.59745" lon="3.25696">
        <ele>93.5</ele>
        <time>2021-08-15T06:34:22Z</time>
      </trkpt>
      <trkpt lat="50.59742" lon="3.25698">
        <ele>92.6</ele>
        <time>2021-08-15T06:34:27Z</time>
      </trkpt>
      <trkpt lat="50.59739" lon="3.25701">
        <ele>92.6</ele>
        <time>2021-08-15T06:34:32Z</time>
      </trkpt>
      <trkpt lat="50.59735" lon="3.25704">
        <ele>94.3</ele>
        <time>2021-08-15T06:34:37Z</time>
      </trkpt>
      <trkpt lat="50.5973" lon="3.257">
        <ele>93.5</ele>
        <time>2021-08-15T06:34:42Z</time>
      </trkpt>
      <trkpt lat="50.5972" lon="3.25678">
        <ele>93.2</ele>
        <time>2021-08-15T06:34:47Z</time>
      </trkpt>
      <trkpt lat="50.59712" lon="3.25656">
        <ele>93.9</ele>
        <time>2021-08-15T06:34:54Z</time>
      </trkpt>
      <trkpt lat="50.59704" lon="3.25637">
        <ele>92.9</ele>
        <time>2021-08-15T06:34:59Z</time>
      </trkpt>
      <trkpt lat="50.59696" lon="3.25614">
        <ele>94.9</ele>
        <time>2021-08-15T06:35:05Z</time>
      </trkpt>
      <trkpt lat="50.59692" lon="3.25596">
        <ele>93.3</ele>
        <time>2021-08-15T06:35:10Z</time>
      </trkpt>
      <trkpt lat="50.59713" lon="3.25586">
        <ele>93.7</ele>
        <time>2021-08-15T06:35:15Z</time>
      </trkpt>
      <trkpt lat="50.59738" lon="3.25582">
        <ele>93.7</ele>
        <time>2021-08-15T06:35:21Z</time>
      </trkpt>
      <trkpt lat="50.59756" lon="3.25552">
        <ele>94.8</ele>
        <time>2021-08-15T06:35:26Z</time>
      </trkpt>
      <trkpt lat="50.59772" lon="3.25535">
        <ele>94</ele>
        <time>2021-08-15T06:35:31Z</time>
      </trkpt>
      <trkpt lat="50.59784" lon="3.25512">
        <ele>91.6</ele>
        <time>2021-08-15T06:35:37Z</time>
      </trkpt>
      <trkpt lat="50.59753" lon="3.25455">
        <ele>92.7</ele>
        <time>2021-08-15T06:35:43Z</time>
      </trkpt>
      <trkpt lat="50.59737" lon="3.25423">
        <ele>92.9</ele>
        <time>2021-08-15T06:35:48Z</time>
      </trkpt>
      <trkpt lat="50.59722" lon="3.25396">
        <ele>94.6</ele>
        <time>2021-08-15T06:35:53Z</time>
      </trkpt>
      <trkpt lat="50.59708" lon="3.25373">
        <ele>94.5</ele>
        <time>2021-08-15T06:35:58Z</time>
      </trkpt>
      <trkpt lat="50.59692" lon="3.2535">
        <ele>94.8</ele>
        <time>2021-08-15T06:36:04Z</time>
      </trkpt>
      <trkpt lat="50.59673" lon="3.25334">
        <ele>96.6</ele>
        <time>2021-08-15T06:36:09Z</time>
      </trkpt>
      <trkpt lat="50.59651" lon="3.25319">
        <ele>94.5</ele>
        <time>2021-08-15T06:36:15Z</time>
      </trkpt>
      <trkpt lat="50.59632" lon="3.25306">
        <ele>92.6</ele>
        <time>2021-08-15T06:36:20Z</time>
      </trkpt>
      <trkpt lat="50.59611" lon="3.25276">
        <ele>92.1</ele>
        <time>2021-08-15T06:36:27Z</time>
      </trkpt>
      <trkpt lat="50.59601" lon="3.25243">
        <ele>91.7</ele>
        <time>2021-08-15T06:36:32Z</time>
      </trkpt>
      <trkpt lat="50.59584" lon="3.25219">
        <ele>92.7</ele>
        <time>2021-08-15T06:36:37Z</time>
      </trkpt>
      <trkpt lat="50.59561" lon="3.25218">
        <ele>91.2</ele>
        <time>2021-08-15T06:36:43Z</time>
      </trkpt>
      <trkpt lat="50.59536" lon="3.2523">
        <ele>88.6</ele>
        <time>2021-08-15T06:36:48Z</time>
      </trkpt>
      <trkpt lat="50.59515" lon="3.25239">
        <ele>90.2</ele>
        <time>2021-08-15T06:36:53Z</time>
      </trkpt>
      <trkpt lat="50.59494" lon="3.25235">
        <ele>92.1</ele>
        <time>2021-08-15T06:36:58Z</time>
      </trkpt>
      <trkpt lat="50.59473" lon="3.25248">
        <ele>91.2</ele>
        <time>2021-08-15T06:37:04Z</time>
      </trkpt>
      <trkpt lat="50.59467" lon="3.25233">
        <ele>93.5</ele>
        <time>2021-08-15T06:37:09Z</time>
      </trkpt>
      <trkpt lat="50.59468" lon="3.25209">
        <ele>94.5</ele>
        <time>2021-08-15T06:37:14Z</time>
      </trkpt>
      <trkpt lat="50.59464" lon="3.25159">
        <ele>94</ele>
        <time>2021-08-15T06:37:20Z</time>
      </trkpt>
      <trkpt lat="50.5946" lon="3.25124">
        <ele>94</ele>
        <time>2021-08-15T06:37:25Z</time>
      </trkpt>
      <trkpt lat="50.59449" lon="3.25093">
        <ele>94.2</ele>
        <time>2021-08-15T06:37:30Z</time>
      </trkpt>
      <trkpt lat="50.59432" lon="3.25071">
        <ele>93.8</ele>
        <time>2021-08-15T06:37:35Z</time>
      </trkpt>
      <trkpt lat="50.59416" lon="3.25045">
        <ele>94</ele>
        <time>2021-08-15T06:37:41Z</time>
      </trkpt>
      <trkpt lat="50.59403" lon="3.25022">
        <ele>93.3</ele>
        <time>2021-08-15T06:37:46Z</time>
      </trkpt>
      <trkpt lat="50.59388" lon="3.24995">
        <ele>93.9</ele>
        <time>2021-08-15T06:37:51Z</time>
      </trkpt>
      <trkpt lat="50.59371" lon="3.24969">
        <ele>94.1</ele>
        <time>2021-08-15T06:37:56Z</time>
      </trkpt>
      <trkpt lat="50.59355" lon="3.24944">
        <ele>93.5</ele>
        <time>2021-08-15T06:38:02Z</time>
      </trkpt>
      <trkpt lat="50.59342" lon="3.2492">
        <ele>94.9</ele>
        <time>2021-08-15T06:38:07Z</time>
      </trkpt>
      <trkpt lat="50.59324" lon="3.24899">
        <ele>95.1</ele>
        <time>2021-08-15T06:38:13Z</time>
      </trkpt>
      <trkpt lat="50.59306" lon="3.2488">
        <ele>95.5</ele>
        <time>2021-08-15T06:38:18Z</time>
      </trkpt>
      <trkpt lat="50.59286" lon="3.24873">
        <ele>93.3</ele>
        <time>2021-08-15T06:38:23Z</time>
      </trkpt>
      <trkpt lat="50.59264" lon="3.24865">
        <ele>93.1</ele>
        <time>2021-08-15T06:38:29Z</time>
      </trkpt>
      <trkpt lat="50.59246" lon="3.24851">
        <ele>92.9</ele>
        <time>2021-08-15T06:38:34Z</time>
      </trkpt>
      <trkpt lat="50.59232" lon="3.24835">
        <ele>93.5</ele>
        <time>2021-08-15T06:38:39Z</time>
      </trkpt>
      <trkpt lat="50.59219" lon="3.24815">
        <ele>94.6</ele>
        <time>2021-08-15T06:38:45Z</time>
      </trkpt>
      <trkpt lat="50.59204" lon="3.24796">
        <ele>95.2</ele>
        <time>2021-08-15T06:38:51Z</time>
      </trkpt>
      <trkpt lat="50.59189" lon="3.2478">
        <ele>96.3</ele>
        <time>2021-08-15T06:38:56Z</time>
      </trkpt>
      <trkpt lat="50.59175" lon="3.24767">
        <ele>96.9</ele>
        <time>2021-08-15T06:39:01Z</time>
      </trkpt>
      <trkpt lat="50.5916" lon="3.24749">
        <ele>97.7</ele>
        <time>2021-08-15T06:39:07Z</time>
      </trkpt>
      <trkpt lat="50.59146" lon="3.24728">
        <ele>98</ele>
        <time>2021-08-15T06:39:13Z</time>
      </trkpt>
      <trkpt lat="50.59136" lon="3.24708">
        <ele>99.5</ele>
        <time>2021-08-15T06:39:18Z</time>
      </trkpt>
      <trkpt lat="50.59126" lon="3.24688">
        <ele>99.5</ele>
        <time>2021-08-15T06:39:23Z</time>
      </trkpt>
      <trkpt lat="50.59116" lon="3.24671">
        <ele>97.7</ele>
        <time>2021-08-15T06:39:28Z</time>
      </trkpt>
      <trkpt lat="50.591" lon="3.24643">
        <ele>95</ele>
        <time>2021-08-15T06:39:34Z</time>
      </trkpt>
      <trkpt lat="50.59087" lon="3.24619">
        <ele>95.2</ele>
        <time>2021-08-15T06:39:40Z</time>
      </trkpt>
      <trkpt lat="50.59075" lon="3.24596">
        <ele>95.2</ele>
        <time>2021-08-15T06:39:45Z</time>
      </trkpt>
      <trkpt lat="50.59067" lon="3.24566">
        <ele>96.6</ele>
        <time>2021-08-15T06:39:50Z</time>
      </trkpt>
      <trkpt lat="50.59067" lon="3.24534">
        <ele>96.4</ele>
        <time>2021-08-15T06:39:56Z</time>
      </trkpt>
      <trkpt lat="50.59068" lon="3.24503">
        <ele>95.2</ele>
        <time>2021-08-15T06:40:01Z</time>
      </trkpt>
      <trkpt lat="50.59068" lon="3.24478">
        <ele>94.4</ele>
        <time>2021-08-15T06:40:06Z</time>
      </trkpt>
      <trkpt lat="50.59067" lon="3.2445">
        <ele>95.2</ele>
        <time>2021-08-15T06:40:11Z</time>
      </trkpt>
      <trkpt lat="50.59065" lon="3.2442">
        <ele>95.8</ele>
        <time>2021-08-15T06:40:17Z</time>
      </trkpt>
      <trkpt lat="50.59058" lon="3.24392">
        <ele>96</ele>
        <time>2021-08-15T06:40:22Z</time>
      </trkpt>
      <trkpt lat="50.59044" lon="3.24371">
        <ele>95.4</ele>
        <time>2021-08-15T06:40:28Z</time>
      </trkpt>
      <trkpt lat="50.59033" lon="3.24351">
        <ele>95.4</ele>
        <time>2021-08-15T06:40:33Z</time>
      </trkpt>
      <trkpt lat="50.5902" lon="3.24331">
        <ele>95.7</ele>
        <time>2021-08-15T06:40:39Z</time>
      </trkpt>
      <trkpt lat="50.59007" lon="3.24311">
        <ele>95.9</ele>
        <time>2021-08-15T06:40:44Z</time>
      </trkpt>
      <trkpt lat="50.58994" lon="3.24293">
        <ele>96</ele>
        <time>2021-08-15T06:40:49Z</time>
      </trkpt>
      <trkpt lat="50.58982" lon="3.24275">
        <ele>96.9</ele>
        <time>2021-08-15T06:40:54Z</time>
      </trkpt>
      <trkpt lat="50.58969" lon="3.24252">
        <ele>97.2</ele>
        <time>2021-08-15T06:41:00Z</time>
      </trkpt>
      <trkpt lat="50.58956" lon="3.24232">
        <ele>97.1</ele>
        <time>2021-08-15T06:41:05Z</time>
      </trkpt>
      <trkpt lat="50.58944" lon="3.24213">
        <ele>98.4</ele>
        <time>2021-08-15T06:41:10Z</time>
      </trkpt>
      <trkpt lat="50.58932" lon="3.24194">
        <ele>96.8</ele>
        <time>2021-08-15T06:41:15Z</time>
      </trkpt>
      <trkpt lat="50.5892" lon="3.24173">
        <ele>96.7</ele>
        <time>2021-08-15T06:41:21Z</time>
      </trkpt>
      <trkpt lat="50.58908" lon="3.24151">
        <ele>97.1</ele>
        <time>2021-08-15T06:41:26Z</time>
      </trkpt>
      <trkpt lat="50.58895" lon="3.24129">
        <ele>97.1</ele>
        <time>2021-08-15T06:41:32Z</time>
      </trkpt>
      <trkpt lat="50.58883" lon="3.24108">
        <ele>97.3</ele>
        <time>2021-08-15T06:41:37Z</time>
      </trkpt>
      <trkpt lat="50.5887" lon="3.24086">
        <ele>97</ele>
        <time>2021-08-15T06:41:43Z</time>
      </trkpt>
      <trkpt lat="50.58858" lon="3.24066">
        <ele>97</ele>
        <time>2021-08-15T06:41:48Z</time>
      </trkpt>
      <trkpt lat="50.58848" lon="3.24048">
        <ele>98.8</ele>
        <time>2021-08-15T06:41:54Z</time>
      </trkpt>
      <trkpt lat="50.58837" lon="3.24026">
        <ele>97.5</ele>
        <time>2021-08-15T06:41:59Z</time>
      </trkpt>
      <trkpt lat="50.58824" lon="3.24004">
        <ele>97.4</ele>
        <time>2021-08-15T06:42:04Z</time>
      </trkpt>
      <trkpt lat="50.58811" lon="3.23979">
        <ele>98</ele>
        <time>2021-08-15T06:42:10Z</time>
      </trkpt>
      <trkpt lat="50.58799" lon="3.23957">
        <ele>97.2</ele>
        <time>2021-08-15T06:42:15Z</time>
      </trkpt>
      <trkpt lat="50.58787" lon="3.23937">
        <ele>96.6</ele>
        <time>2021-08-15T06:42:20Z</time>
      </trkpt>
      <trkpt lat="50.58777" lon="3.23915">
        <ele>98.7</ele>
        <time>2021-08-15T06:42:26Z</time>
      </trkpt>
      <trkpt lat="50.58767" lon="3.23889">
        <ele>100.6</ele>
        <time>2021-08-15T06:42:31Z</time>
      </trkpt>
      <trkpt lat="50.58758" lon="3.23865">
        <ele>100</ele>
        <time>2021-08-15T06:42:36Z</time>
      </trkpt>
      <trkpt lat="50.58749" lon="3.23842">
        <ele>99.7</ele>
        <time>2021-08-15T06:42:42Z</time>
      </trkpt>
      <trkpt lat="50.58741" lon="3.2382">
        <ele>100</ele>
        <time>2021-08-15T06:42:47Z</time>
      </trkpt>
      <trkpt lat="50.58732" lon="3.23797">
        <ele>100.2</ele>
        <time>2021-08-15T06:42:52Z</time>
      </trkpt>
      <trkpt lat="50.58723" lon="3.23776">
        <ele>100.3</ele>
        <time>2021-08-15T06:42:57Z</time>
      </trkpt>
      <trkpt lat="50.58714" lon="3.23755">
        <ele>100.4</ele>
        <time>2021-08-15T06:43:03Z</time>
      </trkpt>
      <trkpt lat="50.58706" lon="3.23734">
        <ele>100.8</ele>
        <time>2021-08-15T06:43:08Z</time>
      </trkpt>
      <trkpt lat="50.58699" lon="3.23716">
        <ele>100.2</ele>
        <time>2021-08-15T06:43:13Z</time>
      </trkpt>
      <trkpt lat="50.58691" lon="3.23695">
        <ele>100.5</ele>
        <time>2021-08-15T06:43:18Z</time>
      </trkpt>
      <trkpt lat="50.58683" lon="3.23675">
        <ele>100.8</ele>
        <time>2021-08-15T06:43:23Z</time>
      </trkpt>
      <trkpt lat="50.58674" lon="3.23652">
        <ele>100.1</ele>
        <time>2021-08-15T06:43:29Z</time>
      </trkpt>
      <trkpt lat="50.58665" lon="3.23629">
        <ele>100.6</ele>
        <time>2021-08-15T06:43:34Z</time>
      </trkpt>
      <trkpt lat="50.58656" lon="3.23606">
        <ele>100.1</ele>
        <time>2021-08-15T06:43:40Z</time>
      </trkpt>
      <trkpt lat="50.58648" lon="3.23584">
        <ele>98.5</ele>
        <time>2021-08-15T06:43:45Z</time>
      </trkpt>
      <trkpt lat="50.58639" lon="3.2356">
        <ele>98.8</ele>
        <time>2021-08-15T06:43:50Z</time>
      </trkpt>
      <trkpt lat="50.5863" lon="3.23539">
        <ele>100</ele>
        <time>2021-08-15T06:43:55Z</time>
      </trkpt>
      <trkpt lat="50.58622" lon="3.23516">
        <ele>100.8</ele>
        <time>2021-08-15T06:44:00Z</time>
      </trkpt>
      <trkpt lat="50.5861" lon="3.23488">
        <ele>100.1</ele>
        <time>2021-08-15T06:44:06Z</time>
      </trkpt>
      <trkpt lat="50.586" lon="3.23463">
        <ele>98.8</ele>
        <time>2021-08-15T06:44:12Z</time>
      </trkpt>
      <trkpt lat="50.5859" lon="3.23438">
        <ele>99.2</ele>
        <time>2021-08-15T06:44:17Z</time>
      </trkpt>
      <trkpt lat="50.58581" lon="3.23414">
        <ele>98.6</ele>
        <time>2021-08-15T06:44:22Z</time>
      </trkpt>
      <trkpt lat="50.5857" lon="3.23387">
        <ele>98.3</ele>
        <time>2021-08-15T06:44:28Z</time>
      </trkpt>
      <trkpt lat="50.58561" lon="3.23363">
        <ele>98.1</ele>
        <time>2021-08-15T06:44:33Z</time>
      </trkpt>
      <trkpt lat="50.58551" lon="3.23339">
        <ele>97.6</ele>
        <time>2021-08-15T06:44:38Z</time>
      </trkpt>
      <trkpt lat="50.58542" lon="3.23317">
        <ele>96.8</ele>
        <time>2021-08-15T06:44:43Z</time>
      </trkpt>
      <trkpt lat="50.58533" lon="3.23293">
        <ele>97.1</ele>
        <time>2021-08-15T06:44:49Z</time>
      </trkpt>
      <trkpt lat="50.58521" lon="3.23283">
        <ele>97.3</ele>
        <time>2021-08-15T06:44:54Z</time>
      </trkpt>
      <trkpt lat="50.5851" lon="3.23299">
        <ele>96.7</ele>
        <time>2021-08-15T06:45:00Z</time>
      </trkpt>
      <trkpt lat="50.58497" lon="3.2331">
        <ele>96.8</ele>
        <time>2021-08-15T06:45:05Z</time>
      </trkpt>
      <trkpt lat="50.58484" lon="3.23317">
        <ele>97.9</ele>
        <time>2021-08-15T06:45:10Z</time>
      </trkpt>
      <trkpt lat="50.58471" lon="3.23325">
        <ele>97.9</ele>
        <time>2021-08-15T06:45:16Z</time>
      </trkpt>
      <trkpt lat="50.58459" lon="3.23333">
        <ele>97.9</ele>
        <time>2021-08-15T06:45:21Z</time>
      </trkpt>
      <trkpt lat="50.58444" lon="3.23341">
        <ele>97.1</ele>
        <time>2021-08-15T06:45:26Z</time>
      </trkpt>
      <trkpt lat="50.58429" lon="3.23349">
        <ele>97.3</ele>
        <time>2021-08-15T06:45:31Z</time>
      </trkpt>
      <trkpt lat="50.58412" lon="3.23359">
        <ele>95.4</ele>
        <time>2021-08-15T06:45:37Z</time>
      </trkpt>
      <trkpt lat="50.58398" lon="3.23368">
        <ele>95.8</ele>
        <time>2021-08-15T06:45:43Z</time>
      </trkpt>
      <trkpt lat="50.58386" lon="3.23372">
        <ele>95.7</ele>
        <time>2021-08-15T06:45:48Z</time>
      </trkpt>
      <trkpt lat="50.58372" lon="3.23382">
        <ele>96.2</ele>
        <time>2021-08-15T06:45:54Z</time>
      </trkpt>
      <trkpt lat="50.58356" lon="3.23389">
        <ele>97.2</ele>
        <time>2021-08-15T06:45:59Z</time>
      </trkpt>
      <trkpt lat="50.58341" lon="3.23395">
        <ele>97.8</ele>
        <time>2021-08-15T06:46:05Z</time>
      </trkpt>
      <trkpt lat="50.58324" lon="3.23404">
        <ele>98.1</ele>
        <time>2021-08-15T06:46:11Z</time>
      </trkpt>
      <trkpt lat="50.5831" lon="3.23412">
        <ele>98.4</ele>
        <time>2021-08-15T06:46:16Z</time>
      </trkpt>
      <trkpt lat="50.58291" lon="3.23421">
        <ele>99.5</ele>
        <time>2021-08-15T06:46:22Z</time>
      </trkpt>
      <trkpt lat="50.58277" lon="3.23429">
        <ele>99.3</ele>
        <time>2021-08-15T06:46:27Z</time>
      </trkpt>
      <trkpt lat="50.5826" lon="3.23436">
        <ele>99.8</ele>
        <time>2021-08-15T06:46:32Z</time>
      </trkpt>
      <trkpt lat="50.58246" lon="3.23443">
        <ele>100.2</ele>
        <time>2021-08-15T06:46:37Z</time>
      </trkpt>
      <trkpt lat="50.58231" lon="3.23449">
        <ele>100.3</ele>
        <time>2021-08-15T06:46:42Z</time>
      </trkpt>
      <trkpt lat="50.58215" lon="3.23454">
        <ele>99.6</ele>
        <time>2021-08-15T06:46:48Z</time>
      </trkpt>
      <trkpt lat="50.58199" lon="3.2346">
        <ele>99.1</ele>
        <time>2021-08-15T06:46:53Z</time>
      </trkpt>
      <trkpt lat="50.58183" lon="3.23466">
        <ele>99.6</ele>
        <time>2021-08-15T06:46:58Z</time>
      </trkpt>
      <trkpt lat="50.58168" lon="3.23474">
        <ele>100.9</ele>
        <time>2021-08-15T06:47:03Z</time>
      </trkpt>
      <trkpt lat="50.58153" lon="3.23481">
        <ele>101.5</ele>
        <time>2021-08-15T06:47:08Z</time>
      </trkpt>
      <trkpt lat="50.58137" lon="3.23486">
        <ele>101.4</ele>
        <time>2021-08-15T06:47:14Z</time>
      </trkpt>
      <trkpt lat="50.58124" lon="3.23493">
        <ele>101.7</ele>
        <time>2021-08-15T06:47:19Z</time>
      </trkpt>
      <trkpt lat="50.58109" lon="3.235">
        <ele>102.6</ele>
        <time>2021-08-15T06:47:24Z</time>
      </trkpt>
      <trkpt lat="50.58097" lon="3.23507">
        <ele>102.2</ele>
        <time>2021-08-15T06:47:30Z</time>
      </trkpt>
      <trkpt lat="50.58084" lon="3.23509">
        <ele>102.5</ele>
        <time>2021-08-15T06:47:35Z</time>
      </trkpt>
      <trkpt lat="50.58068" lon="3.23517">
        <ele>102</ele>
        <time>2021-08-15T06:47:40Z</time>
      </trkpt>
      <trkpt lat="50.58052" lon="3.23521">
        <ele>102.1</ele>
        <time>2021-08-15T06:47:46Z</time>
      </trkpt>
      <trkpt lat="50.58038" lon="3.23526">
        <ele>101.4</ele>
        <time>2021-08-15T06:47:51Z</time>
      </trkpt>
      <trkpt lat="50.58019" lon="3.2353">
        <ele>101.9</ele>
        <time>2021-08-15T06:47:56Z</time>
      </trkpt>
      <trkpt lat="50.58003" lon="3.23532">
        <ele>101.9</ele>
        <time>2021-08-15T06:48:01Z</time>
      </trkpt>
      <trkpt lat="50.57989" lon="3.23538">
        <ele>100.7</ele>
        <time>2021-08-15T06:48:06Z</time>
      </trkpt>
      <trkpt lat="50.57976" lon="3.2354">
        <ele>100.3</ele>
        <time>2021-08-15T06:48:11Z</time>
      </trkpt>
      <trkpt lat="50.5796" lon="3.23543">
        <ele>99.9</ele>
        <time>2021-08-15T06:48:17Z</time>
      </trkpt>
      <trkpt lat="50.57945" lon="3.23547">
        <ele>100.2</ele>
        <time>2021-08-15T06:48:22Z</time>
      </trkpt>
      <trkpt lat="50.57931" lon="3.23551">
        <ele>99.2</ele>
        <time>2021-08-15T06:48:27Z</time>
      </trkpt>
      <trkpt lat="50.57928" lon="3.23526">
        <ele>100.9</ele>
        <time>2021-08-15T06:48:33Z</time>
      </trkpt>
      <trkpt lat="50.5793" lon="3.23496">
        <ele>101.8</ele>
        <time>2021-08-15T06:48:39Z</time>
      </trkpt>
      <trkpt lat="50.5793" lon="3.23467">
        <ele>101.6</ele>
        <time>2021-08-15T06:48:45Z</time>
      </trkpt>
      <trkpt lat="50.57929" lon="3.2344">
        <ele>102</ele>
        <time>2021-08-15T06:48:51Z</time>
      </trkpt>
      <trkpt lat="50.57928" lon="3.23414">
        <ele>103.7</ele>
        <time>2021-08-15T06:48:56Z</time>
      </trkpt>
      <trkpt lat="50.57928" lon="3.23387">
        <ele>101.3</ele>
        <time>2021-08-15T06:49:02Z</time>
      </trkpt>
      <trkpt lat="50.57927" lon="3.2336">
        <ele>101.1</ele>
        <time>2021-08-15T06:49:07Z</time>
      </trkpt>
      <trkpt lat="50.57928" lon="3.23331">
        <ele>100.1</ele>
        <time>2021-08-15T06:49:13Z</time>
      </trkpt>
      <trkpt lat="50.57927" lon="3.23306">
        <ele>99.9</ele>
        <time>2021-08-15T06:49:18Z</time>
      </trkpt>
      <trkpt lat="50.57927" lon="3.23281">
        <ele>99.3</ele>
        <time>2021-08-15T06:49:24Z</time>
      </trkpt>
      <trkpt lat="50.57925" lon="3.23262">
        <ele>99.9</ele>
        <time>2021-08-15T06:49:29Z</time>
      </trkpt>
      <trkpt lat="50.57925" lon="3.23238">
        <ele>99.4</ele>
        <time>2021-08-15T06:49:34Z</time>
      </trkpt>
      <trkpt lat="50.57923" lon="3.23212">
        <ele>98.9</ele>
        <time>2021-08-15T06:49:40Z</time>
      </trkpt>
      <trkpt lat="50.57923" lon="3.23191">
        <ele>100.1</ele>
        <time>2021-08-15T06:49:45Z</time>
      </trkpt>
      <trkpt lat="50.57922" lon="3.23167">
        <ele>100</ele>
        <time>2021-08-15T06:49:50Z</time>
      </trkpt>
      <trkpt lat="50.57922" lon="3.23141">
        <ele>100.4</ele>
        <time>2021-08-15T06:49:55Z</time>
      </trkpt>
      <trkpt lat="50.57921" lon="3.23112">
        <ele>100.4</ele>
        <time>2021-08-15T06:50:01Z</time>
      </trkpt>
      <trkpt lat="50.57921" lon="3.23085">
        <ele>99.7</ele>
        <time>2021-08-15T06:50:06Z</time>
      </trkpt>
      <trkpt lat="50.5792" lon="3.23053">
        <ele>99.5</ele>
        <time>2021-08-15T06:50:11Z</time>
      </trkpt>
      <trkpt lat="50.5792" lon="3.23024">
        <ele>99</ele>
        <time>2021-08-15T06:50:16Z</time>
      </trkpt>
      <trkpt lat="50.5792" lon="3.22991">
        <ele>98.6</ele>
        <time>2021-08-15T06:50:22Z</time>
      </trkpt>
      <trkpt lat="50.57919" lon="3.22959">
        <ele>98.8</ele>
        <time>2021-08-15T06:50:28Z</time>
      </trkpt>
      <trkpt lat="50.5792" lon="3.2293">
        <ele>98.6</ele>
        <time>2021-08-15T06:50:34Z</time>
      </trkpt>
      <trkpt lat="50.57918" lon="3.22901">
        <ele>99.8</ele>
        <time>2021-08-15T06:50:39Z</time>
      </trkpt>
      <trkpt lat="50.57917" lon="3.22877">
        <ele>99.8</ele>
        <time>2021-08-15T06:50:44Z</time>
      </trkpt>
      <trkpt lat="50.57916" lon="3.22847">
        <ele>100.4</ele>
        <time>2021-08-15T06:50:50Z</time>
      </trkpt>
      <trkpt lat="50.57918" lon="3.22821">
        <ele>100.4</ele>
        <time>2021-08-15T06:50:55Z</time>
      </trkpt>
      <trkpt lat="50.5792" lon="3.22792">
        <ele>100.1</ele>
        <time>2021-08-15T06:51:01Z</time>
      </trkpt>
      <trkpt lat="50.57921" lon="3.22764">
        <ele>100.2</ele>
        <time>2021-08-15T06:51:06Z</time>
      </trkpt>
      <trkpt lat="50.57922" lon="3.22737">
        <ele>101.1</ele>
        <time>2021-08-15T06:51:11Z</time>
      </trkpt>
      <trkpt lat="50.57923" lon="3.22707">
        <ele>101.1</ele>
        <time>2021-08-15T06:51:17Z</time>
      </trkpt>
      <trkpt lat="50.57924" lon="3.22681">
        <ele>99.7</ele>
        <time>2021-08-15T06:51:22Z</time>
      </trkpt>
      <trkpt lat="50.57924" lon="3.22656">
        <ele>99.9</ele>
        <time>2021-08-15T06:51:27Z</time>
      </trkpt>
      <trkpt lat="50.57925" lon="3.22631">
        <ele>99.9</ele>
        <time>2021-08-15T06:51:32Z</time>
      </trkpt>
      <trkpt lat="50.57926" lon="3.22607">
        <ele>99.7</ele>
        <time>2021-08-15T06:51:37Z</time>
      </trkpt>
      <trkpt lat="50.57926" lon="3.22576">
        <ele>99.6</ele>
        <time>2021-08-15T06:51:43Z</time>
      </trkpt>
      <trkpt lat="50.57927" lon="3.22547">
        <ele>100.2</ele>
        <time>2021-08-15T06:51:48Z</time>
      </trkpt>
      <trkpt lat="50.57927" lon="3.22517">
        <ele>101.2</ele>
        <time>2021-08-15T06:51:54Z</time>
      </trkpt>
      <trkpt lat="50.57927" lon="3.22488">
        <ele>100.3</ele>
        <time>2021-08-15T06:51:59Z</time>
      </trkpt>
      <trkpt lat="50.57928" lon="3.22459">
        <ele>99.8</ele>
        <time>2021-08-15T06:52:04Z</time>
      </trkpt>
      <trkpt lat="50.57929" lon="3.22431">
        <ele>98.4</ele>
        <time>2021-08-15T06:52:09Z</time>
      </trkpt>
      <trkpt lat="50.57931" lon="3.224">
        <ele>96.4</ele>
        <time>2021-08-15T06:52:15Z</time>
      </trkpt>
      <trkpt lat="50.57931" lon="3.22371">
        <ele>96.9</ele>
        <time>2021-08-15T06:52:20Z</time>
      </trkpt>
      <trkpt lat="50.57932" lon="3.22342">
        <ele>95.5</ele>
        <time>2021-08-15T06:52:25Z</time>
      </trkpt>
      <trkpt lat="50.57934" lon="3.22315">
        <ele>96.2</ele>
        <time>2021-08-15T06:52:31Z</time>
      </trkpt>
      <trkpt lat="50.57935" lon="3.22282">
        <ele>95.4</ele>
        <time>2021-08-15T06:52:36Z</time>
      </trkpt>
      <trkpt lat="50.57937" lon="3.22253">
        <ele>95.4</ele>
        <time>2021-08-15T06:52:41Z</time>
      </trkpt>
      <trkpt lat="50.5794" lon="3.22228">
        <ele>95.3</ele>
        <time>2021-08-15T06:52:46Z</time>
      </trkpt>
      <trkpt lat="50.57943" lon="3.222">
        <ele>95.1</ele>
        <time>2021-08-15T06:52:52Z</time>
      </trkpt>
      <trkpt lat="50.57947" lon="3.2217">
        <ele>95.3</ele>
        <time>2021-08-15T06:52:57Z</time>
      </trkpt>
      <trkpt lat="50.5795" lon="3.22145">
        <ele>94.2</ele>
        <time>2021-08-15T06:53:02Z</time>
      </trkpt>
      <trkpt lat="50.57954" lon="3.22118">
        <ele>94</ele>
        <time>2021-08-15T06:53:07Z</time>
      </trkpt>
      <trkpt lat="50.57957" lon="3.22085">
        <ele>93.5</ele>
        <time>2021-08-15T06:53:13Z</time>
      </trkpt>
      <trkpt lat="50.57959" lon="3.22058">
        <ele>92.1</ele>
        <time>2021-08-15T06:53:18Z</time>
      </trkpt>
      <trkpt lat="50.57959" lon="3.22034">
        <ele>93.2</ele>
        <time>2021-08-15T06:53:23Z</time>
      </trkpt>
      <trkpt lat="50.57959" lon="3.22011">
        <ele>93.5</ele>
        <time>2021-08-15T06:53:29Z</time>
      </trkpt>
      <trkpt lat="50.57958" lon="3.21989">
        <ele>94.5</ele>
        <time>2021-08-15T06:53:34Z</time>
      </trkpt>
      <trkpt lat="50.57958" lon="3.21971">
        <ele>93.6</ele>
        <time>2021-08-15T06:53:39Z</time>
      </trkpt>
      <trkpt lat="50.57961" lon="3.21974">
        <ele>93.8</ele>
        <time>2021-08-15T06:53:45Z</time>
      </trkpt>
      <trkpt lat="50.57961" lon="3.21965">
        <ele>94.1</ele>
        <time>2021-08-15T06:53:50Z</time>
      </trkpt>
      <trkpt lat="50.57964" lon="3.2194">
        <ele>95</ele>
        <time>2021-08-15T06:53:55Z</time>
      </trkpt>
      <trkpt lat="50.57969" lon="3.21911">
        <ele>94.5</ele>
        <time>2021-08-15T06:54:01Z</time>
      </trkpt>
      <trkpt lat="50.57977" lon="3.21886">
        <ele>95.1</ele>
        <time>2021-08-15T06:54:06Z</time>
      </trkpt>
      <trkpt lat="50.57983" lon="3.21861">
        <ele>94.3</ele>
        <time>2021-08-15T06:54:11Z</time>
      </trkpt>
      <trkpt lat="50.5799" lon="3.21835">
        <ele>95</ele>
        <time>2021-08-15T06:54:17Z</time>
      </trkpt>
      <trkpt lat="50.57995" lon="3.21809">
        <ele>94.4</ele>
        <time>2021-08-15T06:54:22Z</time>
      </trkpt>
      <trkpt lat="50.58001" lon="3.21781">
        <ele>94</ele>
        <time>2021-08-15T06:54:27Z</time>
      </trkpt>
      <trkpt lat="50.58007" lon="3.21753">
        <ele>93.6</ele>
        <time>2021-08-15T06:54:32Z</time>
      </trkpt>
      <trkpt lat="50.58016" lon="3.21722">
        <ele>93.2</ele>
        <time>2021-08-15T06:54:38Z</time>
      </trkpt>
      <trkpt lat="50.58026" lon="3.21693">
        <ele>93.7</ele>
        <time>2021-08-15T06:54:43Z</time>
      </trkpt>
      <trkpt lat="50.58034" lon="3.21664">
        <ele>93.1</ele>
        <time>2021-08-15T06:54:49Z</time>
      </trkpt>
      <trkpt lat="50.58042" lon="3.21635">
        <ele>93.1</ele>
        <time>2021-08-15T06:54:54Z</time>
      </trkpt>
      <trkpt lat="50.58048" lon="3.2161">
        <ele>93.4</ele>
        <time>2021-08-15T06:55:00Z</time>
      </trkpt>
      <trkpt lat="50.58055" lon="3.21586">
        <ele>94.3</ele>
        <time>2021-08-15T06:55:05Z</time>
      </trkpt>
      <trkpt lat="50.58061" lon="3.21559">
        <ele>94.1</ele>
        <time>2021-08-15T06:55:10Z</time>
      </trkpt>
      <trkpt lat="50.58067" lon="3.2153">
        <ele>93.6</ele>
        <time>2021-08-15T06:55:16Z</time>
      </trkpt>
      <trkpt lat="50.58073" lon="3.21504">
        <ele>93.9</ele>
        <time>2021-08-15T06:55:21Z</time>
      </trkpt>
      <trkpt lat="50.58078" lon="3.21477">
        <ele>94</ele>
        <time>2021-08-15T06:55:26Z</time>
      </trkpt>
      <trkpt lat="50.58083" lon="3.21447">
        <ele>93.8</ele>
        <time>2021-08-15T06:55:32Z</time>
      </trkpt>
      <trkpt lat="50.58088" lon="3.21417">
        <ele>93.6</ele>
        <time>2021-08-15T06:55:37Z</time>
      </trkpt>
      <trkpt lat="50.58091" lon="3.21386">
        <ele>93.2</ele>
        <time>2021-08-15T06:55:42Z</time>
      </trkpt>
      <trkpt lat="50.58094" lon="3.21357">
        <ele>92.2</ele>
        <time>2021-08-15T06:55:48Z</time>
      </trkpt>
      <trkpt lat="50.58095" lon="3.21326">
        <ele>91.1</ele>
        <time>2021-08-15T06:55:53Z</time>
      </trkpt>
      <trkpt lat="50.58096" lon="3.21297">
        <ele>90.8</ele>
        <time>2021-08-15T06:55:58Z</time>
      </trkpt>
      <trkpt lat="50.58096" lon="3.21265">
        <ele>91.3</ele>
        <time>2021-08-15T06:56:04Z</time>
      </trkpt>
      <trkpt lat="50.58096" lon="3.21236">
        <ele>91.8</ele>
        <time>2021-08-15T06:56:10Z</time>
      </trkpt>
      <trkpt lat="50.58095" lon="3.2121">
        <ele>91.5</ele>
        <time>2021-08-15T06:56:15Z</time>
      </trkpt>
      <trkpt lat="50.58094" lon="3.21183">
        <ele>91</ele>
        <time>2021-08-15T06:56:21Z</time>
      </trkpt>
      <trkpt lat="50.58092" lon="3.21158">
        <ele>91.1</ele>
        <time>2021-08-15T06:56:26Z</time>
      </trkpt>
      <trkpt lat="50.5809" lon="3.21133">
        <ele>90.3</ele>
        <time>2021-08-15T06:56:31Z</time>
      </trkpt>
      <trkpt lat="50.58087" lon="3.21108">
        <ele>90.4</ele>
        <time>2021-08-15T06:56:37Z</time>
      </trkpt>
      <trkpt lat="50.58084" lon="3.21078">
        <ele>90.6</ele>
        <time>2021-08-15T06:56:43Z</time>
      </trkpt>
      <trkpt lat="50.58081" lon="3.21049">
        <ele>91.2</ele>
        <time>2021-08-15T06:56:48Z</time>
      </trkpt>
      <trkpt lat="50.58077" lon="3.21021">
        <ele>90.9</ele>
        <time>2021-08-15T06:56:53Z</time>
      </trkpt>
      <trkpt lat="50.58073" lon="3.20994">
        <ele>91.3</ele>
        <time>2021-08-15T06:56:58Z</time>
      </trkpt>
      <trkpt lat="50.58068" lon="3.20962">
        <ele>90</ele>
        <time>2021-08-15T06:57:04Z</time>
      </trkpt>
      <trkpt lat="50.58065" lon="3.20934">
        <ele>89.8</ele>
        <time>2021-08-15T06:57:09Z</time>
      </trkpt>
      <trkpt lat="50.58061" lon="3.20907">
        <ele>90.3</ele>
        <time>2021-08-15T06:57:14Z</time>
      </trkpt>
      <trkpt lat="50.58058" lon="3.2088">
        <ele>90.4</ele>
        <time>2021-08-15T06:57:19Z</time>
      </trkpt>
      <trkpt lat="50.58054" lon="3.20852">
        <ele>91.3</ele>
        <time>2021-08-15T06:57:25Z</time>
      </trkpt>
      <trkpt lat="50.58051" lon="3.20826">
        <ele>90.5</ele>
        <time>2021-08-15T06:57:30Z</time>
      </trkpt>
      <trkpt lat="50.58049" lon="3.20797">
        <ele>89.6</ele>
        <time>2021-08-15T06:57:35Z</time>
      </trkpt>
      <trkpt lat="50.58049" lon="3.20768">
        <ele>88.6</ele>
        <time>2021-08-15T06:57:40Z</time>
      </trkpt>
      <trkpt lat="50.58048" lon="3.20733">
        <ele>89.9</ele>
        <time>2021-08-15T06:57:46Z</time>
      </trkpt>
      <trkpt lat="50.5805" lon="3.20702">
        <ele>90.7</ele>
        <time>2021-08-15T06:57:52Z</time>
      </trkpt>
      <trkpt lat="50.58049" lon="3.2067">
        <ele>89.4</ele>
        <time>2021-08-15T06:57:57Z</time>
      </trkpt>
      <trkpt lat="50.58048" lon="3.20639">
        <ele>89.2</ele>
        <time>2021-08-15T06:58:02Z</time>
      </trkpt>
      <trkpt lat="50.58047" lon="3.2061">
        <ele>89</ele>
        <time>2021-08-15T06:58:07Z</time>
      </trkpt>
      <trkpt lat="50.58045" lon="3.20584">
        <ele>89.3</ele>
        <time>2021-08-15T06:58:12Z</time>
      </trkpt>
      <trkpt lat="50.58045" lon="3.20557">
        <ele>89.7</ele>
        <time>2021-08-15T06:58:18Z</time>
      </trkpt>
      <trkpt lat="50.58045" lon="3.20526">
        <ele>89.3</ele>
        <time>2021-08-15T06:58:23Z</time>
      </trkpt>
      <trkpt lat="50.58045" lon="3.20498">
        <ele>89</ele>
        <time>2021-08-15T06:58:29Z</time>
      </trkpt>
      <trkpt lat="50.58043" lon="3.20472">
        <ele>89.2</ele>
        <time>2021-08-15T06:58:34Z</time>
      </trkpt>
      <trkpt lat="50.58041" lon="3.20445">
        <ele>88.3</ele>
        <time>2021-08-15T06:58:39Z</time>
      </trkpt>
      <trkpt lat="50.58039" lon="3.20416">
        <ele>88.4</ele>
        <time>2021-08-15T06:58:44Z</time>
      </trkpt>
      <trkpt lat="50.58037" lon="3.20386">
        <ele>87.7</ele>
        <time>2021-08-15T06:58:50Z</time>
      </trkpt>
      <trkpt lat="50.58035" lon="3.20355">
        <ele>87.9</ele>
        <time>2021-08-15T06:58:55Z</time>
      </trkpt>
      <trkpt lat="50.58033" lon="3.20328">
        <ele>87.6</ele>
        <time>2021-08-15T06:59:00Z</time>
      </trkpt>
      <trkpt lat="50.5803" lon="3.20298">
        <ele>88.4</ele>
        <time>2021-08-15T06:59:06Z</time>
      </trkpt>
      <trkpt lat="50.58026" lon="3.20268">
        <ele>87.5</ele>
        <time>2021-08-15T06:59:12Z</time>
      </trkpt>
      <trkpt lat="50.58026" lon="3.20236">
        <ele>85.8</ele>
        <time>2021-08-15T06:59:18Z</time>
      </trkpt>
      <trkpt lat="50.5802" lon="3.20206">
        <ele>86.1</ele>
        <time>2021-08-15T06:59:23Z</time>
      </trkpt>
      <trkpt lat="50.58016" lon="3.20175">
        <ele>85.6</ele>
        <time>2021-08-15T06:59:28Z</time>
      </trkpt>
      <trkpt lat="50.58007" lon="3.20142">
        <ele>85.5</ele>
        <time>2021-08-15T06:59:34Z</time>
      </trkpt>
      <trkpt lat="50.58005" lon="3.2011">
        <ele>84.9</ele>
        <time>2021-08-15T06:59:40Z</time>
      </trkpt>
      <trkpt lat="50.58" lon="3.2008">
        <ele>84.3</ele>
        <time>2021-08-15T06:59:45Z</time>
      </trkpt>
      <trkpt lat="50.57995" lon="3.2005">
        <ele>84</ele>
        <time>2021-08-15T06:59:50Z</time>
      </trkpt>
      <trkpt lat="50.5799" lon="3.20015">
        <ele>83.6</ele>
        <time>2021-08-15T06:59:56Z</time>
      </trkpt>
      <trkpt lat="50.57986" lon="3.19986">
        <ele>83.7</ele>
        <time>2021-08-15T07:00:01Z</time>
      </trkpt>
      <trkpt lat="50.57982" lon="3.19957">
        <ele>82.7</ele>
        <time>2021-08-15T07:00:06Z</time>
      </trkpt>
      <trkpt lat="50.57979" lon="3.19927">
        <ele>82.2</ele>
        <time>2021-08-15T07:00:11Z</time>
      </trkpt>
      <trkpt lat="50.57976" lon="3.19898">
        <ele>81.1</ele>
        <time>2021-08-15T07:00:17Z</time>
      </trkpt>
      <trkpt lat="50.57972" lon="3.19863">
        <ele>81.8</ele>
        <time>2021-08-15T07:00:22Z</time>
      </trkpt>
      <trkpt lat="50.57969" lon="3.19834">
        <ele>82.2</ele>
        <time>2021-08-15T07:00:27Z</time>
      </trkpt>
      <trkpt lat="50.57966" lon="3.19813">
        <ele>81.6</ele>
        <time>2021-08-15T07:00:32Z</time>
      </trkpt>
      <trkpt lat="50.57962" lon="3.19791">
        <ele>82.2</ele>
        <time>2021-08-15T07:00:38Z</time>
      </trkpt>
      <trkpt lat="50.57959" lon="3.19765">
        <ele>83.4</ele>
        <time>2021-08-15T07:00:43Z</time>
      </trkpt>
      <trkpt lat="50.57955" lon="3.19741">
        <ele>83.3</ele>
        <time>2021-08-15T07:00:48Z</time>
      </trkpt>
      <trkpt lat="50.57952" lon="3.19715">
        <ele>84.1</ele>
        <time>2021-08-15T07:00:54Z</time>
      </trkpt>
      <trkpt lat="50.57949" lon="3.19687">
        <ele>84.2</ele>
        <time>2021-08-15T07:00:59Z</time>
      </trkpt>
      <trkpt lat="50.57947" lon="3.1966">
        <ele>83.2</ele>
        <time>2021-08-15T07:01:05Z</time>
      </trkpt>
      <trkpt lat="50.57944" lon="3.19631">
        <ele>83.7</ele>
        <time>2021-08-15T07:01:10Z</time>
      </trkpt>
      <trkpt lat="50.57943" lon="3.19607">
        <ele>82.9</ele>
        <time>2021-08-15T07:01:15Z</time>
      </trkpt>
      <trkpt lat="50.57939" lon="3.19581">
        <ele>83.5</ele>
        <time>2021-08-15T07:01:20Z</time>
      </trkpt>
      <trkpt lat="50.57934" lon="3.19552">
        <ele>83.2</ele>
        <time>2021-08-15T07:01:26Z</time>
      </trkpt>
      <trkpt lat="50.57932" lon="3.19522">
        <ele>83.6</ele>
        <time>2021-08-15T07:01:31Z</time>
      </trkpt>
      <trkpt lat="50.57929" lon="3.19493">
        <ele>82.1</ele>
        <time>2021-08-15T07:01:36Z</time>
      </trkpt>
      <trkpt lat="50.57928" lon="3.19466">
        <ele>82.8</ele>
        <time>2021-08-15T07:01:41Z</time>
      </trkpt>
      <trkpt lat="50.57926" lon="3.19437">
        <ele>82.5</ele>
        <time>2021-08-15T07:01:47Z</time>
      </trkpt>
      <trkpt lat="50.57924" lon="3.1941">
        <ele>82.9</ele>
        <time>2021-08-15T07:01:53Z</time>
      </trkpt>
      <trkpt lat="50.57926" lon="3.19379">
        <ele>83.1</ele>
        <time>2021-08-15T07:01:58Z</time>
      </trkpt>
      <trkpt lat="50.57927" lon="3.19348">
        <ele>82.6</ele>
        <time>2021-08-15T07:02:03Z</time>
      </trkpt>
      <trkpt lat="50.57925" lon="3.19318">
        <ele>81.9</ele>
        <time>2021-08-15T07:02:09Z</time>
      </trkpt>
      <trkpt lat="50.57922" lon="3.1929">
        <ele>82.6</ele>
        <time>2021-08-15T07:02:14Z</time>
      </trkpt>
      <trkpt lat="50.5792" lon="3.19261">
        <ele>83.3</ele>
        <time>2021-08-15T07:02:19Z</time>
      </trkpt>
      <trkpt lat="50.57918" lon="3.19233">
        <ele>84.1</ele>
        <time>2021-08-15T07:02:25Z</time>
      </trkpt>
      <trkpt lat="50.57913" lon="3.19207">
        <ele>84</ele>
        <time>2021-08-15T07:02:30Z</time>
      </trkpt>
      <trkpt lat="50.57906" lon="3.1918">
        <ele>85.3</ele>
        <time>2021-08-15T07:02:36Z</time>
      </trkpt>
      <trkpt lat="50.57901" lon="3.19156">
        <ele>86.7</ele>
        <time>2021-08-15T07:02:41Z</time>
      </trkpt>
      <trkpt lat="50.57895" lon="3.19131">
        <ele>86.3</ele>
        <time>2021-08-15T07:02:46Z</time>
      </trkpt>
      <trkpt lat="50.5789" lon="3.19101">
        <ele>86.9</ele>
        <time>2021-08-15T07:02:52Z</time>
      </trkpt>
      <trkpt lat="50.57884" lon="3.1907">
        <ele>86.9</ele>
        <time>2021-08-15T07:02:58Z</time>
      </trkpt>
      <trkpt lat="50.5788" lon="3.19051">
        <ele>86.5</ele>
        <time>2021-08-15T07:03:04Z</time>
      </trkpt>
      <trkpt lat="50.57877" lon="3.19039">
        <ele>84.4</ele>
        <time>2021-08-15T07:03:09Z</time>
      </trkpt>
      <trkpt lat="50.57875" lon="3.19019">
        <ele>88.4</ele>
        <time>2021-08-15T07:03:14Z</time>
      </trkpt>
      <trkpt lat="50.57879" lon="3.19013">
        <ele>89.6</ele>
        <time>2021-08-15T07:03:19Z</time>
      </trkpt>
      <trkpt lat="50.57892" lon="3.19026">
        <ele>88.8</ele>
        <time>2021-08-15T07:03:25Z</time>
      </trkpt>
      <trkpt lat="50.57907" lon="3.19033">
        <ele>89.2</ele>
        <time>2021-08-15T07:03:30Z</time>
      </trkpt>
      <trkpt lat="50.57918" lon="3.19007">
        <ele>87.6</ele>
        <time>2021-08-15T07:03:36Z</time>
      </trkpt>
      <trkpt lat="50.57916" lon="3.18978">
        <ele>87.3</ele>
        <time>2021-08-15T07:03:41Z</time>
      </trkpt>
      <trkpt lat="50.57912" lon="3.18948">
        <ele>86.4</ele>
        <time>2021-08-15T07:03:47Z</time>
      </trkpt>
      <trkpt lat="50.57904" lon="3.18928">
        <ele>85.9</ele>
        <time>2021-08-15T07:03:52Z</time>
      </trkpt>
      <trkpt lat="50.57904" lon="3.18902">
        <ele>85.5</ele>
        <time>2021-08-15T07:03:57Z</time>
      </trkpt>
      <trkpt lat="50.57906" lon="3.18874">
        <ele>86.6</ele>
        <time>2021-08-15T07:04:02Z</time>
      </trkpt>
      <trkpt lat="50.5791" lon="3.18849">
        <ele>86.5</ele>
        <time>2021-08-15T07:04:08Z</time>
      </trkpt>
      <trkpt lat="50.57924" lon="3.18848">
        <ele>87.9</ele>
        <time>2021-08-15T07:04:13Z</time>
      </trkpt>
      <trkpt lat="50.57935" lon="3.1883">
        <ele>87.3</ele>
        <time>2021-08-15T07:04:19Z</time>
      </trkpt>
      <trkpt lat="50.57937" lon="3.18799">
        <ele>87.7</ele>
        <time>2021-08-15T07:04:24Z</time>
      </trkpt>
      <trkpt lat="50.57941" lon="3.18784">
        <ele>87.4</ele>
        <time>2021-08-15T07:04:29Z</time>
      </trkpt>
      <trkpt lat="50.57941" lon="3.18783">
        <ele>87.6</ele>
        <time>2021-08-15T07:04:35Z</time>
      </trkpt>
      <trkpt lat="50.57941" lon="3.18783">
        <ele>88.6</ele>
        <time>2021-08-15T07:04:41Z</time>
      </trkpt>
      <trkpt lat="50.5794" lon="3.18782">
        <ele>89.4</ele>
        <time>2021-08-15T07:04:46Z</time>
      </trkpt>
      <trkpt lat="50.57935" lon="3.18773">
        <ele>88.9</ele>
        <time>2021-08-15T07:04:51Z</time>
      </trkpt>
      <trkpt lat="50.57932" lon="3.18749">
        <ele>88.3</ele>
        <time>2021-08-15T07:04:57Z</time>
      </trkpt>
      <trkpt lat="50.57934" lon="3.18729">
        <ele>87.7</ele>
        <time>2021-08-15T07:05:02Z</time>
      </trkpt>
      <trkpt lat="50.57935" lon="3.18709">
        <ele>85.6</ele>
        <time>2021-08-15T07:05:07Z</time>
      </trkpt>
      <trkpt lat="50.57936" lon="3.18695">
        <ele>85.3</ele>
        <time>2021-08-15T07:05:13Z</time>
      </trkpt>
      <trkpt lat="50.57934" lon="3.18686">
        <ele>87.3</ele>
        <time>2021-08-15T07:05:18Z</time>
      </trkpt>
      <trkpt lat="50.5792" lon="3.18682">
        <ele>86.2</ele>
        <time>2021-08-15T07:05:23Z</time>
      </trkpt>
      <trkpt lat="50.57909" lon="3.18673">
        <ele>85.3</ele>
        <time>2021-08-15T07:05:29Z</time>
      </trkpt>
      <trkpt lat="50.57907" lon="3.18672">
        <ele>85.3</ele>
        <time>2021-08-15T07:05:34Z</time>
      </trkpt>
      <trkpt lat="50.57908" lon="3.18673">
        <ele>85.4</ele>
        <time>2021-08-15T07:05:40Z</time>
      </trkpt>
      <trkpt lat="50.57908" lon="3.18673">
        <ele>85.8</ele>
        <time>2021-08-15T07:05:45Z</time>
      </trkpt>
      <trkpt lat="50.57908" lon="3.18673">
        <ele>85.9</ele>
        <time>2021-08-15T07:05:50Z</time>
      </trkpt>
      <trkpt lat="50.57908" lon="3.18673">
        <ele>85.9</ele>
        <time>2021-08-15T07:05:55Z</time>
      </trkpt>
      <trkpt lat="50.57908" lon="3.18673">
        <ele>86</ele>
        <time>2021-08-15T07:06:00Z</time>
      </trkpt>
      <trkpt lat="50.57908" lon="3.18674">
        <ele>86.8</ele>
        <time>2021-08-15T07:06:06Z</time>
      </trkpt>
      <trkpt lat="50.5791" lon="3.18678">
        <ele>85.9</ele>
        <time>2021-08-15T07:06:12Z</time>
      </trkpt>
      <trkpt lat="50.57911" lon="3.18679">
        <ele>86.2</ele>
        <time>2021-08-15T07:06:17Z</time>
      </trkpt>
      <trkpt lat="50.5791" lon="3.18679">
        <ele>86.1</ele>
        <time>2021-08-15T07:06:22Z</time>
      </trkpt>
      <trkpt lat="50.57909" lon="3.18676">
        <ele>83.8</ele>
        <time>2021-08-15T07:06:28Z</time>
      </trkpt>
      <trkpt lat="50.57908" lon="3.18675">
        <ele>83.8</ele>
        <time>2021-08-15T07:06:33Z</time>
      </trkpt>
      <trkpt lat="50.57908" lon="3.18676">
        <ele>83</ele>
        <time>2021-08-15T07:06:39Z</time>
      </trkpt>
      <trkpt lat="50.57907" lon="3.18676">
        <ele>83.1</ele>
        <time>2021-08-15T07:06:44Z</time>
      </trkpt>
      <trkpt lat="50.57907" lon="3.18676">
        <ele>83.1</ele>
        <time>2021-08-15T07:06:50Z</time>
      </trkpt>
      <trkpt lat="50.57906" lon="3.18674">
        <ele>83</ele>
        <time>2021-08-15T07:06:56Z</time>
      </trkpt>
      <trkpt lat="50.57905" lon="3.18673">
        <ele>82.9</ele>
        <time>2021-08-15T07:07:01Z</time>
      </trkpt>
      <trkpt lat="50.57906" lon="3.18675">
        <ele>82.9</ele>
        <time>2021-08-15T07:07:07Z</time>
      </trkpt>
      <trkpt lat="50.57906" lon="3.18675">
        <ele>83.1</ele>
        <time>2021-08-15T07:07:13Z</time>
      </trkpt>
      <trkpt lat="50.57906" lon="3.18674">
        <ele>83</ele>
        <time>2021-08-15T07:07:18Z</time>
      </trkpt>
      <trkpt lat="50.57906" lon="3.18674">
        <ele>83.2</ele>
        <time>2021-08-15T07:07:23Z</time>
      </trkpt>
      <trkpt lat="50.57906" lon="3.18674">
        <ele>83.2</ele>
        <time>2021-08-15T07:07:29Z</time>
      </trkpt>
      <trkpt lat="50.57906" lon="3.18674">
        <ele>85.3</ele>
        <time>2021-08-15T07:07:34Z</time>
      </trkpt>
      <trkpt lat="50.57906" lon="3.18674">
        <ele>84.9</ele>
        <time>2021-08-15T07:07:39Z</time>
      </trkpt>
      <trkpt lat="50.57906" lon="3.18674">
        <ele>85.2</ele>
        <time>2021-08-15T07:07:45Z</time>
      </trkpt>
      <trkpt lat="50.57906" lon="3.18674">
        <ele>85.1</ele>
        <time>2021-08-15T07:07:50Z</time>
      </trkpt>
      <trkpt lat="50.57906" lon="3.18674">
        <ele>85.3</ele>
        <time>2021-08-15T07:07:55Z</time>
      </trkpt>
      <trkpt lat="50.57906" lon="3.18674">
        <ele>85.1</ele>
        <time>2021-08-15T07:08:00Z</time>
      </trkpt>
      <trkpt lat="50.57906" lon="3.18674">
        <ele>85.6</ele>
        <time>2021-08-15T07:08:06Z</time>
      </trkpt>
      <trkpt lat="50.57906" lon="3.18674">
        <ele>85.2</ele>
        <time>2021-08-15T07:08:12Z</time>
      </trkpt>
      <trkpt lat="50.57906" lon="3.18674">
        <ele>85.1</ele>
        <time>2021-08-15T07:08:18Z</time>
      </trkpt>
      <trkpt lat="50.57906" lon="3.18674">
        <ele>85.2</ele>
        <time>2021-08-15T07:08:24Z</time>
      </trkpt>
      <trkpt lat="50.57906" lon="3.18674">
        <ele>85.5</ele>
        <time>2021-08-15T07:08:30Z</time>
      </trkpt>
      <trkpt lat="50.57907" lon="3.18674">
        <ele>86.1</ele>
        <time>2021-08-15T07:08:36Z</time>
      </trkpt>
      <trkpt lat="50.57907" lon="3.18673">
        <ele>85.6</ele>
        <time>2021-08-15T07:08:42Z</time>
      </trkpt>
      <trkpt lat="50.57907" lon="3.18674">
        <ele>86.7</ele>
        <time>2021-08-15T07:08:48Z</time>
      </trkpt>
      <trkpt lat="50.57907" lon="3.18674">
        <ele>87.3</ele>
        <time>2021-08-15T07:08:53Z</time>
      </trkpt>
      <trkpt lat="50.57907" lon="3.18674">
        <ele>86.5</ele>
        <time>2021-08-15T07:08:59Z</time>
      </trkpt>
      <trkpt lat="50.57908" lon="3.18675">
        <ele>86.1</ele>
        <time>2021-08-15T07:09:04Z</time>
      </trkpt>
      <trkpt lat="50.57908" lon="3.18675">
        <ele>86.6</ele>
        <time>2021-08-15T07:09:09Z</time>
      </trkpt>
      <trkpt lat="50.57908" lon="3.18675">
        <ele>87.7</ele>
        <time>2021-08-15T07:09:14Z</time>
      </trkpt>
      <trkpt lat="50.57908" lon="3.18675">
        <ele>88.9</ele>
        <time>2021-08-15T07:09:20Z</time>
      </trkpt>
      <trkpt lat="50.57908" lon="3.18675">
        <ele>88.8</ele>
        <time>2021-08-15T07:09:26Z</time>
      </trkpt>
      <trkpt lat="50.57908" lon="3.18674">
        <ele>88.7</ele>
        <time>2021-08-15T07:09:32Z</time>
      </trkpt>
      <trkpt lat="50.57908" lon="3.18675">
        <ele>88.9</ele>
        <time>2021-08-15T07:09:38Z</time>
      </trkpt>
      <trkpt lat="50.57908" lon="3.18675">
        <ele>89.2</ele>
        <time>2021-08-15T07:09:43Z</time>
      </trkpt>
      <trkpt lat="50.57908" lon="3.18675">
        <ele>89.2</ele>
        <time>2021-08-15T07:09:48Z</time>
      </trkpt>
      <trkpt lat="50.57908" lon="3.18675">
        <ele>89.1</ele>
        <time>2021-08-15T07:09:53Z</time>
      </trkpt>
      <trkpt lat="50.57908" lon="3.18675">
        <ele>88.9</ele>
        <time>2021-08-15T07:09:59Z</time>
      </trkpt>
      <trkpt lat="50.57908" lon="3.18675">
        <ele>89.2</ele>
        <time>2021-08-15T07:10:05Z</time>
      </trkpt>
      <trkpt lat="50.57908" lon="3.18675">
        <ele>89.1</ele>
        <time>2021-08-15T07:10:11Z</time>
      </trkpt>
      <trkpt lat="50.57908" lon="3.18675">
        <ele>88.3</ele>
        <time>2021-08-15T07:10:16Z</time>
      </trkpt>
      <trkpt lat="50.57912" lon="3.18679">
        <ele>87.8</ele>
        <time>2021-08-15T07:10:22Z</time>
      </trkpt>
      <trkpt lat="50.57919" lon="3.18682">
        <ele>87.7</ele>
        <time>2021-08-15T07:10:27Z</time>
      </trkpt>
      <trkpt lat="50.57931" lon="3.18684">
        <ele>88</ele>
        <time>2021-08-15T07:10:33Z</time>
      </trkpt>
      <trkpt lat="50.5794" lon="3.18683">
        <ele>89.2</ele>
        <time>2021-08-15T07:10:39Z</time>
      </trkpt>
      <trkpt lat="50.57949" lon="3.18679">
        <ele>89.7</ele>
        <time>2021-08-15T07:10:44Z</time>
      </trkpt>
      <trkpt lat="50.57961" lon="3.18675">
        <ele>91.8</ele>
        <time>2021-08-15T07:10:50Z</time>
      </trkpt>
      <trkpt lat="50.57975" lon="3.1867">
        <ele>92.4</ele>
        <time>2021-08-15T07:10:55Z</time>
      </trkpt>
      <trkpt lat="50.5799" lon="3.18662">
        <ele>92.7</ele>
        <time>2021-08-15T07:11:01Z</time>
      </trkpt>
      <trkpt lat="50.58009" lon="3.18668">
        <ele>91.3</ele>
        <time>2021-08-15T07:11:07Z</time>
      </trkpt>
      <trkpt lat="50.58027" lon="3.18672">
        <ele>90.2</ele>
        <time>2021-08-15T07:11:12Z</time>
      </trkpt>
      <trkpt lat="50.58024" lon="3.18696">
        <ele>88.7</ele>
        <time>2021-08-15T07:11:18Z</time>
      </trkpt>
      <trkpt lat="50.58023" lon="3.18729">
        <ele>87.5</ele>
        <time>2021-08-15T07:11:23Z</time>
      </trkpt>
      <trkpt lat="50.58018" lon="3.18766">
        <ele>86.4</ele>
        <time>2021-08-15T07:11:28Z</time>
      </trkpt>
      <trkpt lat="50.58012" lon="3.18795">
        <ele>87.3</ele>
        <time>2021-08-15T07:11:34Z</time>
      </trkpt>
      <trkpt lat="50.58023" lon="3.18805">
        <ele>87.4</ele>
        <time>2021-08-15T07:11:40Z</time>
      </trkpt>
      <trkpt lat="50.58042" lon="3.18815">
        <ele>86.5</ele>
        <time>2021-08-15T07:11:45Z</time>
      </trkpt>
      <trkpt lat="50.58066" lon="3.18827">
        <ele>86.5</ele>
        <time>2021-08-15T07:11:51Z</time>
      </trkpt>
      <trkpt lat="50.58089" lon="3.18839">
        <ele>86.9</ele>
        <time>2021-08-15T07:11:56Z</time>
      </trkpt>
      <trkpt lat="50.58117" lon="3.18859">
        <ele>87.6</ele>
        <time>2021-08-15T07:12:02Z</time>
      </trkpt>
      <trkpt lat="50.58139" lon="3.18872">
        <ele>88.1</ele>
        <time>2021-08-15T07:12:07Z</time>
      </trkpt>
      <trkpt lat="50.58164" lon="3.18886">
        <ele>86.5</ele>
        <time>2021-08-15T07:12:13Z</time>
      </trkpt>
      <trkpt lat="50.58182" lon="3.18863">
        <ele>85.2</ele>
        <time>2021-08-15T07:12:19Z</time>
      </trkpt>
      <trkpt lat="50.58201" lon="3.18846">
        <ele>86.2</ele>
        <time>2021-08-15T07:12:24Z</time>
      </trkpt>
      <trkpt lat="50.58217" lon="3.18826">
        <ele>86.3</ele>
        <time>2021-08-15T07:12:29Z</time>
      </trkpt>
      <trkpt lat="50.58238" lon="3.18813">
        <ele>85</ele>
        <time>2021-08-15T07:12:34Z</time>
      </trkpt>
      <trkpt lat="50.58257" lon="3.18796">
        <ele>84.4</ele>
        <time>2021-08-15T07:12:40Z</time>
      </trkpt>
      <trkpt lat="50.58281" lon="3.1878">
        <ele>81.6</ele>
        <time>2021-08-15T07:12:45Z</time>
      </trkpt>
      <trkpt lat="50.583" lon="3.18765">
        <ele>87</ele>
        <time>2021-08-15T07:12:51Z</time>
      </trkpt>
      <trkpt lat="50.58319" lon="3.18749">
        <ele>84.9</ele>
        <time>2021-08-15T07:12:56Z</time>
      </trkpt>
      <trkpt lat="50.58335" lon="3.18727">
        <ele>87.1</ele>
        <time>2021-08-15T07:13:02Z</time>
      </trkpt>
      <trkpt lat="50.58349" lon="3.18697">
        <ele>87</ele>
        <time>2021-08-15T07:13:08Z</time>
      </trkpt>
      <trkpt lat="50.5836" lon="3.18678">
        <ele>88.2</ele>
        <time>2021-08-15T07:13:13Z</time>
      </trkpt>
      <trkpt lat="50.58371" lon="3.18648">
        <ele>85.7</ele>
        <time>2021-08-15T07:13:19Z</time>
      </trkpt>
      <trkpt lat="50.58388" lon="3.18613">
        <ele>85.6</ele>
        <time>2021-08-15T07:13:25Z</time>
      </trkpt>
      <trkpt lat="50.58397" lon="3.18586">
        <ele>84.9</ele>
        <time>2021-08-15T07:13:30Z</time>
      </trkpt>
      <trkpt lat="50.58402" lon="3.18564">
        <ele>81.7</ele>
        <time>2021-08-15T07:13:35Z</time>
      </trkpt>
      <trkpt lat="50.58407" lon="3.18549">
        <ele>81.7</ele>
        <time>2021-08-15T07:13:41Z</time>
      </trkpt>
      <trkpt lat="50.58408" lon="3.18536">
        <ele>82.6</ele>
        <time>2021-08-15T07:13:47Z</time>
      </trkpt>
      <trkpt lat="50.58409" lon="3.18527">
        <ele>83.1</ele>
        <time>2021-08-15T07:13:52Z</time>
      </trkpt>
      <trkpt lat="50.58408" lon="3.18518">
        <ele>83.5</ele>
        <time>2021-08-15T07:13:58Z</time>
      </trkpt>
      <trkpt lat="50.5841" lon="3.18518">
        <ele>82.3</ele>
        <time>2021-08-15T07:14:04Z</time>
      </trkpt>
      <trkpt lat="50.58411" lon="3.18517">
        <ele>81.7</ele>
        <time>2021-08-15T07:14:10Z</time>
      </trkpt>
      <trkpt lat="50.58411" lon="3.18515">
        <ele>80.4</ele>
        <time>2021-08-15T07:14:15Z</time>
      </trkpt>
      <trkpt lat="50.58411" lon="3.18514">
        <ele>80.9</ele>
        <time>2021-08-15T07:14:20Z</time>
      </trkpt>
      <trkpt lat="50.5841" lon="3.18513">
        <ele>81.6</ele>
        <time>2021-08-15T07:14:26Z</time>
      </trkpt>
      <trkpt lat="50.5841" lon="3.18513">
        <ele>81.9</ele>
        <time>2021-08-15T07:14:32Z</time>
      </trkpt>
      <trkpt lat="50.5841" lon="3.18513">
        <ele>81.4</ele>
        <time>2021-08-15T07:14:38Z</time>
      </trkpt>
      <trkpt lat="50.58411" lon="3.18512">
        <ele>80.3</ele>
        <time>2021-08-15T07:14:44Z</time>
      </trkpt>
      <trkpt lat="50.5841" lon="3.18499">
        <ele>79.9</ele>
        <time>2021-08-15T07:14:50Z</time>
      </trkpt>
      <trkpt lat="50.58411" lon="3.18481">
        <ele>80.4</ele>
        <time>2021-08-15T07:14:55Z</time>
      </trkpt>
      <trkpt lat="50.58413" lon="3.18456">
        <ele>81.2</ele>
        <time>2021-08-15T07:15:01Z</time>
      </trkpt>
      <trkpt lat="50.58413" lon="3.1843">
        <ele>81.2</ele>
        <time>2021-08-15T07:15:06Z</time>
      </trkpt>
      <trkpt lat="50.58413" lon="3.18405">
        <ele>81.9</ele>
        <time>2021-08-15T07:15:11Z</time>
      </trkpt>
      <trkpt lat="50.58417" lon="3.18386">
        <ele>81.9</ele>
        <time>2021-08-15T07:15:16Z</time>
      </trkpt>
      <trkpt lat="50.5842" lon="3.18352">
        <ele>81.4</ele>
        <time>2021-08-15T07:15:22Z</time>
      </trkpt>
      <trkpt lat="50.58436" lon="3.1835">
        <ele>81.9</ele>
        <time>2021-08-15T07:15:27Z</time>
      </trkpt>
      <trkpt lat="50.58458" lon="3.18362">
        <ele>81.5</ele>
        <time>2021-08-15T07:15:33Z</time>
      </trkpt>
      <trkpt lat="50.58481" lon="3.18358">
        <ele>80</ele>
        <time>2021-08-15T07:15:39Z</time>
      </trkpt>
      <trkpt lat="50.58488" lon="3.18333">
        <ele>79.3</ele>
        <time>2021-08-15T07:15:44Z</time>
      </trkpt>
      <trkpt lat="50.58493" lon="3.18313">
        <ele>82.8</ele>
        <time>2021-08-15T07:15:50Z</time>
      </trkpt>
      <trkpt lat="50.58499" lon="3.18302">
        <ele>87.3</ele>
        <time>2021-08-15T07:15:55Z</time>
      </trkpt>
      <trkpt lat="50.58507" lon="3.18283">
        <ele>91.8</ele>
        <time>2021-08-15T07:16:01Z</time>
      </trkpt>
      <trkpt lat="50.58512" lon="3.18264">
        <ele>86.1</ele>
        <time>2021-08-15T07:16:06Z</time>
      </trkpt>
      <trkpt lat="50.58503" lon="3.18252">
        <ele>84.7</ele>
        <time>2021-08-15T07:16:11Z</time>
      </trkpt>
      <trkpt lat="50.58487" lon="3.18233">
        <ele>81.5</ele>
        <time>2021-08-15T07:16:17Z</time>
      </trkpt>
      <trkpt lat="50.5847" lon="3.18216">
        <ele>82</ele>
        <time>2021-08-15T07:16:22Z</time>
      </trkpt>
      <trkpt lat="50.58455" lon="3.182">
        <ele>82.6</ele>
        <time>2021-08-15T07:16:27Z</time>
      </trkpt>
      <trkpt lat="50.58435" lon="3.18185">
        <ele>82.5</ele>
        <time>2021-08-15T07:16:33Z</time>
      </trkpt>
      <trkpt lat="50.58423" lon="3.1817">
        <ele>87.7</ele>
        <time>2021-08-15T07:16:38Z</time>
      </trkpt>
      <trkpt lat="50.58406" lon="3.1815">
        <ele>88.2</ele>
        <time>2021-08-15T07:16:43Z</time>
      </trkpt>
      <trkpt lat="50.58389" lon="3.18134">
        <ele>87.3</ele>
        <time>2021-08-15T07:16:48Z</time>
      </trkpt>
      <trkpt lat="50.58372" lon="3.18118">
        <ele>86.6</ele>
        <time>2021-08-15T07:16:53Z</time>
      </trkpt>
      <trkpt lat="50.58353" lon="3.18106">
        <ele>81.7</ele>
        <time>2021-08-15T07:16:58Z</time>
      </trkpt>
      <trkpt lat="50.58332" lon="3.18092">
        <ele>78.6</ele>
        <time>2021-08-15T07:17:04Z</time>
      </trkpt>
      <trkpt lat="50.58308" lon="3.18074">
        <ele>78.1</ele>
        <time>2021-08-15T07:17:10Z</time>
      </trkpt>
      <trkpt lat="50.5829" lon="3.18045">
        <ele>79.1</ele>
        <time>2021-08-15T07:17:16Z</time>
      </trkpt>
      <trkpt lat="50.58271" lon="3.18035">
        <ele>80.6</ele>
        <time>2021-08-15T07:17:21Z</time>
      </trkpt>
      <trkpt lat="50.58247" lon="3.1805">
        <ele>79.5</ele>
        <time>2021-08-15T07:17:27Z</time>
      </trkpt>
      <trkpt lat="50.58228" lon="3.18056">
        <ele>81.1</ele>
        <time>2021-08-15T07:17:32Z</time>
      </trkpt>
      <trkpt lat="50.58211" lon="3.18062">
        <ele>83</ele>
        <time>2021-08-15T07:17:38Z</time>
      </trkpt>
      <trkpt lat="50.58187" lon="3.18068">
        <ele>82.4</ele>
        <time>2021-08-15T07:17:44Z</time>
      </trkpt>
      <trkpt lat="50.5816" lon="3.18079">
        <ele>85.9</ele>
        <time>2021-08-15T07:17:50Z</time>
      </trkpt>
      <trkpt lat="50.58146" lon="3.18086">
        <ele>88.4</ele>
        <time>2021-08-15T07:17:55Z</time>
      </trkpt>
      <trkpt lat="50.58132" lon="3.18094">
        <ele>87.3</ele>
        <time>2021-08-15T07:18:01Z</time>
      </trkpt>
      <trkpt lat="50.58119" lon="3.1807">
        <ele>84.6</ele>
        <time>2021-08-15T07:18:07Z</time>
      </trkpt>
      <trkpt lat="50.58102" lon="3.18033">
        <ele>82.9</ele>
        <time>2021-08-15T07:18:13Z</time>
      </trkpt>
      <trkpt lat="50.5809" lon="3.18003">
        <ele>82.9</ele>
        <time>2021-08-15T07:18:18Z</time>
      </trkpt>
      <trkpt lat="50.58077" lon="3.17969">
        <ele>82.8</ele>
        <time>2021-08-15T07:18:24Z</time>
      </trkpt>
      <trkpt lat="50.58067" lon="3.17934">
        <ele>82.7</ele>
        <time>2021-08-15T07:18:30Z</time>
      </trkpt>
      <trkpt lat="50.58056" lon="3.17901">
        <ele>83</ele>
        <time>2021-08-15T07:18:36Z</time>
      </trkpt>
      <trkpt lat="50.58046" lon="3.17868">
        <ele>83.1</ele>
        <time>2021-08-15T07:18:42Z</time>
      </trkpt>
      <trkpt lat="50.58037" lon="3.17846">
        <ele>84.5</ele>
        <time>2021-08-15T07:18:47Z</time>
      </trkpt>
      <trkpt lat="50.58022" lon="3.17856">
        <ele>83.3</ele>
        <time>2021-08-15T07:18:52Z</time>
      </trkpt>
      <trkpt lat="50.58006" lon="3.17881">
        <ele>84.5</ele>
        <time>2021-08-15T07:18:58Z</time>
      </trkpt>
      <trkpt lat="50.57989" lon="3.17895">
        <ele>85.5</ele>
        <time>2021-08-15T07:19:03Z</time>
      </trkpt>
      <trkpt lat="50.57967" lon="3.17912">
        <ele>83</ele>
        <time>2021-08-15T07:19:09Z</time>
      </trkpt>
      <trkpt lat="50.57943" lon="3.17931">
        <ele>83.8</ele>
        <time>2021-08-15T07:19:15Z</time>
      </trkpt>
      <trkpt lat="50.57925" lon="3.17949">
        <ele>82.7</ele>
        <time>2021-08-15T07:19:20Z</time>
      </trkpt>
      <trkpt lat="50.57904" lon="3.17968">
        <ele>81.3</ele>
        <time>2021-08-15T07:19:25Z</time>
      </trkpt>
      <trkpt lat="50.57886" lon="3.17983">
        <ele>79.4</ele>
        <time>2021-08-15T07:19:31Z</time>
      </trkpt>
      <trkpt lat="50.57871" lon="3.17992">
        <ele>79.3</ele>
        <time>2021-08-15T07:19:37Z</time>
      </trkpt>
      <trkpt lat="50.57863" lon="3.18002">
        <ele>81.8</ele>
        <time>2021-08-15T07:19:42Z</time>
      </trkpt>
      <trkpt lat="50.57852" lon="3.18018">
        <ele>80.7</ele>
        <time>2021-08-15T07:19:48Z</time>
      </trkpt>
      <trkpt lat="50.57837" lon="3.18033">
        <ele>79.3</ele>
        <time>2021-08-15T07:19:54Z</time>
      </trkpt>
      <trkpt lat="50.57825" lon="3.18046">
        <ele>78</ele>
        <time>2021-08-15T07:19:59Z</time>
      </trkpt>
      <trkpt lat="50.57812" lon="3.18059">
        <ele>76.9</ele>
        <time>2021-08-15T07:20:05Z</time>
      </trkpt>
      <trkpt lat="50.57798" lon="3.1807">
        <ele>77.6</ele>
        <time>2021-08-15T07:20:10Z</time>
      </trkpt>
      <trkpt lat="50.5778" lon="3.18076">
        <ele>78.3</ele>
        <time>2021-08-15T07:20:15Z</time>
      </trkpt>
      <trkpt lat="50.57759" lon="3.18081">
        <ele>77.5</ele>
        <time>2021-08-15T07:20:20Z</time>
      </trkpt>
      <trkpt lat="50.57737" lon="3.18093">
        <ele>77.1</ele>
        <time>2021-08-15T07:20:26Z</time>
      </trkpt>
      <trkpt lat="50.5772" lon="3.18105">
        <ele>76.1</ele>
        <time>2021-08-15T07:20:31Z</time>
      </trkpt>
      <trkpt lat="50.57704" lon="3.18117">
        <ele>76.9</ele>
        <time>2021-08-15T07:20:36Z</time>
      </trkpt>
      <trkpt lat="50.57686" lon="3.18128">
        <ele>76.4</ele>
        <time>2021-08-15T07:20:42Z</time>
      </trkpt>
      <trkpt lat="50.57668" lon="3.18135">
        <ele>77.6</ele>
        <time>2021-08-15T07:20:47Z</time>
      </trkpt>
      <trkpt lat="50.5765" lon="3.18147">
        <ele>76.2</ele>
        <time>2021-08-15T07:20:53Z</time>
      </trkpt>
      <trkpt lat="50.57634" lon="3.18157">
        <ele>77.4</ele>
        <time>2021-08-15T07:20:58Z</time>
      </trkpt>
      <trkpt lat="50.57616" lon="3.18169">
        <ele>77.9</ele>
        <time>2021-08-15T07:21:04Z</time>
      </trkpt>
      <trkpt lat="50.57601" lon="3.18179">
        <ele>77.8</ele>
        <time>2021-08-15T07:21:09Z</time>
      </trkpt>
      <trkpt lat="50.57584" lon="3.1819">
        <ele>76.9</ele>
        <time>2021-08-15T07:21:15Z</time>
      </trkpt>
      <trkpt lat="50.57567" lon="3.18202">
        <ele>77.1</ele>
        <time>2021-08-15T07:21:20Z</time>
      </trkpt>
      <trkpt lat="50.57551" lon="3.18213">
        <ele>76.2</ele>
        <time>2021-08-15T07:21:25Z</time>
      </trkpt>
      <trkpt lat="50.57531" lon="3.18225">
        <ele>76</ele>
        <time>2021-08-15T07:21:31Z</time>
      </trkpt>
      <trkpt lat="50.57511" lon="3.18236">
        <ele>76.6</ele>
        <time>2021-08-15T07:21:37Z</time>
      </trkpt>
      <trkpt lat="50.57494" lon="3.18244">
        <ele>77.1</ele>
        <time>2021-08-15T07:21:43Z</time>
      </trkpt>
      <trkpt lat="50.57478" lon="3.18254">
        <ele>77.7</ele>
        <time>2021-08-15T07:21:48Z</time>
      </trkpt>
      <trkpt lat="50.57462" lon="3.18269">
        <ele>79.2</ele>
        <time>2021-08-15T07:21:54Z</time>
      </trkpt>
      <trkpt lat="50.57443" lon="3.18284">
        <ele>76.3</ele>
        <time>2021-08-15T07:22:00Z</time>
      </trkpt>
      <trkpt lat="50.57428" lon="3.18284">
        <ele>75.2</ele>
        <time>2021-08-15T07:22:05Z</time>
      </trkpt>
      <trkpt lat="50.57409" lon="3.18299">
        <ele>74.1</ele>
        <time>2021-08-15T07:22:11Z</time>
      </trkpt>
      <trkpt lat="50.57389" lon="3.18308">
        <ele>75.5</ele>
        <time>2021-08-15T07:22:17Z</time>
      </trkpt>
      <trkpt lat="50.57376" lon="3.18302">
        <ele>77.6</ele>
        <time>2021-08-15T07:22:22Z</time>
      </trkpt>
      <trkpt lat="50.57365" lon="3.18279">
        <ele>79.2</ele>
        <time>2021-08-15T07:22:28Z</time>
      </trkpt>
      <trkpt lat="50.57358" lon="3.18268">
        <ele>82.1</ele>
        <time>2021-08-15T07:22:33Z</time>
      </trkpt>
      <trkpt lat="50.57356" lon="3.18259">
        <ele>82.5</ele>
        <time>2021-08-15T07:22:38Z</time>
      </trkpt>
      <trkpt lat="50.5735" lon="3.1824">
        <ele>84.9</ele>
        <time>2021-08-15T07:22:44Z</time>
      </trkpt>
      <trkpt lat="50.57349" lon="3.18236">
        <ele>82.7</ele>
        <time>2021-08-15T07:22:50Z</time>
      </trkpt>
      <trkpt lat="50.57347" lon="3.18234">
        <ele>81.7</ele>
        <time>2021-08-15T07:22:55Z</time>
      </trkpt>
      <trkpt lat="50.57341" lon="3.18223">
        <ele>82</ele>
        <time>2021-08-15T07:23:00Z</time>
      </trkpt>
      <trkpt lat="50.57328" lon="3.18233">
        <ele>78.9</ele>
        <time>2021-08-15T07:23:06Z</time>
      </trkpt>
      <trkpt lat="50.57314" lon="3.1824">
        <ele>79.3</ele>
        <time>2021-08-15T07:23:14Z</time>
      </trkpt>
      <trkpt lat="50.57296" lon="3.18248">
        <ele>78.2</ele>
        <time>2021-08-15T07:23:19Z</time>
      </trkpt>
      <trkpt lat="50.57279" lon="3.18254">
        <ele>79.2</ele>
        <time>2021-08-15T07:23:25Z</time>
      </trkpt>
      <trkpt lat="50.57257" lon="3.18265">
        <ele>78.1</ele>
        <time>2021-08-15T07:23:31Z</time>
      </trkpt>
      <trkpt lat="50.57235" lon="3.18274">
        <ele>79.9</ele>
        <time>2021-08-15T07:23:37Z</time>
      </trkpt>
      <trkpt lat="50.57209" lon="3.18269">
        <ele>81</ele>
        <time>2021-08-15T07:23:43Z</time>
      </trkpt>
      <trkpt lat="50.5719" lon="3.18265">
        <ele>82.6</ele>
        <time>2021-08-15T07:23:49Z</time>
      </trkpt>
      <trkpt lat="50.5717" lon="3.18261">
        <ele>82.5</ele>
        <time>2021-08-15T07:23:54Z</time>
      </trkpt>
      <trkpt lat="50.5715" lon="3.1825">
        <ele>82.9</ele>
        <time>2021-08-15T07:24:00Z</time>
      </trkpt>
      <trkpt lat="50.57125" lon="3.18241">
        <ele>82.9</ele>
        <time>2021-08-15T07:24:06Z</time>
      </trkpt>
      <trkpt lat="50.57105" lon="3.18227">
        <ele>82.8</ele>
        <time>2021-08-15T07:24:11Z</time>
      </trkpt>
      <trkpt lat="50.57086" lon="3.18221">
        <ele>84.5</ele>
        <time>2021-08-15T07:24:17Z</time>
      </trkpt>
      <trkpt lat="50.57068" lon="3.18235">
        <ele>85.2</ele>
        <time>2021-08-15T07:24:22Z</time>
      </trkpt>
      <trkpt lat="50.57049" lon="3.1826">
        <ele>82.4</ele>
        <time>2021-08-15T07:24:28Z</time>
      </trkpt>
      <trkpt lat="50.57026" lon="3.18259">
        <ele>82.5</ele>
        <time>2021-08-15T07:24:34Z</time>
      </trkpt>
      <trkpt lat="50.57004" lon="3.18253">
        <ele>83.4</ele>
        <time>2021-08-15T07:24:40Z</time>
      </trkpt>
      <trkpt lat="50.56986" lon="3.18242">
        <ele>82.9</ele>
        <time>2021-08-15T07:24:45Z</time>
      </trkpt>
      <trkpt lat="50.56967" lon="3.1823">
        <ele>83.6</ele>
        <time>2021-08-15T07:24:50Z</time>
      </trkpt>
      <trkpt lat="50.56942" lon="3.18217">
        <ele>82.5</ele>
        <time>2021-08-15T07:24:56Z</time>
      </trkpt>
      <trkpt lat="50.56919" lon="3.18206">
        <ele>83.7</ele>
        <time>2021-08-15T07:25:02Z</time>
      </trkpt>
      <trkpt lat="50.56897" lon="3.18199">
        <ele>81.7</ele>
        <time>2021-08-15T07:25:08Z</time>
      </trkpt>
      <trkpt lat="50.56871" lon="3.18192">
        <ele>77.9</ele>
        <time>2021-08-15T07:25:14Z</time>
      </trkpt>
      <trkpt lat="50.5685" lon="3.18185">
        <ele>77.5</ele>
        <time>2021-08-15T07:25:19Z</time>
      </trkpt>
      <trkpt lat="50.56823" lon="3.18174">
        <ele>77.7</ele>
        <time>2021-08-15T07:25:25Z</time>
      </trkpt>
      <trkpt lat="50.56802" lon="3.18153">
        <ele>78.2</ele>
        <time>2021-08-15T07:25:31Z</time>
      </trkpt>
      <trkpt lat="50.56784" lon="3.18129">
        <ele>78.9</ele>
        <time>2021-08-15T07:25:37Z</time>
      </trkpt>
      <trkpt lat="50.56769" lon="3.18117">
        <ele>78.3</ele>
        <time>2021-08-15T07:25:42Z</time>
      </trkpt>
      <trkpt lat="50.56756" lon="3.18106">
        <ele>78.5</ele>
        <time>2021-08-15T07:25:47Z</time>
      </trkpt>
      <trkpt lat="50.56746" lon="3.18097">
        <ele>78.5</ele>
        <time>2021-08-15T07:25:52Z</time>
      </trkpt>
      <trkpt lat="50.56738" lon="3.18076">
        <ele>77.4</ele>
        <time>2021-08-15T07:25:58Z</time>
      </trkpt>
      <trkpt lat="50.56731" lon="3.18057">
        <ele>77.2</ele>
        <time>2021-08-15T07:26:03Z</time>
      </trkpt>
      <trkpt lat="50.56723" lon="3.18045">
        <ele>77.2</ele>
        <time>2021-08-15T07:26:08Z</time>
      </trkpt>
      <trkpt lat="50.56717" lon="3.18039">
        <ele>76.6</ele>
        <time>2021-08-15T07:26:14Z</time>
      </trkpt>
      <trkpt lat="50.56716" lon="3.18039">
        <ele>76.2</ele>
        <time>2021-08-15T07:26:19Z</time>
      </trkpt>
      <trkpt lat="50.56717" lon="3.1804">
        <ele>76.3</ele>
        <time>2021-08-15T07:26:24Z</time>
      </trkpt>
      <trkpt lat="50.56717" lon="3.1804">
        <ele>76.2</ele>
        <time>2021-08-15T07:26:30Z</time>
      </trkpt>
      <trkpt lat="50.56716" lon="3.18039">
        <ele>76.7</ele>
        <time>2021-08-15T07:26:35Z</time>
      </trkpt>
      <trkpt lat="50.56715" lon="3.18039">
        <ele>77.3</ele>
        <time>2021-08-15T07:26:41Z</time>
      </trkpt>
      <trkpt lat="50.56714" lon="3.1804">
        <ele>76.2</ele>
        <time>2021-08-15T07:26:46Z</time>
      </trkpt>
      <trkpt lat="50.56714" lon="3.18041">
        <ele>76</ele>
        <time>2021-08-15T07:26:52Z</time>
      </trkpt>
      <trkpt lat="50.56713" lon="3.1804">
        <ele>76.4</ele>
        <time>2021-08-15T07:26:58Z</time>
      </trkpt>
      <trkpt lat="50.56712" lon="3.18042">
        <ele>75.9</ele>
        <time>2021-08-15T07:27:04Z</time>
      </trkpt>
      <trkpt lat="50.56711" lon="3.18042">
        <ele>74.5</ele>
        <time>2021-08-15T07:27:09Z</time>
      </trkpt>
      <trkpt lat="50.56711" lon="3.1804">
        <ele>75.8</ele>
        <time>2021-08-15T07:27:15Z</time>
      </trkpt>
      <trkpt lat="50.56704" lon="3.18031">
        <ele>76.3</ele>
        <time>2021-08-15T07:27:21Z</time>
      </trkpt>
      <trkpt lat="50.5669" lon="3.18012">
        <ele>75.7</ele>
        <time>2021-08-15T07:27:27Z</time>
      </trkpt>
      <trkpt lat="50.56675" lon="3.17989">
        <ele>74</ele>
        <time>2021-08-15T07:27:33Z</time>
      </trkpt>
      <trkpt lat="50.56662" lon="3.17973">
        <ele>74.3</ele>
        <time>2021-08-15T07:27:38Z</time>
      </trkpt>
      <trkpt lat="50.56645" lon="3.17961">
        <ele>75.3</ele>
        <time>2021-08-15T07:27:43Z</time>
      </trkpt>
      <trkpt lat="50.5663" lon="3.17942">
        <ele>76.4</ele>
        <time>2021-08-15T07:27:49Z</time>
      </trkpt>
      <trkpt lat="50.56627" lon="3.17916">
        <ele>75.4</ele>
        <time>2021-08-15T07:27:54Z</time>
      </trkpt>
      <trkpt lat="50.56617" lon="3.1789">
        <ele>75.8</ele>
        <time>2021-08-15T07:27:59Z</time>
      </trkpt>
      <trkpt lat="50.566" lon="3.17874">
        <ele>75.3</ele>
        <time>2021-08-15T07:28:04Z</time>
      </trkpt>
      <trkpt lat="50.56581" lon="3.17849">
        <ele>75.4</ele>
        <time>2021-08-15T07:28:10Z</time>
      </trkpt>
      <trkpt lat="50.56567" lon="3.17834">
        <ele>76.1</ele>
        <time>2021-08-15T07:28:15Z</time>
      </trkpt>
      <trkpt lat="50.56551" lon="3.17815">
        <ele>77.6</ele>
        <time>2021-08-15T07:28:21Z</time>
      </trkpt>
      <trkpt lat="50.5653" lon="3.17795">
        <ele>78.1</ele>
        <time>2021-08-15T07:28:27Z</time>
      </trkpt>
      <trkpt lat="50.56512" lon="3.17776">
        <ele>77.8</ele>
        <time>2021-08-15T07:28:33Z</time>
      </trkpt>
      <trkpt lat="50.56494" lon="3.17756">
        <ele>79.8</ele>
        <time>2021-08-15T07:28:39Z</time>
      </trkpt>
      <trkpt lat="50.56479" lon="3.17744">
        <ele>81.9</ele>
        <time>2021-08-15T07:28:44Z</time>
      </trkpt>
      <trkpt lat="50.5646" lon="3.17724">
        <ele>80.2</ele>
        <time>2021-08-15T07:28:50Z</time>
      </trkpt>
      <trkpt lat="50.5645" lon="3.17693">
        <ele>78.5</ele>
        <time>2021-08-15T07:28:56Z</time>
      </trkpt>
      <trkpt lat="50.56429" lon="3.17701">
        <ele>77.5</ele>
        <time>2021-08-15T07:29:02Z</time>
      </trkpt>
      <trkpt lat="50.56411" lon="3.17705">
        <ele>76.1</ele>
        <time>2021-08-15T07:29:07Z</time>
      </trkpt>
      <trkpt lat="50.56396" lon="3.17676">
        <ele>76</ele>
        <time>2021-08-15T07:29:13Z</time>
      </trkpt>
      <trkpt lat="50.5638" lon="3.17652">
        <ele>77.3</ele>
        <time>2021-08-15T07:29:19Z</time>
      </trkpt>
      <trkpt lat="50.56365" lon="3.17626">
        <ele>74.6</ele>
        <time>2021-08-15T07:29:25Z</time>
      </trkpt>
      <trkpt lat="50.56345" lon="3.17602">
        <ele>75.1</ele>
        <time>2021-08-15T07:29:31Z</time>
      </trkpt>
      <trkpt lat="50.56332" lon="3.17582">
        <ele>75.4</ele>
        <time>2021-08-15T07:29:36Z</time>
      </trkpt>
      <trkpt lat="50.56314" lon="3.17559">
        <ele>76.5</ele>
        <time>2021-08-15T07:29:42Z</time>
      </trkpt>
      <trkpt lat="50.56297" lon="3.17536">
        <ele>76.8</ele>
        <time>2021-08-15T07:29:48Z</time>
      </trkpt>
      <trkpt lat="50.56284" lon="3.17513">
        <ele>76.4</ele>
        <time>2021-08-15T07:29:53Z</time>
      </trkpt>
      <trkpt lat="50.56274" lon="3.1749">
        <ele>79.9</ele>
        <time>2021-08-15T07:29:59Z</time>
      </trkpt>
      <trkpt lat="50.56255" lon="3.17461">
        <ele>78.9</ele>
        <time>2021-08-15T07:30:05Z</time>
      </trkpt>
      <trkpt lat="50.56237" lon="3.1743">
        <ele>77.8</ele>
        <time>2021-08-15T07:30:11Z</time>
      </trkpt>
      <trkpt lat="50.56226" lon="3.17403">
        <ele>76.6</ele>
        <time>2021-08-15T07:30:16Z</time>
      </trkpt>
      <trkpt lat="50.56212" lon="3.174">
        <ele>75.8</ele>
        <time>2021-08-15T07:30:22Z</time>
      </trkpt>
      <trkpt lat="50.56194" lon="3.17414">
        <ele>75.6</ele>
        <time>2021-08-15T07:30:27Z</time>
      </trkpt>
      <trkpt lat="50.56171" lon="3.17437">
        <ele>74.8</ele>
        <time>2021-08-15T07:30:33Z</time>
      </trkpt>
      <trkpt lat="50.56155" lon="3.17442">
        <ele>76.3</ele>
        <time>2021-08-15T07:30:38Z</time>
      </trkpt>
      <trkpt lat="50.56148" lon="3.17452">
        <ele>77</ele>
        <time>2021-08-15T07:30:43Z</time>
      </trkpt>
      <trkpt lat="50.56137" lon="3.1746">
        <ele>78.9</ele>
        <time>2021-08-15T07:30:49Z</time>
      </trkpt>
      <trkpt lat="50.56123" lon="3.17468">
        <ele>79.6</ele>
        <time>2021-08-15T07:30:54Z</time>
      </trkpt>
      <trkpt lat="50.56106" lon="3.17479">
        <ele>78.7</ele>
        <time>2021-08-15T07:31:00Z</time>
      </trkpt>
      <trkpt lat="50.56085" lon="3.17496">
        <ele>80.1</ele>
        <time>2021-08-15T07:31:06Z</time>
      </trkpt>
      <trkpt lat="50.5607" lon="3.17509">
        <ele>79.9</ele>
        <time>2021-08-15T07:31:11Z</time>
      </trkpt>
      <trkpt lat="50.5605" lon="3.17529">
        <ele>78.3</ele>
        <time>2021-08-15T07:31:17Z</time>
      </trkpt>
      <trkpt lat="50.56033" lon="3.17541">
        <ele>77.7</ele>
        <time>2021-08-15T07:31:22Z</time>
      </trkpt>
      <trkpt lat="50.56018" lon="3.17559">
        <ele>77.8</ele>
        <time>2021-08-15T07:31:27Z</time>
      </trkpt>
      <trkpt lat="50.56002" lon="3.1758">
        <ele>77.9</ele>
        <time>2021-08-15T07:31:33Z</time>
      </trkpt>
      <trkpt lat="50.55983" lon="3.17593">
        <ele>75.5</ele>
        <time>2021-08-15T07:31:39Z</time>
      </trkpt>
      <trkpt lat="50.55963" lon="3.17598">
        <ele>77.1</ele>
        <time>2021-08-15T07:31:44Z</time>
      </trkpt>
      <trkpt lat="50.55941" lon="3.17607">
        <ele>76.5</ele>
        <time>2021-08-15T07:31:50Z</time>
      </trkpt>
      <trkpt lat="50.5592" lon="3.17615">
        <ele>75</ele>
        <time>2021-08-15T07:31:56Z</time>
      </trkpt>
      <trkpt lat="50.55899" lon="3.17623">
        <ele>74.5</ele>
        <time>2021-08-15T07:32:02Z</time>
      </trkpt>
      <trkpt lat="50.55881" lon="3.17629">
        <ele>73.6</ele>
        <time>2021-08-15T07:32:07Z</time>
      </trkpt>
      <trkpt lat="50.55861" lon="3.17638">
        <ele>73.5</ele>
        <time>2021-08-15T07:32:13Z</time>
      </trkpt>
      <trkpt lat="50.55846" lon="3.17623">
        <ele>73.3</ele>
        <time>2021-08-15T07:32:18Z</time>
      </trkpt>
      <trkpt lat="50.5583" lon="3.17608">
        <ele>74</ele>
        <time>2021-08-15T07:32:23Z</time>
      </trkpt>
      <trkpt lat="50.5581" lon="3.1759">
        <ele>73.7</ele>
        <time>2021-08-15T07:32:29Z</time>
      </trkpt>
      <trkpt lat="50.5579" lon="3.17573">
        <ele>73.8</ele>
        <time>2021-08-15T07:32:35Z</time>
      </trkpt>
      <trkpt lat="50.55774" lon="3.17555">
        <ele>73</ele>
        <time>2021-08-15T07:32:40Z</time>
      </trkpt>
      <trkpt lat="50.55775" lon="3.1752">
        <ele>72.6</ele>
        <time>2021-08-15T07:32:46Z</time>
      </trkpt>
      <trkpt lat="50.55765" lon="3.17495">
        <ele>72.9</ele>
        <time>2021-08-15T07:32:52Z</time>
      </trkpt>
      <trkpt lat="50.55764" lon="3.1747">
        <ele>71.5</ele>
        <time>2021-08-15T07:32:58Z</time>
      </trkpt>
      <trkpt lat="50.55761" lon="3.17458">
        <ele>71.6</ele>
        <time>2021-08-15T07:33:03Z</time>
      </trkpt>
      <trkpt lat="50.55767" lon="3.17425">
        <ele>71</ele>
        <time>2021-08-15T07:33:08Z</time>
      </trkpt>
      <trkpt lat="50.55787" lon="3.17405">
        <ele>73.5</ele>
        <time>2021-08-15T07:33:14Z</time>
      </trkpt>
      <trkpt lat="50.55802" lon="3.17384">
        <ele>77</ele>
        <time>2021-08-15T07:33:20Z</time>
      </trkpt>
      <trkpt lat="50.55817" lon="3.17372">
        <ele>78</ele>
        <time>2021-08-15T07:33:25Z</time>
      </trkpt>
      <trkpt lat="50.55827" lon="3.17362">
        <ele>77.6</ele>
        <time>2021-08-15T07:33:31Z</time>
      </trkpt>
      <trkpt lat="50.5584" lon="3.17353">
        <ele>79.5</ele>
        <time>2021-08-15T07:33:36Z</time>
      </trkpt>
      <trkpt lat="50.55857" lon="3.17337">
        <ele>82.2</ele>
        <time>2021-08-15T07:33:42Z</time>
      </trkpt>
      <trkpt lat="50.55862" lon="3.1731">
        <ele>80.6</ele>
        <time>2021-08-15T07:33:48Z</time>
      </trkpt>
      <trkpt lat="50.55855" lon="3.17285">
        <ele>80.3</ele>
        <time>2021-08-15T07:33:53Z</time>
      </trkpt>
      <trkpt lat="50.55852" lon="3.17258">
        <ele>81.1</ele>
        <time>2021-08-15T07:33:58Z</time>
      </trkpt>
      <trkpt lat="50.55851" lon="3.17235">
        <ele>79.9</ele>
        <time>2021-08-15T07:34:03Z</time>
      </trkpt>
      <trkpt lat="50.5585" lon="3.17201">
        <ele>78.6</ele>
        <time>2021-08-15T07:34:09Z</time>
      </trkpt>
      <trkpt lat="50.55858" lon="3.17175">
        <ele>79.6</ele>
        <time>2021-08-15T07:34:14Z</time>
      </trkpt>
      <trkpt lat="50.55867" lon="3.17139">
        <ele>78.9</ele>
        <time>2021-08-15T07:34:20Z</time>
      </trkpt>
      <trkpt lat="50.55861" lon="3.17105">
        <ele>76.4</ele>
        <time>2021-08-15T07:34:26Z</time>
      </trkpt>
      <trkpt lat="50.55853" lon="3.17071">
        <ele>78</ele>
        <time>2021-08-15T07:34:32Z</time>
      </trkpt>
      <trkpt lat="50.55846" lon="3.1704">
        <ele>78</ele>
        <time>2021-08-15T07:34:37Z</time>
      </trkpt>
      <trkpt lat="50.55846" lon="3.17003">
        <ele>77.1</ele>
        <time>2021-08-15T07:34:43Z</time>
      </trkpt>
      <trkpt lat="50.55845" lon="3.16971">
        <ele>76</ele>
        <time>2021-08-15T07:34:48Z</time>
      </trkpt>
      <trkpt lat="50.55839" lon="3.1694">
        <ele>75.2</ele>
        <time>2021-08-15T07:34:53Z</time>
      </trkpt>
      <trkpt lat="50.55841" lon="3.16902">
        <ele>75.4</ele>
        <time>2021-08-15T07:34:59Z</time>
      </trkpt>
      <trkpt lat="50.55838" lon="3.16866">
        <ele>75.6</ele>
        <time>2021-08-15T07:35:05Z</time>
      </trkpt>
      <trkpt lat="50.55832" lon="3.16859">
        <ele>74.6</ele>
        <time>2021-08-15T07:35:10Z</time>
      </trkpt>
      <trkpt lat="50.55822" lon="3.16857">
        <ele>76.4</ele>
        <time>2021-08-15T07:35:16Z</time>
      </trkpt>
      <trkpt lat="50.55815" lon="3.16847">
        <ele>77.9</ele>
        <time>2021-08-15T07:35:22Z</time>
      </trkpt>
      <trkpt lat="50.55806" lon="3.16833">
        <ele>77.9</ele>
        <time>2021-08-15T07:35:28Z</time>
      </trkpt>
      <trkpt lat="50.55809" lon="3.16814">
        <ele>78.8</ele>
        <time>2021-08-15T07:35:33Z</time>
      </trkpt>
      <trkpt lat="50.55808" lon="3.16785">
        <ele>79.8</ele>
        <time>2021-08-15T07:35:39Z</time>
      </trkpt>
      <trkpt lat="50.55805" lon="3.16749">
        <ele>80</ele>
        <time>2021-08-15T07:35:45Z</time>
      </trkpt>
      <trkpt lat="50.55796" lon="3.16714">
        <ele>77.4</ele>
        <time>2021-08-15T07:35:51Z</time>
      </trkpt>
      <trkpt lat="50.55794" lon="3.16676">
        <ele>77.7</ele>
        <time>2021-08-15T07:35:57Z</time>
      </trkpt>
      <trkpt lat="50.55792" lon="3.16642">
        <ele>76.5</ele>
        <time>2021-08-15T07:36:03Z</time>
      </trkpt>
      <trkpt lat="50.55768" lon="3.16639">
        <ele>76.6</ele>
        <time>2021-08-15T07:36:09Z</time>
      </trkpt>
      <trkpt lat="50.55748" lon="3.16639">
        <ele>75.4</ele>
        <time>2021-08-15T07:36:15Z</time>
      </trkpt>
      <trkpt lat="50.55734" lon="3.16648">
        <ele>75.8</ele>
        <time>2021-08-15T07:36:20Z</time>
      </trkpt>
      <trkpt lat="50.55717" lon="3.16659">
        <ele>75.4</ele>
        <time>2021-08-15T07:36:25Z</time>
      </trkpt>
      <trkpt lat="50.55698" lon="3.16669">
        <ele>75.1</ele>
        <time>2021-08-15T07:36:31Z</time>
      </trkpt>
      <trkpt lat="50.55698" lon="3.16703">
        <ele>74.2</ele>
        <time>2021-08-15T07:36:36Z</time>
      </trkpt>
      <trkpt lat="50.55701" lon="3.16737">
        <ele>72.8</ele>
        <time>2021-08-15T07:36:42Z</time>
      </trkpt>
      <trkpt lat="50.55694" lon="3.16767">
        <ele>73.6</ele>
        <time>2021-08-15T07:36:48Z</time>
      </trkpt>
      <trkpt lat="50.55677" lon="3.16785">
        <ele>74.1</ele>
        <time>2021-08-15T07:36:53Z</time>
      </trkpt>
      <trkpt lat="50.55658" lon="3.1678">
        <ele>74.3</ele>
        <time>2021-08-15T07:36:58Z</time>
      </trkpt>
      <trkpt lat="50.5564" lon="3.1678">
        <ele>75.1</ele>
        <time>2021-08-15T07:37:04Z</time>
      </trkpt>
      <trkpt lat="50.55631" lon="3.16797">
        <ele>76.3</ele>
        <time>2021-08-15T07:37:10Z</time>
      </trkpt>
      <trkpt lat="50.55627" lon="3.16814">
        <ele>77.3</ele>
        <time>2021-08-15T07:37:15Z</time>
      </trkpt>
      <trkpt lat="50.55618" lon="3.16839">
        <ele>76.4</ele>
        <time>2021-08-15T07:37:20Z</time>
      </trkpt>
      <trkpt lat="50.55609" lon="3.16866">
        <ele>76.8</ele>
        <time>2021-08-15T07:37:25Z</time>
      </trkpt>
      <trkpt lat="50.55602" lon="3.16885">
        <ele>76.8</ele>
        <time>2021-08-15T07:37:31Z</time>
      </trkpt>
      <trkpt lat="50.55602" lon="3.16887">
        <ele>75.8</ele>
        <time>2021-08-15T07:37:37Z</time>
      </trkpt>
      <trkpt lat="50.55601" lon="3.16885">
        <ele>75.7</ele>
        <time>2021-08-15T07:37:43Z</time>
      </trkpt>
      <trkpt lat="50.55602" lon="3.16886">
        <ele>77.2</ele>
        <time>2021-08-15T07:37:48Z</time>
      </trkpt>
      <trkpt lat="50.55602" lon="3.16886">
        <ele>77.5</ele>
        <time>2021-08-15T07:37:53Z</time>
      </trkpt>
      <trkpt lat="50.55602" lon="3.16886">
        <ele>78.2</ele>
        <time>2021-08-15T07:37:58Z</time>
      </trkpt>
      <trkpt lat="50.55602" lon="3.16886">
        <ele>78.2</ele>
        <time>2021-08-15T07:38:04Z</time>
      </trkpt>
      <trkpt lat="50.55602" lon="3.16885">
        <ele>77.4</ele>
        <time>2021-08-15T07:38:10Z</time>
      </trkpt>
      <trkpt lat="50.55602" lon="3.16885">
        <ele>78.3</ele>
        <time>2021-08-15T07:38:15Z</time>
      </trkpt>
      <trkpt lat="50.55602" lon="3.16885">
        <ele>78.7</ele>
        <time>2021-08-15T07:38:21Z</time>
      </trkpt>
      <trkpt lat="50.55602" lon="3.16885">
        <ele>78.1</ele>
        <time>2021-08-15T07:38:26Z</time>
      </trkpt>
      <trkpt lat="50.55602" lon="3.16886">
        <ele>76.9</ele>
        <time>2021-08-15T07:38:32Z</time>
      </trkpt>
      <trkpt lat="50.55602" lon="3.16883">
        <ele>76.9</ele>
        <time>2021-08-15T07:38:37Z</time>
      </trkpt>
      <trkpt lat="50.55602" lon="3.1688">
        <ele>74.7</ele>
        <time>2021-08-15T07:38:43Z</time>
      </trkpt>
      <trkpt lat="50.55601" lon="3.16879">
        <ele>75.1</ele>
        <time>2021-08-15T07:38:48Z</time>
      </trkpt>
      <trkpt lat="50.55601" lon="3.16878">
        <ele>75.5</ele>
        <time>2021-08-15T07:38:54Z</time>
      </trkpt>
      <trkpt lat="50.55603" lon="3.16877">
        <ele>75.6</ele>
        <time>2021-08-15T07:38:59Z</time>
      </trkpt>
      <trkpt lat="50.55603" lon="3.16873">
        <ele>76.3</ele>
        <time>2021-08-15T07:39:05Z</time>
      </trkpt>
      <trkpt lat="50.55603" lon="3.16872">
        <ele>76.2</ele>
        <time>2021-08-15T07:39:10Z</time>
      </trkpt>
      <trkpt lat="50.55603" lon="3.16873">
        <ele>76.1</ele>
        <time>2021-08-15T07:39:15Z</time>
      </trkpt>
      <trkpt lat="50.55603" lon="3.16874">
        <ele>76.3</ele>
        <time>2021-08-15T07:39:21Z</time>
      </trkpt>
      <trkpt lat="50.55603" lon="3.16875">
        <ele>75</ele>
        <time>2021-08-15T07:39:27Z</time>
      </trkpt>
      <trkpt lat="50.55601" lon="3.16875">
        <ele>73.6</ele>
        <time>2021-08-15T07:39:32Z</time>
      </trkpt>
      <trkpt lat="50.55601" lon="3.16874">
        <ele>73.1</ele>
        <time>2021-08-15T07:39:37Z</time>
      </trkpt>
      <trkpt lat="50.55602" lon="3.16874">
        <ele>73.4</ele>
        <time>2021-08-15T07:39:42Z</time>
      </trkpt>
      <trkpt lat="50.55601" lon="3.16876">
        <ele>73.5</ele>
        <time>2021-08-15T07:39:48Z</time>
      </trkpt>
      <trkpt lat="50.55601" lon="3.16882">
        <ele>72.6</ele>
        <time>2021-08-15T07:39:54Z</time>
      </trkpt>
      <trkpt lat="50.55599" lon="3.16887">
        <ele>73</ele>
        <time>2021-08-15T07:39:59Z</time>
      </trkpt>
      <trkpt lat="50.556" lon="3.16891">
        <ele>73.3</ele>
        <time>2021-08-15T07:40:04Z</time>
      </trkpt>
      <trkpt lat="50.556" lon="3.16888">
        <ele>72.6</ele>
        <time>2021-08-15T07:40:10Z</time>
      </trkpt>
      <trkpt lat="50.55598" lon="3.16885">
        <ele>74</ele>
        <time>2021-08-15T07:40:16Z</time>
      </trkpt>
      <trkpt lat="50.55599" lon="3.1688">
        <ele>72.7</ele>
        <time>2021-08-15T07:40:21Z</time>
      </trkpt>
      <trkpt lat="50.55601" lon="3.16879">
        <ele>71.3</ele>
        <time>2021-08-15T07:40:26Z</time>
      </trkpt>
      <trkpt lat="50.55601" lon="3.16878">
        <ele>72.7</ele>
        <time>2021-08-15T07:40:32Z</time>
      </trkpt>
      <trkpt lat="50.556" lon="3.16877">
        <ele>72.5</ele>
        <time>2021-08-15T07:40:38Z</time>
      </trkpt>
      <trkpt lat="50.55599" lon="3.16879">
        <ele>72</ele>
        <time>2021-08-15T07:40:43Z</time>
      </trkpt>
      <trkpt lat="50.55599" lon="3.1688">
        <ele>72.1</ele>
        <time>2021-08-15T07:40:48Z</time>
      </trkpt>
      <trkpt lat="50.55599" lon="3.1688">
        <ele>72.1</ele>
        <time>2021-08-15T07:40:54Z</time>
      </trkpt>
      <trkpt lat="50.55598" lon="3.16881">
        <ele>72.6</ele>
        <time>2021-08-15T07:40:59Z</time>
      </trkpt>
      <trkpt lat="50.55599" lon="3.16882">
        <ele>72.8</ele>
        <time>2021-08-15T07:41:04Z</time>
      </trkpt>
      <trkpt lat="50.55601" lon="3.16885">
        <ele>72.8</ele>
        <time>2021-08-15T07:41:10Z</time>
      </trkpt>
      <trkpt lat="50.55604" lon="3.16892">
        <ele>74.3</ele>
        <time>2021-08-15T07:41:16Z</time>
      </trkpt>
      <trkpt lat="50.55609" lon="3.16898">
        <ele>79.1</ele>
        <time>2021-08-15T07:41:22Z</time>
      </trkpt>
      <trkpt lat="50.55614" lon="3.16905">
        <ele>82.5</ele>
        <time>2021-08-15T07:41:28Z</time>
      </trkpt>
      <trkpt lat="50.5562" lon="3.1691">
        <ele>83.9</ele>
        <time>2021-08-15T07:41:33Z</time>
      </trkpt>
      <trkpt lat="50.55625" lon="3.16914">
        <ele>85.9</ele>
        <time>2021-08-15T07:41:38Z</time>
      </trkpt>
      <trkpt lat="50.5563" lon="3.1692">
        <ele>88.1</ele>
        <time>2021-08-15T07:41:44Z</time>
      </trkpt>
      <trkpt lat="50.55634" lon="3.16929">
        <ele>89.4</ele>
        <time>2021-08-15T07:41:49Z</time>
      </trkpt>
      <trkpt lat="50.55634" lon="3.16944">
        <ele>88</ele>
        <time>2021-08-15T07:41:55Z</time>
      </trkpt>
      <trkpt lat="50.55632" lon="3.16954">
        <ele>92.1</ele>
        <time>2021-08-15T07:42:01Z</time>
      </trkpt>
      <trkpt lat="50.55628" lon="3.16966">
        <ele>92.5</ele>
        <time>2021-08-15T07:42:06Z</time>
      </trkpt>
      <trkpt lat="50.55622" lon="3.16979">
        <ele>93.7</ele>
        <time>2021-08-15T07:42:12Z</time>
      </trkpt>
      <trkpt lat="50.55611" lon="3.17">
        <ele>90.4</ele>
        <time>2021-08-15T07:42:17Z</time>
      </trkpt>
      <trkpt lat="50.55603" lon="3.17016">
        <ele>91.8</ele>
        <time>2021-08-15T07:42:22Z</time>
      </trkpt>
      <trkpt lat="50.55596" lon="3.17035">
        <ele>96.5</ele>
        <time>2021-08-15T07:42:28Z</time>
      </trkpt>
      <trkpt lat="50.556" lon="3.17061">
        <ele>92.2</ele>
        <time>2021-08-15T07:42:33Z</time>
      </trkpt>
      <trkpt lat="50.55613" lon="3.1706">
        <ele>86.5</ele>
        <time>2021-08-15T07:42:38Z</time>
      </trkpt>
      <trkpt lat="50.5563" lon="3.17049">
        <ele>80.7</ele>
        <time>2021-08-15T07:42:44Z</time>
      </trkpt>
      <trkpt lat="50.55644" lon="3.17053">
        <ele>79</ele>
        <time>2021-08-15T07:42:49Z</time>
      </trkpt>
      <trkpt lat="50.55653" lon="3.17047">
        <ele>78</ele>
        <time>2021-08-15T07:42:54Z</time>
      </trkpt>
      <trkpt lat="50.55669" lon="3.17034">
        <ele>76.1</ele>
        <time>2021-08-15T07:43:00Z</time>
      </trkpt>
      <trkpt lat="50.55681" lon="3.17032">
        <ele>77.8</ele>
        <time>2021-08-15T07:43:05Z</time>
      </trkpt>
      <trkpt lat="50.55694" lon="3.17042">
        <ele>77.7</ele>
        <time>2021-08-15T07:43:10Z</time>
      </trkpt>
      <trkpt lat="50.55714" lon="3.17045">
        <ele>77.7</ele>
        <time>2021-08-15T07:43:16Z</time>
      </trkpt>
      <trkpt lat="50.55734" lon="3.17044">
        <ele>76.5</ele>
        <time>2021-08-15T07:43:22Z</time>
      </trkpt>
      <trkpt lat="50.55746" lon="3.17067">
        <ele>77.8</ele>
        <time>2021-08-15T07:43:28Z</time>
      </trkpt>
      <trkpt lat="50.55748" lon="3.17091">
        <ele>76</ele>
        <time>2021-08-15T07:43:34Z</time>
      </trkpt>
      <trkpt lat="50.5576" lon="3.17097">
        <ele>77.8</ele>
        <time>2021-08-15T07:43:39Z</time>
      </trkpt>
      <trkpt lat="50.55768" lon="3.17109">
        <ele>79.3</ele>
        <time>2021-08-15T07:43:45Z</time>
      </trkpt>
      <trkpt lat="50.55767" lon="3.17137">
        <ele>78.9</ele>
        <time>2021-08-15T07:43:50Z</time>
      </trkpt>
      <trkpt lat="50.55766" lon="3.17157">
        <ele>80</ele>
        <time>2021-08-15T07:43:55Z</time>
      </trkpt>
      <trkpt lat="50.55766" lon="3.17194">
        <ele>77.4</ele>
        <time>2021-08-15T07:44:01Z</time>
      </trkpt>
      <trkpt lat="50.55769" lon="3.17235">
        <ele>76.6</ele>
        <time>2021-08-15T07:44:07Z</time>
      </trkpt>
      <trkpt lat="50.55769" lon="3.17272">
        <ele>75.1</ele>
        <time>2021-08-15T07:44:13Z</time>
      </trkpt>
      <trkpt lat="50.55769" lon="3.17306">
        <ele>74.6</ele>
        <time>2021-08-15T07:44:19Z</time>
      </trkpt>
      <trkpt lat="50.55768" lon="3.1734">
        <ele>75.6</ele>
        <time>2021-08-15T07:44:25Z</time>
      </trkpt>
      <trkpt lat="50.55766" lon="3.17365">
        <ele>75.7</ele>
        <time>2021-08-15T07:44:30Z</time>
      </trkpt>
      <trkpt lat="50.55764" lon="3.17397">
        <ele>74.3</ele>
        <time>2021-08-15T07:44:36Z</time>
      </trkpt>
      <trkpt lat="50.55765" lon="3.17407">
        <ele>75</ele>
        <time>2021-08-15T07:44:41Z</time>
      </trkpt>
      <trkpt lat="50.55765" lon="3.17427">
        <ele>78</ele>
        <time>2021-08-15T07:44:47Z</time>
      </trkpt>
      <trkpt lat="50.55762" lon="3.17439">
        <ele>77.6</ele>
        <time>2021-08-15T07:44:52Z</time>
      </trkpt>
      <trkpt lat="50.55761" lon="3.17447">
        <ele>77.9</ele>
        <time>2021-08-15T07:44:57Z</time>
      </trkpt>
      <trkpt lat="50.55765" lon="3.17482">
        <ele>76.1</ele>
        <time>2021-08-15T07:45:02Z</time>
      </trkpt>
      <trkpt lat="50.55768" lon="3.17509">
        <ele>75.1</ele>
        <time>2021-08-15T07:45:08Z</time>
      </trkpt>
      <trkpt lat="50.55771" lon="3.17548">
        <ele>73.9</ele>
        <time>2021-08-15T07:45:14Z</time>
      </trkpt>
      <trkpt lat="50.55788" lon="3.17566">
        <ele>75.3</ele>
        <time>2021-08-15T07:45:19Z</time>
      </trkpt>
      <trkpt lat="50.55808" lon="3.17593">
        <ele>75.6</ele>
        <time>2021-08-15T07:45:25Z</time>
      </trkpt>
      <trkpt lat="50.55827" lon="3.17608">
        <ele>75.4</ele>
        <time>2021-08-15T07:45:30Z</time>
      </trkpt>
      <trkpt lat="50.55849" lon="3.17624">
        <ele>74.8</ele>
        <time>2021-08-15T07:45:36Z</time>
      </trkpt>
      <trkpt lat="50.55867" lon="3.17636">
        <ele>74.2</ele>
        <time>2021-08-15T07:45:42Z</time>
      </trkpt>
      <trkpt lat="50.55885" lon="3.1763">
        <ele>76.9</ele>
        <time>2021-08-15T07:45:47Z</time>
      </trkpt>
      <trkpt lat="50.55903" lon="3.1762">
        <ele>74.9</ele>
        <time>2021-08-15T07:45:52Z</time>
      </trkpt>
      <trkpt lat="50.55922" lon="3.17613">
        <ele>73.7</ele>
        <time>2021-08-15T07:45:57Z</time>
      </trkpt>
      <trkpt lat="50.55943" lon="3.17603">
        <ele>73.2</ele>
        <time>2021-08-15T07:46:02Z</time>
      </trkpt>
      <trkpt lat="50.55963" lon="3.17595">
        <ele>73.7</ele>
        <time>2021-08-15T07:46:08Z</time>
      </trkpt>
      <trkpt lat="50.55985" lon="3.17586">
        <ele>75.3</ele>
        <time>2021-08-15T07:46:14Z</time>
      </trkpt>
      <trkpt lat="50.56006" lon="3.17573">
        <ele>75.6</ele>
        <time>2021-08-15T07:46:20Z</time>
      </trkpt>
      <trkpt lat="50.56024" lon="3.17551">
        <ele>74.7</ele>
        <time>2021-08-15T07:46:26Z</time>
      </trkpt>
      <trkpt lat="50.56043" lon="3.17536">
        <ele>75</ele>
        <time>2021-08-15T07:46:31Z</time>
      </trkpt>
      <trkpt lat="50.56064" lon="3.17518">
        <ele>75.3</ele>
        <time>2021-08-15T07:46:37Z</time>
      </trkpt>
      <trkpt lat="50.56083" lon="3.17504">
        <ele>76.4</ele>
        <time>2021-08-15T07:46:42Z</time>
      </trkpt>
      <trkpt lat="50.56102" lon="3.17487">
        <ele>75.2</ele>
        <time>2021-08-15T07:46:48Z</time>
      </trkpt>
      <trkpt lat="50.56117" lon="3.17474">
        <ele>74.5</ele>
        <time>2021-08-15T07:46:53Z</time>
      </trkpt>
      <trkpt lat="50.56131" lon="3.17462">
        <ele>73.2</ele>
        <time>2021-08-15T07:46:58Z</time>
      </trkpt>
      <trkpt lat="50.56143" lon="3.17452">
        <ele>75.7</ele>
        <time>2021-08-15T07:47:04Z</time>
      </trkpt>
      <trkpt lat="50.56148" lon="3.17442">
        <ele>76.5</ele>
        <time>2021-08-15T07:47:10Z</time>
      </trkpt>
      <trkpt lat="50.56156" lon="3.17437">
        <ele>81.6</ele>
        <time>2021-08-15T07:47:15Z</time>
      </trkpt>
      <trkpt lat="50.56168" lon="3.17422">
        <ele>80.3</ele>
        <time>2021-08-15T07:47:20Z</time>
      </trkpt>
      <trkpt lat="50.56186" lon="3.17409">
        <ele>81.1</ele>
        <time>2021-08-15T07:47:26Z</time>
      </trkpt>
      <trkpt lat="50.56204" lon="3.17403">
        <ele>83.4</ele>
        <time>2021-08-15T07:47:32Z</time>
      </trkpt>
      <trkpt lat="50.56215" lon="3.17397">
        <ele>83.4</ele>
        <time>2021-08-15T07:47:37Z</time>
      </trkpt>
      <trkpt lat="50.56224" lon="3.17413">
        <ele>81.1</ele>
        <time>2021-08-15T07:47:42Z</time>
      </trkpt>
      <trkpt lat="50.56239" lon="3.17438">
        <ele>79.9</ele>
        <time>2021-08-15T07:47:48Z</time>
      </trkpt>
      <trkpt lat="50.56253" lon="3.17459">
        <ele>80</ele>
        <time>2021-08-15T07:47:53Z</time>
      </trkpt>
      <trkpt lat="50.56266" lon="3.17486">
        <ele>77.8</ele>
        <time>2021-08-15T07:47:59Z</time>
      </trkpt>
      <trkpt lat="50.56276" lon="3.17511">
        <ele>78.2</ele>
        <time>2021-08-15T07:48:05Z</time>
      </trkpt>
      <trkpt lat="50.56286" lon="3.17526">
        <ele>80.4</ele>
        <time>2021-08-15T07:48:10Z</time>
      </trkpt>
      <trkpt lat="50.56299" lon="3.17539">
        <ele>80.1</ele>
        <time>2021-08-15T07:48:15Z</time>
      </trkpt>
      <trkpt lat="50.56314" lon="3.1756">
        <ele>83.6</ele>
        <time>2021-08-15T07:48:21Z</time>
      </trkpt>
      <trkpt lat="50.56326" lon="3.17582">
        <ele>83.2</ele>
        <time>2021-08-15T07:48:26Z</time>
      </trkpt>
      <trkpt lat="50.5634" lon="3.17602">
        <ele>80.7</ele>
        <time>2021-08-15T07:48:31Z</time>
      </trkpt>
      <trkpt lat="50.56355" lon="3.17617">
        <ele>81.4</ele>
        <time>2021-08-15T07:48:37Z</time>
      </trkpt>
      <trkpt lat="50.56372" lon="3.1764">
        <ele>78.2</ele>
        <time>2021-08-15T07:48:42Z</time>
      </trkpt>
      <trkpt lat="50.56386" lon="3.17668">
        <ele>83.1</ele>
        <time>2021-08-15T07:48:48Z</time>
      </trkpt>
      <trkpt lat="50.56406" lon="3.17688">
        <ele>82.2</ele>
        <time>2021-08-15T07:48:54Z</time>
      </trkpt>
      <trkpt lat="50.56424" lon="3.17682">
        <ele>80.4</ele>
        <time>2021-08-15T07:48:59Z</time>
      </trkpt>
      <trkpt lat="50.56439" lon="3.17696">
        <ele>78.6</ele>
        <time>2021-08-15T07:49:05Z</time>
      </trkpt>
      <trkpt lat="50.56459" lon="3.17722">
        <ele>74.7</ele>
        <time>2021-08-15T07:49:11Z</time>
      </trkpt>
      <trkpt lat="50.56479" lon="3.17745">
        <ele>76.6</ele>
        <time>2021-08-15T07:49:17Z</time>
      </trkpt>
      <trkpt lat="50.56495" lon="3.17763">
        <ele>77.1</ele>
        <time>2021-08-15T07:49:22Z</time>
      </trkpt>
      <trkpt lat="50.56509" lon="3.17779">
        <ele>78.3</ele>
        <time>2021-08-15T07:49:27Z</time>
      </trkpt>
      <trkpt lat="50.56525" lon="3.17798">
        <ele>82.8</ele>
        <time>2021-08-15T07:49:32Z</time>
      </trkpt>
      <trkpt lat="50.56543" lon="3.17813">
        <ele>85.2</ele>
        <time>2021-08-15T07:49:38Z</time>
      </trkpt>
      <trkpt lat="50.56557" lon="3.17828">
        <ele>88.4</ele>
        <time>2021-08-15T07:49:43Z</time>
      </trkpt>
      <trkpt lat="50.56573" lon="3.17842">
        <ele>76.9</ele>
        <time>2021-08-15T07:49:48Z</time>
      </trkpt>
      <trkpt lat="50.56595" lon="3.1787">
        <ele>74.5</ele>
        <time>2021-08-15T07:49:54Z</time>
      </trkpt>
      <trkpt lat="50.56615" lon="3.17892">
        <ele>75.8</ele>
        <time>2021-08-15T07:49:59Z</time>
      </trkpt>
      <trkpt lat="50.56624" lon="3.17928">
        <ele>76</ele>
        <time>2021-08-15T07:50:05Z</time>
      </trkpt>
      <trkpt lat="50.56639" lon="3.17948">
        <ele>74.4</ele>
        <time>2021-08-15T07:50:11Z</time>
      </trkpt>
      <trkpt lat="50.56653" lon="3.17965">
        <ele>74.9</ele>
        <time>2021-08-15T07:50:16Z</time>
      </trkpt>
      <trkpt lat="50.56671" lon="3.17986">
        <ele>78</ele>
        <time>2021-08-15T07:50:21Z</time>
      </trkpt>
      <trkpt lat="50.56684" lon="3.18005">
        <ele>77.3</ele>
        <time>2021-08-15T07:50:27Z</time>
      </trkpt>
      <trkpt lat="50.56696" lon="3.18023">
        <ele>78.6</ele>
        <time>2021-08-15T07:50:32Z</time>
      </trkpt>
      <trkpt lat="50.56711" lon="3.1804">
        <ele>81.4</ele>
        <time>2021-08-15T07:50:38Z</time>
      </trkpt>
      <trkpt lat="50.56724" lon="3.18053">
        <ele>80.3</ele>
        <time>2021-08-15T07:50:43Z</time>
      </trkpt>
      <trkpt lat="50.56737" lon="3.18073">
        <ele>78.8</ele>
        <time>2021-08-15T07:50:49Z</time>
      </trkpt>
      <trkpt lat="50.56749" lon="3.18097">
        <ele>78.4</ele>
        <time>2021-08-15T07:50:55Z</time>
      </trkpt>
      <trkpt lat="50.56763" lon="3.1811">
        <ele>78.6</ele>
        <time>2021-08-15T07:51:00Z</time>
      </trkpt>
      <trkpt lat="50.56782" lon="3.18124">
        <ele>77.9</ele>
        <time>2021-08-15T07:51:05Z</time>
      </trkpt>
      <trkpt lat="50.56799" lon="3.18144">
        <ele>79.1</ele>
        <time>2021-08-15T07:51:11Z</time>
      </trkpt>
      <trkpt lat="50.56816" lon="3.1816">
        <ele>77.5</ele>
        <time>2021-08-15T07:51:17Z</time>
      </trkpt>
      <trkpt lat="50.56836" lon="3.18169">
        <ele>75.3</ele>
        <time>2021-08-15T07:51:23Z</time>
      </trkpt>
      <trkpt lat="50.56852" lon="3.18176">
        <ele>75.6</ele>
        <time>2021-08-15T07:51:28Z</time>
      </trkpt>
      <trkpt lat="50.56874" lon="3.18188">
        <ele>75.1</ele>
        <time>2021-08-15T07:51:34Z</time>
      </trkpt>
      <trkpt lat="50.56893" lon="3.18197">
        <ele>79</ele>
        <time>2021-08-15T07:51:39Z</time>
      </trkpt>
      <trkpt lat="50.56907" lon="3.18201">
        <ele>82.7</ele>
        <time>2021-08-15T07:51:45Z</time>
      </trkpt>
      <trkpt lat="50.56918" lon="3.1821">
        <ele>79.9</ele>
        <time>2021-08-15T07:51:50Z</time>
      </trkpt>
      <trkpt lat="50.5693" lon="3.18214">
        <ele>80.5</ele>
        <time>2021-08-15T07:51:55Z</time>
      </trkpt>
      <trkpt lat="50.56944" lon="3.18218">
        <ele>80.5</ele>
        <time>2021-08-15T07:52:01Z</time>
      </trkpt>
      <trkpt lat="50.56952" lon="3.18228">
        <ele>79.3</ele>
        <time>2021-08-15T07:52:06Z</time>
      </trkpt>
      <trkpt lat="50.56955" lon="3.1823">
        <ele>78.9</ele>
        <time>2021-08-15T07:52:11Z</time>
      </trkpt>
      <trkpt lat="50.56955" lon="3.18229">
        <ele>78.2</ele>
        <time>2021-08-15T07:52:16Z</time>
      </trkpt>
      <trkpt lat="50.56957" lon="3.18231">
        <ele>78.7</ele>
        <time>2021-08-15T07:52:22Z</time>
      </trkpt>
      <trkpt lat="50.56962" lon="3.18226">
        <ele>80.2</ele>
        <time>2021-08-15T07:52:27Z</time>
      </trkpt>
      <trkpt lat="50.56974" lon="3.18223">
        <ele>78</ele>
        <time>2021-08-15T07:52:33Z</time>
      </trkpt>
      <trkpt lat="50.5699" lon="3.18227">
        <ele>78</ele>
        <time>2021-08-15T07:52:38Z</time>
      </trkpt>
      <trkpt lat="50.5701" lon="3.18246">
        <ele>78.3</ele>
        <time>2021-08-15T07:52:43Z</time>
      </trkpt>
      <trkpt lat="50.57031" lon="3.1826">
        <ele>78.6</ele>
        <time>2021-08-15T07:52:49Z</time>
      </trkpt>
      <trkpt lat="50.5705" lon="3.18257">
        <ele>78.9</ele>
        <time>2021-08-15T07:52:54Z</time>
      </trkpt>
      <trkpt lat="50.57069" lon="3.18234">
        <ele>78.2</ele>
        <time>2021-08-15T07:53:00Z</time>
      </trkpt>
      <trkpt lat="50.57087" lon="3.18225">
        <ele>77.9</ele>
        <time>2021-08-15T07:53:05Z</time>
      </trkpt>
      <trkpt lat="50.57105" lon="3.18233">
        <ele>80</ele>
        <time>2021-08-15T07:53:10Z</time>
      </trkpt>
      <trkpt lat="50.57119" lon="3.18247">
        <ele>77.8</ele>
        <time>2021-08-15T07:53:16Z</time>
      </trkpt>
      <trkpt lat="50.57134" lon="3.18253">
        <ele>78.2</ele>
        <time>2021-08-15T07:53:21Z</time>
      </trkpt>
      <trkpt lat="50.5715" lon="3.18262">
        <ele>75.6</ele>
        <time>2021-08-15T07:53:26Z</time>
      </trkpt>
      <trkpt lat="50.57175" lon="3.18267">
        <ele>75.7</ele>
        <time>2021-08-15T07:53:32Z</time>
      </trkpt>
      <trkpt lat="50.57195" lon="3.18266">
        <ele>77.5</ele>
        <time>2021-08-15T07:53:37Z</time>
      </trkpt>
      <trkpt lat="50.57213" lon="3.18267">
        <ele>76.9</ele>
        <time>2021-08-15T07:53:42Z</time>
      </trkpt>
      <trkpt lat="50.57229" lon="3.18269">
        <ele>79.9</ele>
        <time>2021-08-15T07:53:47Z</time>
      </trkpt>
      <trkpt lat="50.57245" lon="3.18268">
        <ele>83.3</ele>
        <time>2021-08-15T07:53:52Z</time>
      </trkpt>
      <trkpt lat="50.57266" lon="3.18259">
        <ele>85.6</ele>
        <time>2021-08-15T07:53:58Z</time>
      </trkpt>
      <trkpt lat="50.57284" lon="3.18246">
        <ele>85.2</ele>
        <time>2021-08-15T07:54:03Z</time>
      </trkpt>
      <trkpt lat="50.57308" lon="3.18227">
        <ele>83.6</ele>
        <time>2021-08-15T07:54:09Z</time>
      </trkpt>
      <trkpt lat="50.5733" lon="3.18208">
        <ele>84.2</ele>
        <time>2021-08-15T07:54:15Z</time>
      </trkpt>
      <trkpt lat="50.57346" lon="3.18189">
        <ele>83.4</ele>
        <time>2021-08-15T07:54:20Z</time>
      </trkpt>
      <trkpt lat="50.57362" lon="3.18164">
        <ele>81.1</ele>
        <time>2021-08-15T07:54:25Z</time>
      </trkpt>
      <trkpt lat="50.5738" lon="3.18141">
        <ele>81.2</ele>
        <time>2021-08-15T07:54:30Z</time>
      </trkpt>
      <trkpt lat="50.57409" lon="3.18135">
        <ele>81.3</ele>
        <time>2021-08-15T07:54:36Z</time>
      </trkpt>
      <trkpt lat="50.57426" lon="3.18128">
        <ele>82.2</ele>
        <time>2021-08-15T07:54:41Z</time>
      </trkpt>
      <trkpt lat="50.5744" lon="3.18143">
        <ele>79.9</ele>
        <time>2021-08-15T07:54:47Z</time>
      </trkpt>
      <trkpt lat="50.57431" lon="3.18158">
        <ele>81</ele>
        <time>2021-08-15T07:54:53Z</time>
      </trkpt>
      <trkpt lat="50.57404" lon="3.18164">
        <ele>82.2</ele>
        <time>2021-08-15T07:54:59Z</time>
      </trkpt>
      <trkpt lat="50.57394" lon="3.18168">
        <ele>81.2</ele>
        <time>2021-08-15T07:55:05Z</time>
      </trkpt>
      <trkpt lat="50.57394" lon="3.18167">
        <ele>82.1</ele>
        <time>2021-08-15T07:55:12Z</time>
      </trkpt>
      <trkpt lat="50.57394" lon="3.18166">
        <ele>81.5</ele>
        <time>2021-08-15T07:55:17Z</time>
      </trkpt>
      <trkpt lat="50.57394" lon="3.18166">
        <ele>81.3</ele>
        <time>2021-08-15T07:55:23Z</time>
      </trkpt>
      <trkpt lat="50.57394" lon="3.18164">
        <ele>81.1</ele>
        <time>2021-08-15T07:55:29Z</time>
      </trkpt>
      <trkpt lat="50.57394" lon="3.18164">
        <ele>81.1</ele>
        <time>2021-08-15T07:55:34Z</time>
      </trkpt>
      <trkpt lat="50.57394" lon="3.18164">
        <ele>81.3</ele>
        <time>2021-08-15T07:55:40Z</time>
      </trkpt>
      <trkpt lat="50.57394" lon="3.18164">
        <ele>81.2</ele>
        <time>2021-08-15T07:55:46Z</time>
      </trkpt>
      <trkpt lat="50.57394" lon="3.18164">
        <ele>81.2</ele>
        <time>2021-08-15T07:55:52Z</time>
      </trkpt>
      <trkpt lat="50.57394" lon="3.18164">
        <ele>81.2</ele>
        <time>2021-08-15T07:55:58Z</time>
      </trkpt>
      <trkpt lat="50.57394" lon="3.18164">
        <ele>81.5</ele>
        <time>2021-08-15T07:56:04Z</time>
      </trkpt>
      <trkpt lat="50.57394" lon="3.18164">
        <ele>81.2</ele>
        <time>2021-08-15T07:56:09Z</time>
      </trkpt>
      <trkpt lat="50.57394" lon="3.18164">
        <ele>81.9</ele>
        <time>2021-08-15T07:56:15Z</time>
      </trkpt>
      <trkpt lat="50.57394" lon="3.18164">
        <ele>81.5</ele>
        <time>2021-08-15T07:56:20Z</time>
      </trkpt>
      <trkpt lat="50.57394" lon="3.18164">
        <ele>80.7</ele>
        <time>2021-08-15T07:56:25Z</time>
      </trkpt>
      <trkpt lat="50.57394" lon="3.18164">
        <ele>81.2</ele>
        <time>2021-08-15T07:56:30Z</time>
      </trkpt>
      <trkpt lat="50.57394" lon="3.18164">
        <ele>81.2</ele>
        <time>2021-08-15T07:56:36Z</time>
      </trkpt>
      <trkpt lat="50.57394" lon="3.18164">
        <ele>81.4</ele>
        <time>2021-08-15T07:56:41Z</time>
      </trkpt>
      <trkpt lat="50.57394" lon="3.18164">
        <ele>80.7</ele>
        <time>2021-08-15T07:56:46Z</time>
      </trkpt>
      <trkpt lat="50.57394" lon="3.18164">
        <ele>81.2</ele>
        <time>2021-08-15T07:56:52Z</time>
      </trkpt>
      <trkpt lat="50.57394" lon="3.18164">
        <ele>80.9</ele>
        <time>2021-08-15T07:56:58Z</time>
      </trkpt>
      <trkpt lat="50.57394" lon="3.18164">
        <ele>81.5</ele>
        <time>2021-08-15T07:57:04Z</time>
      </trkpt>
      <trkpt lat="50.57394" lon="3.18164">
        <ele>80.9</ele>
        <time>2021-08-15T07:57:10Z</time>
      </trkpt>
      <trkpt lat="50.57394" lon="3.18164">
        <ele>81.5</ele>
        <time>2021-08-15T07:57:15Z</time>
      </trkpt>
      <trkpt lat="50.57394" lon="3.18164">
        <ele>81</ele>
        <time>2021-08-15T07:57:21Z</time>
      </trkpt>
      <trkpt lat="50.57394" lon="3.18164">
        <ele>81.6</ele>
        <time>2021-08-15T07:57:27Z</time>
      </trkpt>
      <trkpt lat="50.57394" lon="3.18164">
        <ele>80.8</ele>
        <time>2021-08-15T07:57:33Z</time>
      </trkpt>
      <trkpt lat="50.57394" lon="3.18164">
        <ele>82</ele>
        <time>2021-08-15T07:57:38Z</time>
      </trkpt>
      <trkpt lat="50.57394" lon="3.18164">
        <ele>81.3</ele>
        <time>2021-08-15T07:57:44Z</time>
      </trkpt>
      <trkpt lat="50.57394" lon="3.18164">
        <ele>81.6</ele>
        <time>2021-08-15T07:57:50Z</time>
      </trkpt>
      <trkpt lat="50.57394" lon="3.18164">
        <ele>81.2</ele>
        <time>2021-08-15T07:57:55Z</time>
      </trkpt>
      <trkpt lat="50.57394" lon="3.18164">
        <ele>81.3</ele>
        <time>2021-08-15T07:58:00Z</time>
      </trkpt>
      <trkpt lat="50.57394" lon="3.18164">
        <ele>81.2</ele>
        <time>2021-08-15T07:58:06Z</time>
      </trkpt>
      <trkpt lat="50.57394" lon="3.18164">
        <ele>81.2</ele>
        <time>2021-08-15T07:58:12Z</time>
      </trkpt>
      <trkpt lat="50.57394" lon="3.18164">
        <ele>80.9</ele>
        <time>2021-08-15T07:58:17Z</time>
      </trkpt>
      <trkpt lat="50.57394" lon="3.18164">
        <ele>81.6</ele>
        <time>2021-08-15T07:58:22Z</time>
      </trkpt>
      <trkpt lat="50.57394" lon="3.18164">
        <ele>81.5</ele>
        <time>2021-08-15T07:58:28Z</time>
      </trkpt>
      <trkpt lat="50.57394" lon="3.18164">
        <ele>81.7</ele>
        <time>2021-08-15T07:58:33Z</time>
      </trkpt>
      <trkpt lat="50.57394" lon="3.18164">
        <ele>81.3</ele>
        <time>2021-08-15T07:58:38Z</time>
      </trkpt>
      <trkpt lat="50.57394" lon="3.18164">
        <ele>80.5</ele>
        <time>2021-08-15T07:58:43Z</time>
      </trkpt>
      <trkpt lat="50.57394" lon="3.18164">
        <ele>81.7</ele>
        <time>2021-08-15T07:58:49Z</time>
      </trkpt>
      <trkpt lat="50.57394" lon="3.18164">
        <ele>81.2</ele>
        <time>2021-08-15T07:58:54Z</time>
      </trkpt>
      <trkpt lat="50.57394" lon="3.18164">
        <ele>80.9</ele>
        <time>2021-08-15T07:59:00Z</time>
      </trkpt>
      <trkpt lat="50.57394" lon="3.18164">
        <ele>81.8</ele>
        <time>2021-08-15T07:59:06Z</time>
      </trkpt>
      <trkpt lat="50.57394" lon="3.18164">
        <ele>81</ele>
        <time>2021-08-15T07:59:11Z</time>
      </trkpt>
      <trkpt lat="50.57394" lon="3.18164">
        <ele>81.3</ele>
        <time>2021-08-15T07:59:17Z</time>
      </trkpt>
      <trkpt lat="50.57394" lon="3.18164">
        <ele>80.7</ele>
        <time>2021-08-15T07:59:23Z</time>
      </trkpt>
      <trkpt lat="50.57394" lon="3.18164">
        <ele>81.6</ele>
        <time>2021-08-15T07:59:29Z</time>
      </trkpt>
      <trkpt lat="50.57394" lon="3.18164">
        <ele>81.6</ele>
        <time>2021-08-15T07:59:34Z</time>
      </trkpt>
      <trkpt lat="50.57394" lon="3.18164">
        <ele>81.7</ele>
        <time>2021-08-15T07:59:40Z</time>
      </trkpt>
      <trkpt lat="50.57394" lon="3.18164">
        <ele>81.1</ele>
        <time>2021-08-15T07:59:45Z</time>
      </trkpt>
      <trkpt lat="50.57394" lon="3.18164">
        <ele>81.7</ele>
        <time>2021-08-15T07:59:51Z</time>
      </trkpt>
      <trkpt lat="50.57394" lon="3.18164">
        <ele>81</ele>
        <time>2021-08-15T07:59:57Z</time>
      </trkpt>
      <trkpt lat="50.57394" lon="3.18164">
        <ele>81.3</ele>
        <time>2021-08-15T08:00:03Z</time>
      </trkpt>
      <trkpt lat="50.57394" lon="3.18164">
        <ele>81.1</ele>
        <time>2021-08-15T08:00:08Z</time>
      </trkpt>
      <trkpt lat="50.57394" lon="3.18164">
        <ele>81</ele>
        <time>2021-08-15T08:00:14Z</time>
      </trkpt>
      <trkpt lat="50.57394" lon="3.18163">
        <ele>81.5</ele>
        <time>2021-08-15T08:00:19Z</time>
      </trkpt>
      <trkpt lat="50.57394" lon="3.18163">
        <ele>81.3</ele>
        <time>2021-08-15T08:00:24Z</time>
      </trkpt>
      <trkpt lat="50.57394" lon="3.18163">
        <ele>80.6</ele>
        <time>2021-08-15T08:00:30Z</time>
      </trkpt>
      <trkpt lat="50.57394" lon="3.18163">
        <ele>81</ele>
        <time>2021-08-15T08:00:35Z</time>
      </trkpt>
      <trkpt lat="50.57394" lon="3.18163">
        <ele>81.6</ele>
        <time>2021-08-15T08:00:41Z</time>
      </trkpt>
      <trkpt lat="50.57394" lon="3.18163">
        <ele>81.3</ele>
        <time>2021-08-15T08:00:47Z</time>
      </trkpt>
      <trkpt lat="50.57394" lon="3.18163">
        <ele>81.2</ele>
        <time>2021-08-15T08:00:52Z</time>
      </trkpt>
      <trkpt lat="50.57394" lon="3.18163">
        <ele>81.5</ele>
        <time>2021-08-15T08:00:58Z</time>
      </trkpt>
      <trkpt lat="50.57394" lon="3.18163">
        <ele>81.8</ele>
        <time>2021-08-15T08:01:03Z</time>
      </trkpt>
      <trkpt lat="50.57394" lon="3.18163">
        <ele>81.3</ele>
        <time>2021-08-15T08:01:09Z</time>
      </trkpt>
      <trkpt lat="50.57394" lon="3.18163">
        <ele>81.3</ele>
        <time>2021-08-15T08:01:15Z</time>
      </trkpt>
      <trkpt lat="50.57394" lon="3.18163">
        <ele>81.1</ele>
        <time>2021-08-15T08:01:20Z</time>
      </trkpt>
      <trkpt lat="50.57394" lon="3.18163">
        <ele>81.5</ele>
        <time>2021-08-15T08:01:26Z</time>
      </trkpt>
      <trkpt lat="50.57394" lon="3.18163">
        <ele>81.1</ele>
        <time>2021-08-15T08:01:32Z</time>
      </trkpt>
      <trkpt lat="50.57394" lon="3.18163">
        <ele>82.2</ele>
        <time>2021-08-15T08:01:37Z</time>
      </trkpt>
      <trkpt lat="50.57394" lon="3.18163">
        <ele>80.9</ele>
        <time>2021-08-15T08:01:43Z</time>
      </trkpt>
      <trkpt lat="50.57394" lon="3.18164">
        <ele>81.6</ele>
        <time>2021-08-15T08:01:49Z</time>
      </trkpt>
      <trkpt lat="50.57394" lon="3.18164">
        <ele>81.8</ele>
        <time>2021-08-15T08:01:54Z</time>
      </trkpt>
      <trkpt lat="50.57394" lon="3.18163">
        <ele>81.4</ele>
        <time>2021-08-15T08:01:59Z</time>
      </trkpt>
      <trkpt lat="50.57394" lon="3.18163">
        <ele>81.2</ele>
        <time>2021-08-15T08:02:05Z</time>
      </trkpt>
      <trkpt lat="50.57394" lon="3.18163">
        <ele>81.7</ele>
        <time>2021-08-15T08:02:11Z</time>
      </trkpt>
      <trkpt lat="50.57394" lon="3.18164">
        <ele>81.1</ele>
        <time>2021-08-15T08:02:16Z</time>
      </trkpt>
      <trkpt lat="50.57394" lon="3.18163">
        <ele>81.5</ele>
        <time>2021-08-15T08:02:21Z</time>
      </trkpt>
      <trkpt lat="50.57394" lon="3.18163">
        <ele>81.1</ele>
        <time>2021-08-15T08:02:27Z</time>
      </trkpt>
      <trkpt lat="50.57394" lon="3.18163">
        <ele>81.7</ele>
        <time>2021-08-15T08:02:32Z</time>
      </trkpt>
      <trkpt lat="50.57394" lon="3.18164">
        <ele>81.6</ele>
        <time>2021-08-15T08:02:38Z</time>
      </trkpt>
      <trkpt lat="50.57393" lon="3.1817">
        <ele>81.7</ele>
        <time>2021-08-15T08:02:44Z</time>
      </trkpt>
      <trkpt lat="50.57381" lon="3.18183">
        <ele>79.1</ele>
        <time>2021-08-15T08:02:49Z</time>
      </trkpt>
      <trkpt lat="50.57369" lon="3.18205">
        <ele>76.2</ele>
        <time>2021-08-15T08:02:55Z</time>
      </trkpt>
      <trkpt lat="50.57361" lon="3.18227">
        <ele>76.5</ele>
        <time>2021-08-15T08:03:01Z</time>
      </trkpt>
      <trkpt lat="50.57362" lon="3.18243">
        <ele>74.3</ele>
        <time>2021-08-15T08:03:07Z</time>
      </trkpt>
      <trkpt lat="50.57365" lon="3.1826">
        <ele>76.6</ele>
        <time>2021-08-15T08:03:13Z</time>
      </trkpt>
      <trkpt lat="50.57373" lon="3.18285">
        <ele>76.2</ele>
        <time>2021-08-15T08:03:19Z</time>
      </trkpt>
      <trkpt lat="50.57399" lon="3.18294">
        <ele>76.3</ele>
        <time>2021-08-15T08:03:25Z</time>
      </trkpt>
      <trkpt lat="50.57414" lon="3.18279">
        <ele>80.5</ele>
        <time>2021-08-15T08:03:30Z</time>
      </trkpt>
      <trkpt lat="50.57437" lon="3.18262">
        <ele>81.6</ele>
        <time>2021-08-15T08:03:36Z</time>
      </trkpt>
      <trkpt lat="50.57444" lon="3.18245">
        <ele>79.2</ele>
        <time>2021-08-15T08:03:42Z</time>
      </trkpt>
      <trkpt lat="50.57433" lon="3.18223">
        <ele>77.2</ele>
        <time>2021-08-15T08:03:48Z</time>
      </trkpt>
      <trkpt lat="50.5744" lon="3.18194">
        <ele>77.3</ele>
        <time>2021-08-15T08:03:54Z</time>
      </trkpt>
      <trkpt lat="50.5746" lon="3.18171">
        <ele>73.7</ele>
        <time>2021-08-15T08:04:00Z</time>
      </trkpt>
      <trkpt lat="50.57464" lon="3.18176">
        <ele>77</ele>
        <time>2021-08-15T08:04:06Z</time>
      </trkpt>
      <trkpt lat="50.57469" lon="3.18197">
        <ele>74.7</ele>
        <time>2021-08-15T08:04:12Z</time>
      </trkpt>
      <trkpt lat="50.57473" lon="3.18227">
        <ele>76.2</ele>
        <time>2021-08-15T08:04:18Z</time>
      </trkpt>
      <trkpt lat="50.57477" lon="3.18252">
        <ele>75.1</ele>
        <time>2021-08-15T08:04:24Z</time>
      </trkpt>
      <trkpt lat="50.5749" lon="3.18261">
        <ele>75.7</ele>
        <time>2021-08-15T08:04:30Z</time>
      </trkpt>
      <trkpt lat="50.57503" lon="3.18258">
        <ele>77.1</ele>
        <time>2021-08-15T08:04:35Z</time>
      </trkpt>
      <trkpt lat="50.57526" lon="3.18233">
        <ele>72.9</ele>
        <time>2021-08-15T08:04:41Z</time>
      </trkpt>
      <trkpt lat="50.57547" lon="3.18214">
        <ele>71.4</ele>
        <time>2021-08-15T08:04:47Z</time>
      </trkpt>
      <trkpt lat="50.57566" lon="3.182">
        <ele>72.2</ele>
        <time>2021-08-15T08:04:52Z</time>
      </trkpt>
      <trkpt lat="50.57587" lon="3.18188">
        <ele>73.7</ele>
        <time>2021-08-15T08:04:58Z</time>
      </trkpt>
      <trkpt lat="50.57605" lon="3.18176">
        <ele>74.6</ele>
        <time>2021-08-15T08:05:04Z</time>
      </trkpt>
      <trkpt lat="50.57621" lon="3.18165">
        <ele>74.6</ele>
        <time>2021-08-15T08:05:10Z</time>
      </trkpt>
      <trkpt lat="50.57639" lon="3.18152">
        <ele>76.1</ele>
        <time>2021-08-15T08:05:16Z</time>
      </trkpt>
      <trkpt lat="50.57659" lon="3.1814">
        <ele>75.4</ele>
        <time>2021-08-15T08:05:22Z</time>
      </trkpt>
      <trkpt lat="50.57676" lon="3.1813">
        <ele>75.5</ele>
        <time>2021-08-15T08:05:27Z</time>
      </trkpt>
      <trkpt lat="50.5769" lon="3.18122">
        <ele>74.3</ele>
        <time>2021-08-15T08:05:32Z</time>
      </trkpt>
      <trkpt lat="50.57707" lon="3.1811">
        <ele>72.3</ele>
        <time>2021-08-15T08:05:38Z</time>
      </trkpt>
      <trkpt lat="50.57729" lon="3.18097">
        <ele>72.8</ele>
        <time>2021-08-15T08:05:44Z</time>
      </trkpt>
      <trkpt lat="50.57748" lon="3.18089">
        <ele>73.1</ele>
        <time>2021-08-15T08:05:50Z</time>
      </trkpt>
      <trkpt lat="50.57763" lon="3.18074">
        <ele>73.3</ele>
        <time>2021-08-15T08:05:56Z</time>
      </trkpt>
      <trkpt lat="50.57775" lon="3.18067">
        <ele>72.1</ele>
        <time>2021-08-15T08:06:02Z</time>
      </trkpt>
      <trkpt lat="50.57771" lon="3.18066">
        <ele>71.8</ele>
        <time>2021-08-15T08:06:08Z</time>
      </trkpt>
      <trkpt lat="50.5777" lon="3.18068">
        <ele>71.8</ele>
        <time>2021-08-15T08:06:13Z</time>
      </trkpt>
      <trkpt lat="50.5777" lon="3.18068">
        <ele>72.4</ele>
        <time>2021-08-15T08:06:19Z</time>
      </trkpt>
      <trkpt lat="50.5777" lon="3.18069">
        <ele>72.2</ele>
        <time>2021-08-15T08:06:24Z</time>
      </trkpt>
      <trkpt lat="50.5777" lon="3.18069">
        <ele>71.8</ele>
        <time>2021-08-15T08:06:30Z</time>
      </trkpt>
      <trkpt lat="50.5777" lon="3.18069">
        <ele>71.5</ele>
        <time>2021-08-15T08:06:35Z</time>
      </trkpt>
      <trkpt lat="50.5777" lon="3.18069">
        <ele>72</ele>
        <time>2021-08-15T08:06:40Z</time>
      </trkpt>
      <trkpt lat="50.57771" lon="3.18068">
        <ele>73.1</ele>
        <time>2021-08-15T08:06:46Z</time>
      </trkpt>
      <trkpt lat="50.57772" lon="3.18068">
        <ele>73.1</ele>
        <time>2021-08-15T08:06:51Z</time>
      </trkpt>
      <trkpt lat="50.57771" lon="3.18068">
        <ele>72.7</ele>
        <time>2021-08-15T08:06:56Z</time>
      </trkpt>
      <trkpt lat="50.5777" lon="3.18069">
        <ele>73.3</ele>
        <time>2021-08-15T08:07:02Z</time>
      </trkpt>
      <trkpt lat="50.5777" lon="3.18068">
        <ele>72.2</ele>
        <time>2021-08-15T08:07:08Z</time>
      </trkpt>
      <trkpt lat="50.5777" lon="3.18068">
        <ele>72.3</ele>
        <time>2021-08-15T08:07:13Z</time>
      </trkpt>
      <trkpt lat="50.5777" lon="3.18068">
        <ele>71.1</ele>
        <time>2021-08-15T08:07:19Z</time>
      </trkpt>
      <trkpt lat="50.5777" lon="3.18068">
        <ele>72</ele>
        <time>2021-08-15T08:07:24Z</time>
      </trkpt>
      <trkpt lat="50.5777" lon="3.18068">
        <ele>71.6</ele>
        <time>2021-08-15T08:07:30Z</time>
      </trkpt>
      <trkpt lat="50.57769" lon="3.18069">
        <ele>72.4</ele>
        <time>2021-08-15T08:07:36Z</time>
      </trkpt>
      <trkpt lat="50.57769" lon="3.18068">
        <ele>73.4</ele>
        <time>2021-08-15T08:07:41Z</time>
      </trkpt>
      <trkpt lat="50.57769" lon="3.18068">
        <ele>73.6</ele>
        <time>2021-08-15T08:07:47Z</time>
      </trkpt>
      <trkpt lat="50.57769" lon="3.18068">
        <ele>73.3</ele>
        <time>2021-08-15T08:07:53Z</time>
      </trkpt>
      <trkpt lat="50.57771" lon="3.18067">
        <ele>73.6</ele>
        <time>2021-08-15T08:07:59Z</time>
      </trkpt>
      <trkpt lat="50.57781" lon="3.1806">
        <ele>72.7</ele>
        <time>2021-08-15T08:08:05Z</time>
      </trkpt>
      <trkpt lat="50.57793" lon="3.18049">
        <ele>73.1</ele>
        <time>2021-08-15T08:08:10Z</time>
      </trkpt>
      <trkpt lat="50.5781" lon="3.18036">
        <ele>73.6</ele>
        <time>2021-08-15T08:08:16Z</time>
      </trkpt>
      <trkpt lat="50.57825" lon="3.18027">
        <ele>74.7</ele>
        <time>2021-08-15T08:08:21Z</time>
      </trkpt>
      <trkpt lat="50.57842" lon="3.18015">
        <ele>75.5</ele>
        <time>2021-08-15T08:08:27Z</time>
      </trkpt>
      <trkpt lat="50.57854" lon="3.18006">
        <ele>75.9</ele>
        <time>2021-08-15T08:08:32Z</time>
      </trkpt>
      <trkpt lat="50.57858" lon="3.18">
        <ele>76</ele>
        <time>2021-08-15T08:08:38Z</time>
      </trkpt>
      <trkpt lat="50.57873" lon="3.17999">
        <ele>76.5</ele>
        <time>2021-08-15T08:08:44Z</time>
      </trkpt>
      <trkpt lat="50.57893" lon="3.17979">
        <ele>76.7</ele>
        <time>2021-08-15T08:08:50Z</time>
      </trkpt>
      <trkpt lat="50.5791" lon="3.17965">
        <ele>81.1</ele>
        <time>2021-08-15T08:08:56Z</time>
      </trkpt>
      <trkpt lat="50.57927" lon="3.17949">
        <ele>78.8</ele>
        <time>2021-08-15T08:09:02Z</time>
      </trkpt>
      <trkpt lat="50.57942" lon="3.17937">
        <ele>77.8</ele>
        <time>2021-08-15T08:09:07Z</time>
      </trkpt>
      <trkpt lat="50.57959" lon="3.17922">
        <ele>77.4</ele>
        <time>2021-08-15T08:09:13Z</time>
      </trkpt>
      <trkpt lat="50.57977" lon="3.17908">
        <ele>78.2</ele>
        <time>2021-08-15T08:09:19Z</time>
      </trkpt>
      <trkpt lat="50.5799" lon="3.17895">
        <ele>79.8</ele>
        <time>2021-08-15T08:09:24Z</time>
      </trkpt>
      <trkpt lat="50.58009" lon="3.17875">
        <ele>78.4</ele>
        <time>2021-08-15T08:09:30Z</time>
      </trkpt>
      <trkpt lat="50.58026" lon="3.17853">
        <ele>81.4</ele>
        <time>2021-08-15T08:09:36Z</time>
      </trkpt>
      <trkpt lat="50.5804" lon="3.17835">
        <ele>80.7</ele>
        <time>2021-08-15T08:09:41Z</time>
      </trkpt>
      <trkpt lat="50.58041" lon="3.17824">
        <ele>78</ele>
        <time>2021-08-15T08:09:47Z</time>
      </trkpt>
      <trkpt lat="50.58038" lon="3.1784">
        <ele>79.3</ele>
        <time>2021-08-15T08:09:52Z</time>
      </trkpt>
      <trkpt lat="50.58042" lon="3.17859">
        <ele>77.6</ele>
        <time>2021-08-15T08:09:57Z</time>
      </trkpt>
      <trkpt lat="50.58051" lon="3.17881">
        <ele>75.1</ele>
        <time>2021-08-15T08:10:02Z</time>
      </trkpt>
      <trkpt lat="50.5806" lon="3.17911">
        <ele>73.2</ele>
        <time>2021-08-15T08:10:08Z</time>
      </trkpt>
      <trkpt lat="50.58068" lon="3.17936">
        <ele>72.6</ele>
        <time>2021-08-15T08:10:13Z</time>
      </trkpt>
      <trkpt lat="50.58078" lon="3.17965">
        <ele>72.5</ele>
        <time>2021-08-15T08:10:19Z</time>
      </trkpt>
      <trkpt lat="50.58088" lon="3.18">
        <ele>72.1</ele>
        <time>2021-08-15T08:10:25Z</time>
      </trkpt>
      <trkpt lat="50.58097" lon="3.1803">
        <ele>71.7</ele>
        <time>2021-08-15T08:10:30Z</time>
      </trkpt>
      <trkpt lat="50.58106" lon="3.18062">
        <ele>69.8</ele>
        <time>2021-08-15T08:10:35Z</time>
      </trkpt>
      <trkpt lat="50.58112" lon="3.18092">
        <ele>70.6</ele>
        <time>2021-08-15T08:10:41Z</time>
      </trkpt>
      <trkpt lat="50.58118" lon="3.18107">
        <ele>72.9</ele>
        <time>2021-08-15T08:10:47Z</time>
      </trkpt>
      <trkpt lat="50.58126" lon="3.18101">
        <ele>77.1</ele>
        <time>2021-08-15T08:10:52Z</time>
      </trkpt>
      <trkpt lat="50.5814" lon="3.18093">
        <ele>79.6</ele>
        <time>2021-08-15T08:10:58Z</time>
      </trkpt>
      <trkpt lat="50.58159" lon="3.18085">
        <ele>76.8</ele>
        <time>2021-08-15T08:11:03Z</time>
      </trkpt>
      <trkpt lat="50.58178" lon="3.18075">
        <ele>74</ele>
        <time>2021-08-15T08:11:08Z</time>
      </trkpt>
      <trkpt lat="50.58212" lon="3.18068">
        <ele>70.9</ele>
        <time>2021-08-15T08:11:14Z</time>
      </trkpt>
      <trkpt lat="50.58233" lon="3.1806">
        <ele>71.6</ele>
        <time>2021-08-15T08:11:19Z</time>
      </trkpt>
      <trkpt lat="50.58257" lon="3.18051">
        <ele>72.8</ele>
        <time>2021-08-15T08:11:25Z</time>
      </trkpt>
      <trkpt lat="50.58284" lon="3.18058">
        <ele>76.7</ele>
        <time>2021-08-15T08:11:31Z</time>
      </trkpt>
      <trkpt lat="50.58307" lon="3.18078">
        <ele>76.6</ele>
        <time>2021-08-15T08:11:36Z</time>
      </trkpt>
      <trkpt lat="50.58328" lon="3.18093">
        <ele>77.1</ele>
        <time>2021-08-15T08:11:42Z</time>
      </trkpt>
      <trkpt lat="50.58344" lon="3.1809">
        <ele>76.1</ele>
        <time>2021-08-15T08:11:47Z</time>
      </trkpt>
      <trkpt lat="50.58367" lon="3.18114">
        <ele>76.5</ele>
        <time>2021-08-15T08:11:53Z</time>
      </trkpt>
      <trkpt lat="50.58392" lon="3.18142">
        <ele>76.7</ele>
        <time>2021-08-15T08:11:58Z</time>
      </trkpt>
      <trkpt lat="50.58411" lon="3.18164">
        <ele>82</ele>
        <time>2021-08-15T08:12:04Z</time>
      </trkpt>
      <trkpt lat="50.58431" lon="3.18179">
        <ele>81.8</ele>
        <time>2021-08-15T08:12:10Z</time>
      </trkpt>
      <trkpt lat="50.58449" lon="3.18186">
        <ele>85.6</ele>
        <time>2021-08-15T08:12:15Z</time>
      </trkpt>
      <trkpt lat="50.58475" lon="3.18205">
        <ele>82.5</ele>
        <time>2021-08-15T08:12:21Z</time>
      </trkpt>
      <trkpt lat="50.58505" lon="3.18243">
        <ele>71.1</ele>
        <time>2021-08-15T08:12:27Z</time>
      </trkpt>
      <trkpt lat="50.58531" lon="3.1826">
        <ele>77.1</ele>
        <time>2021-08-15T08:12:32Z</time>
      </trkpt>
      <trkpt lat="50.58552" lon="3.18286">
        <ele>74.9</ele>
        <time>2021-08-15T08:12:38Z</time>
      </trkpt>
      <trkpt lat="50.58572" lon="3.183">
        <ele>70.6</ele>
        <time>2021-08-15T08:12:43Z</time>
      </trkpt>
      <trkpt lat="50.58598" lon="3.1832">
        <ele>65</ele>
        <time>2021-08-15T08:12:48Z</time>
      </trkpt>
      <trkpt lat="50.58622" lon="3.18341">
        <ele>63.1</ele>
        <time>2021-08-15T08:12:54Z</time>
      </trkpt>
      <trkpt lat="50.58637" lon="3.18356">
        <ele>63.2</ele>
        <time>2021-08-15T08:13:00Z</time>
      </trkpt>
      <trkpt lat="50.58664" lon="3.18376">
        <ele>64.5</ele>
        <time>2021-08-15T08:13:05Z</time>
      </trkpt>
      <trkpt lat="50.5869" lon="3.18396">
        <ele>62.7</ele>
        <time>2021-08-15T08:13:11Z</time>
      </trkpt>
      <trkpt lat="50.5871" lon="3.18404">
        <ele>68.6</ele>
        <time>2021-08-15T08:13:17Z</time>
      </trkpt>
      <trkpt lat="50.5873" lon="3.18429">
        <ele>69.7</ele>
        <time>2021-08-15T08:13:22Z</time>
      </trkpt>
      <trkpt lat="50.58755" lon="3.18452">
        <ele>70</ele>
        <time>2021-08-15T08:13:27Z</time>
      </trkpt>
      <trkpt lat="50.5878" lon="3.18475">
        <ele>70.7</ele>
        <time>2021-08-15T08:13:33Z</time>
      </trkpt>
      <trkpt lat="50.58801" lon="3.1849">
        <ele>70.6</ele>
        <time>2021-08-15T08:13:39Z</time>
      </trkpt>
      <trkpt lat="50.5885" lon="3.1853">
        <ele>75.2</ele>
        <time>2021-08-15T08:13:50Z</time>
      </trkpt>
      <trkpt lat="50.58873" lon="3.18554">
        <ele>75.3</ele>
        <time>2021-08-15T08:13:56Z</time>
      </trkpt>
      <trkpt lat="50.58895" lon="3.18574">
        <ele>72.4</ele>
        <time>2021-08-15T08:14:02Z</time>
      </trkpt>
      <trkpt lat="50.58923" lon="3.18593">
        <ele>73.7</ele>
        <time>2021-08-15T08:14:08Z</time>
      </trkpt>
      <trkpt lat="50.58945" lon="3.18611">
        <ele>73</ele>
        <time>2021-08-15T08:14:14Z</time>
      </trkpt>
      <trkpt lat="50.58962" lon="3.18618">
        <ele>70.4</ele>
        <time>2021-08-15T08:14:19Z</time>
      </trkpt>
      <trkpt lat="50.58982" lon="3.1864">
        <ele>72.7</ele>
        <time>2021-08-15T08:14:24Z</time>
      </trkpt>
      <trkpt lat="50.59005" lon="3.18664">
        <ele>72.1</ele>
        <time>2021-08-15T08:14:30Z</time>
      </trkpt>
      <trkpt lat="50.59027" lon="3.18687">
        <ele>70.2</ele>
        <time>2021-08-15T08:14:35Z</time>
      </trkpt>
      <trkpt lat="50.59051" lon="3.18706">
        <ele>70.8</ele>
        <time>2021-08-15T08:14:40Z</time>
      </trkpt>
      <trkpt lat="50.59068" lon="3.18719">
        <ele>71</ele>
        <time>2021-08-15T08:14:46Z</time>
      </trkpt>
      <trkpt lat="50.5909" lon="3.18734">
        <ele>71.9</ele>
        <time>2021-08-15T08:14:51Z</time>
      </trkpt>
      <trkpt lat="50.5911" lon="3.18763">
        <ele>75.5</ele>
        <time>2021-08-15T08:14:57Z</time>
      </trkpt>
      <trkpt lat="50.59128" lon="3.18779">
        <ele>74.1</ele>
        <time>2021-08-15T08:15:03Z</time>
      </trkpt>
      <trkpt lat="50.59144" lon="3.18795">
        <ele>74.3</ele>
        <time>2021-08-15T08:15:09Z</time>
      </trkpt>
      <trkpt lat="50.59162" lon="3.18818">
        <ele>74.3</ele>
        <time>2021-08-15T08:15:15Z</time>
      </trkpt>
      <trkpt lat="50.59177" lon="3.18837">
        <ele>73.9</ele>
        <time>2021-08-15T08:15:20Z</time>
      </trkpt>
      <trkpt lat="50.59192" lon="3.18867">
        <ele>74.4</ele>
        <time>2021-08-15T08:15:26Z</time>
      </trkpt>
      <trkpt lat="50.59202" lon="3.1889">
        <ele>71.5</ele>
        <time>2021-08-15T08:15:31Z</time>
      </trkpt>
      <trkpt lat="50.59217" lon="3.1893">
        <ele>70.6</ele>
        <time>2021-08-15T08:15:37Z</time>
      </trkpt>
      <trkpt lat="50.59231" lon="3.18954">
        <ele>74.4</ele>
        <time>2021-08-15T08:15:43Z</time>
      </trkpt>
      <trkpt lat="50.59239" lon="3.18972">
        <ele>74.5</ele>
        <time>2021-08-15T08:15:48Z</time>
      </trkpt>
      <trkpt lat="50.5926" lon="3.19014">
        <ele>73.6</ele>
        <time>2021-08-15T08:15:53Z</time>
      </trkpt>
      <trkpt lat="50.59276" lon="3.19047">
        <ele>72.4</ele>
        <time>2021-08-15T08:15:58Z</time>
      </trkpt>
      <trkpt lat="50.59288" lon="3.19067">
        <ele>73</ele>
        <time>2021-08-15T08:16:04Z</time>
      </trkpt>
      <trkpt lat="50.59299" lon="3.191">
        <ele>74.3</ele>
        <time>2021-08-15T08:16:10Z</time>
      </trkpt>
      <trkpt lat="50.59317" lon="3.19129">
        <ele>75.7</ele>
        <time>2021-08-15T08:16:16Z</time>
      </trkpt>
      <trkpt lat="50.59332" lon="3.19156">
        <ele>72.6</ele>
        <time>2021-08-15T08:16:21Z</time>
      </trkpt>
      <trkpt lat="50.59343" lon="3.19185">
        <ele>74.9</ele>
        <time>2021-08-15T08:16:27Z</time>
      </trkpt>
      <trkpt lat="50.59355" lon="3.19212">
        <ele>73.4</ele>
        <time>2021-08-15T08:16:32Z</time>
      </trkpt>
      <trkpt lat="50.59372" lon="3.19248">
        <ele>71.5</ele>
        <time>2021-08-15T08:16:38Z</time>
      </trkpt>
      <trkpt lat="50.59384" lon="3.19276">
        <ele>72.1</ele>
        <time>2021-08-15T08:16:43Z</time>
      </trkpt>
      <trkpt lat="50.59395" lon="3.19301">
        <ele>72.2</ele>
        <time>2021-08-15T08:16:49Z</time>
      </trkpt>
      <trkpt lat="50.59409" lon="3.19326">
        <ele>77</ele>
        <time>2021-08-15T08:16:55Z</time>
      </trkpt>
      <trkpt lat="50.59422" lon="3.19351">
        <ele>74.1</ele>
        <time>2021-08-15T08:17:00Z</time>
      </trkpt>
      <trkpt lat="50.59434" lon="3.19376">
        <ele>74.3</ele>
        <time>2021-08-15T08:17:05Z</time>
      </trkpt>
      <trkpt lat="50.59446" lon="3.19405">
        <ele>73.9</ele>
        <time>2021-08-15T08:17:11Z</time>
      </trkpt>
      <trkpt lat="50.59456" lon="3.19435">
        <ele>76.9</ele>
        <time>2021-08-15T08:17:16Z</time>
      </trkpt>
      <trkpt lat="50.59455" lon="3.19454">
        <ele>80.6</ele>
        <time>2021-08-15T08:17:21Z</time>
      </trkpt>
      <trkpt lat="50.59464" lon="3.19477">
        <ele>83.1</ele>
        <time>2021-08-15T08:17:27Z</time>
      </trkpt>
      <trkpt lat="50.59461" lon="3.19505">
        <ele>87.4</ele>
        <time>2021-08-15T08:17:33Z</time>
      </trkpt>
      <trkpt lat="50.59452" lon="3.19529">
        <ele>85.4</ele>
        <time>2021-08-15T08:17:38Z</time>
      </trkpt>
      <trkpt lat="50.5945" lon="3.19545">
        <ele>84.6</ele>
        <time>2021-08-15T08:17:44Z</time>
      </trkpt>
      <trkpt lat="50.59443" lon="3.19558">
        <ele>85.1</ele>
        <time>2021-08-15T08:17:49Z</time>
      </trkpt>
      <trkpt lat="50.59427" lon="3.19561">
        <ele>86.7</ele>
        <time>2021-08-15T08:17:55Z</time>
      </trkpt>
      <trkpt lat="50.5942" lon="3.19552">
        <ele>87.7</ele>
        <time>2021-08-15T08:18:00Z</time>
      </trkpt>
      <trkpt lat="50.59411" lon="3.19549">
        <ele>89.5</ele>
        <time>2021-08-15T08:18:05Z</time>
      </trkpt>
      <trkpt lat="50.59392" lon="3.19544">
        <ele>86.2</ele>
        <time>2021-08-15T08:18:11Z</time>
      </trkpt>
      <trkpt lat="50.59376" lon="3.19537">
        <ele>88.2</ele>
        <time>2021-08-15T08:18:17Z</time>
      </trkpt>
      <trkpt lat="50.59358" lon="3.19517">
        <ele>89.7</ele>
        <time>2021-08-15T08:18:23Z</time>
      </trkpt>
      <trkpt lat="50.59348" lon="3.19501">
        <ele>89.1</ele>
        <time>2021-08-15T08:18:28Z</time>
      </trkpt>
      <trkpt lat="50.59338" lon="3.19482">
        <ele>88.1</ele>
        <time>2021-08-15T08:18:34Z</time>
      </trkpt>
      <trkpt lat="50.59332" lon="3.19461">
        <ele>87.8</ele>
        <time>2021-08-15T08:18:40Z</time>
      </trkpt>
      <trkpt lat="50.5933" lon="3.19432">
        <ele>82.8</ele>
        <time>2021-08-15T08:18:46Z</time>
      </trkpt>
      <trkpt lat="50.59322" lon="3.1942">
        <ele>80.1</ele>
        <time>2021-08-15T08:18:52Z</time>
      </trkpt>
      <trkpt lat="50.59315" lon="3.19412">
        <ele>79</ele>
        <time>2021-08-15T08:18:58Z</time>
      </trkpt>
      <trkpt lat="50.59305" lon="3.19409">
        <ele>76.3</ele>
        <time>2021-08-15T08:19:04Z</time>
      </trkpt>
      <trkpt lat="50.59285" lon="3.19402">
        <ele>79.1</ele>
        <time>2021-08-15T08:19:10Z</time>
      </trkpt>
      <trkpt lat="50.59274" lon="3.19401">
        <ele>78.4</ele>
        <time>2021-08-15T08:19:15Z</time>
      </trkpt>
      <trkpt lat="50.59252" lon="3.19409">
        <ele>78.8</ele>
        <time>2021-08-15T08:19:21Z</time>
      </trkpt>
      <trkpt lat="50.59243" lon="3.19431">
        <ele>77.7</ele>
        <time>2021-08-15T08:19:26Z</time>
      </trkpt>
      <trkpt lat="50.59237" lon="3.19453">
        <ele>75.4</ele>
        <time>2021-08-15T08:19:32Z</time>
      </trkpt>
      <trkpt lat="50.59227" lon="3.19478">
        <ele>75.3</ele>
        <time>2021-08-15T08:19:37Z</time>
      </trkpt>
      <trkpt lat="50.59216" lon="3.19482">
        <ele>79.5</ele>
        <time>2021-08-15T08:19:43Z</time>
      </trkpt>
      <trkpt lat="50.59218" lon="3.19505">
        <ele>80.3</ele>
        <time>2021-08-15T08:19:49Z</time>
      </trkpt>
      <trkpt lat="50.5922" lon="3.19519">
        <ele>82.5</ele>
        <time>2021-08-15T08:19:54Z</time>
      </trkpt>
      <trkpt lat="50.5922" lon="3.1954">
        <ele>82.2</ele>
        <time>2021-08-15T08:19:59Z</time>
      </trkpt>
      <trkpt lat="50.59219" lon="3.19577">
        <ele>84.8</ele>
        <time>2021-08-15T08:20:05Z</time>
      </trkpt>
      <trkpt lat="50.59215" lon="3.19594">
        <ele>83.5</ele>
        <time>2021-08-15T08:20:11Z</time>
      </trkpt>
      <trkpt lat="50.59208" lon="3.19613">
        <ele>81.6</ele>
        <time>2021-08-15T08:20:17Z</time>
      </trkpt>
      <trkpt lat="50.59208" lon="3.19639">
        <ele>80.5</ele>
        <time>2021-08-15T08:20:23Z</time>
      </trkpt>
      <trkpt lat="50.59209" lon="3.1966">
        <ele>79.9</ele>
        <time>2021-08-15T08:20:28Z</time>
      </trkpt>
      <trkpt lat="50.5921" lon="3.19684">
        <ele>82.4</ele>
        <time>2021-08-15T08:20:33Z</time>
      </trkpt>
      <trkpt lat="50.59215" lon="3.19694">
        <ele>84.9</ele>
        <time>2021-08-15T08:20:39Z</time>
      </trkpt>
      <trkpt lat="50.5922" lon="3.19712">
        <ele>86.5</ele>
        <time>2021-08-15T08:20:44Z</time>
      </trkpt>
      <trkpt lat="50.59231" lon="3.19738">
        <ele>87.7</ele>
        <time>2021-08-15T08:20:50Z</time>
      </trkpt>
      <trkpt lat="50.59241" lon="3.19764">
        <ele>84.5</ele>
        <time>2021-08-15T08:20:55Z</time>
      </trkpt>
      <trkpt lat="50.59247" lon="3.1979">
        <ele>85.8</ele>
        <time>2021-08-15T08:21:01Z</time>
      </trkpt>
      <trkpt lat="50.59263" lon="3.19805">
        <ele>85.8</ele>
        <time>2021-08-15T08:21:07Z</time>
      </trkpt>
      <trkpt lat="50.59275" lon="3.19813">
        <ele>90.7</ele>
        <time>2021-08-15T08:21:13Z</time>
      </trkpt>
      <trkpt lat="50.59286" lon="3.19803">
        <ele>86.8</ele>
        <time>2021-08-15T08:21:18Z</time>
      </trkpt>
      <trkpt lat="50.59298" lon="3.19798">
        <ele>90.7</ele>
        <time>2021-08-15T08:21:23Z</time>
      </trkpt>
      <trkpt lat="50.59315" lon="3.1979">
        <ele>91.8</ele>
        <time>2021-08-15T08:21:29Z</time>
      </trkpt>
      <trkpt lat="50.59327" lon="3.1977">
        <ele>90.3</ele>
        <time>2021-08-15T08:21:34Z</time>
      </trkpt>
      <trkpt lat="50.59344" lon="3.19775">
        <ele>94.2</ele>
        <time>2021-08-15T08:21:39Z</time>
      </trkpt>
      <trkpt lat="50.59362" lon="3.19778">
        <ele>94.6</ele>
        <time>2021-08-15T08:21:44Z</time>
      </trkpt>
      <trkpt lat="50.59383" lon="3.19779">
        <ele>96.2</ele>
        <time>2021-08-15T08:21:50Z</time>
      </trkpt>
      <trkpt lat="50.59396" lon="3.1979">
        <ele>90.2</ele>
        <time>2021-08-15T08:21:55Z</time>
      </trkpt>
      <trkpt lat="50.59419" lon="3.19787">
        <ele>87.1</ele>
        <time>2021-08-15T08:22:01Z</time>
      </trkpt>
      <trkpt lat="50.59436" lon="3.19769">
        <ele>81.3</ele>
        <time>2021-08-15T08:22:07Z</time>
      </trkpt>
      <trkpt lat="50.59448" lon="3.19744">
        <ele>76</ele>
        <time>2021-08-15T08:22:13Z</time>
      </trkpt>
      <trkpt lat="50.59467" lon="3.19723">
        <ele>75.6</ele>
        <time>2021-08-15T08:22:19Z</time>
      </trkpt>
      <trkpt lat="50.59478" lon="3.19708">
        <ele>78.2</ele>
        <time>2021-08-15T08:22:24Z</time>
      </trkpt>
      <trkpt lat="50.59484" lon="3.19705">
        <ele>79.6</ele>
        <time>2021-08-15T08:22:30Z</time>
      </trkpt>
      <trkpt lat="50.59482" lon="3.19704">
        <ele>80</ele>
        <time>2021-08-15T08:22:36Z</time>
      </trkpt>
      <trkpt lat="50.59483" lon="3.19712">
        <ele>84.8</ele>
        <time>2021-08-15T08:22:42Z</time>
      </trkpt>
      <trkpt lat="50.59487" lon="3.19728">
        <ele>84.2</ele>
        <time>2021-08-15T08:22:47Z</time>
      </trkpt>
      <trkpt lat="50.59495" lon="3.19754">
        <ele>84</ele>
        <time>2021-08-15T08:22:53Z</time>
      </trkpt>
      <trkpt lat="50.5951" lon="3.19771">
        <ele>85</ele>
        <time>2021-08-15T08:22:59Z</time>
      </trkpt>
      <trkpt lat="50.59517" lon="3.19798">
        <ele>86</ele>
        <time>2021-08-15T08:23:04Z</time>
      </trkpt>
      <trkpt lat="50.59525" lon="3.19821">
        <ele>85.3</ele>
        <time>2021-08-15T08:23:10Z</time>
      </trkpt>
      <trkpt lat="50.59536" lon="3.19849">
        <ele>82</ele>
        <time>2021-08-15T08:23:15Z</time>
      </trkpt>
      <trkpt lat="50.59547" lon="3.19876">
        <ele>81.8</ele>
        <time>2021-08-15T08:23:20Z</time>
      </trkpt>
      <trkpt lat="50.59566" lon="3.19887">
        <ele>80.5</ele>
        <time>2021-08-15T08:23:26Z</time>
      </trkpt>
      <trkpt lat="50.59578" lon="3.19878">
        <ele>86.1</ele>
        <time>2021-08-15T08:23:31Z</time>
      </trkpt>
      <trkpt lat="50.59589" lon="3.19866">
        <ele>87.3</ele>
        <time>2021-08-15T08:23:37Z</time>
      </trkpt>
      <trkpt lat="50.59604" lon="3.19855">
        <ele>75.7</ele>
        <time>2021-08-15T08:23:42Z</time>
      </trkpt>
      <trkpt lat="50.5962" lon="3.19843">
        <ele>74.7</ele>
        <time>2021-08-15T08:23:48Z</time>
      </trkpt>
      <trkpt lat="50.59633" lon="3.19841">
        <ele>75.1</ele>
        <time>2021-08-15T08:23:53Z</time>
      </trkpt>
      <trkpt lat="50.59648" lon="3.19843">
        <ele>76.8</ele>
        <time>2021-08-15T08:23:59Z</time>
      </trkpt>
      <trkpt lat="50.59658" lon="3.19853">
        <ele>80</ele>
        <time>2021-08-15T08:24:04Z</time>
      </trkpt>
      <trkpt lat="50.59669" lon="3.19852">
        <ele>85.6</ele>
        <time>2021-08-15T08:24:09Z</time>
      </trkpt>
      <trkpt lat="50.59683" lon="3.19859">
        <ele>81.6</ele>
        <time>2021-08-15T08:24:15Z</time>
      </trkpt>
      <trkpt lat="50.59701" lon="3.19871">
        <ele>84.7</ele>
        <time>2021-08-15T08:24:21Z</time>
      </trkpt>
      <trkpt lat="50.59717" lon="3.19879">
        <ele>82.5</ele>
        <time>2021-08-15T08:24:26Z</time>
      </trkpt>
      <trkpt lat="50.59734" lon="3.19889">
        <ele>82.5</ele>
        <time>2021-08-15T08:24:31Z</time>
      </trkpt>
      <trkpt lat="50.59754" lon="3.19901">
        <ele>85.7</ele>
        <time>2021-08-15T08:24:37Z</time>
      </trkpt>
      <trkpt lat="50.59779" lon="3.19919">
        <ele>83.1</ele>
        <time>2021-08-15T08:24:43Z</time>
      </trkpt>
      <trkpt lat="50.59799" lon="3.19938">
        <ele>85.7</ele>
        <time>2021-08-15T08:24:49Z</time>
      </trkpt>
      <trkpt lat="50.59815" lon="3.19947">
        <ele>87.3</ele>
        <time>2021-08-15T08:24:55Z</time>
      </trkpt>
      <trkpt lat="50.59842" lon="3.19954">
        <ele>87.9</ele>
        <time>2021-08-15T08:25:01Z</time>
      </trkpt>
      <trkpt lat="50.5987" lon="3.19975">
        <ele>81.7</ele>
        <time>2021-08-15T08:25:07Z</time>
      </trkpt>
      <trkpt lat="50.59906" lon="3.20009">
        <ele>73.6</ele>
        <time>2021-08-15T08:25:12Z</time>
      </trkpt>
      <trkpt lat="50.59926" lon="3.20019">
        <ele>71.8</ele>
        <time>2021-08-15T08:25:18Z</time>
      </trkpt>
      <trkpt lat="50.59949" lon="3.20033">
        <ele>73.5</ele>
        <time>2021-08-15T08:25:24Z</time>
      </trkpt>
      <trkpt lat="50.59966" lon="3.2004">
        <ele>73.1</ele>
        <time>2021-08-15T08:25:29Z</time>
      </trkpt>
      <trkpt lat="50.59975" lon="3.2005">
        <ele>77.2</ele>
        <time>2021-08-15T08:25:34Z</time>
      </trkpt>
      <trkpt lat="50.59993" lon="3.20041">
        <ele>74.8</ele>
        <time>2021-08-15T08:25:40Z</time>
      </trkpt>
      <trkpt lat="50.60013" lon="3.20034">
        <ele>74.5</ele>
        <time>2021-08-15T08:25:45Z</time>
      </trkpt>
      <trkpt lat="50.60032" lon="3.20026">
        <ele>73.6</ele>
        <time>2021-08-15T08:25:50Z</time>
      </trkpt>
      <trkpt lat="50.60056" lon="3.20019">
        <ele>73.3</ele>
        <time>2021-08-15T08:25:56Z</time>
      </trkpt>
      <trkpt lat="50.60079" lon="3.20013">
        <ele>74.9</ele>
        <time>2021-08-15T08:26:02Z</time>
      </trkpt>
      <trkpt lat="50.60098" lon="3.2001">
        <ele>73.6</ele>
        <time>2021-08-15T08:26:08Z</time>
      </trkpt>
      <trkpt lat="50.60108" lon="3.20005">
        <ele>71.6</ele>
        <time>2021-08-15T08:26:13Z</time>
      </trkpt>
      <trkpt lat="50.60119" lon="3.20009">
        <ele>76.6</ele>
        <time>2021-08-15T08:26:18Z</time>
      </trkpt>
      <trkpt lat="50.60128" lon="3.20033">
        <ele>79.6</ele>
        <time>2021-08-15T08:26:24Z</time>
      </trkpt>
      <trkpt lat="50.60133" lon="3.20051">
        <ele>81.5</ele>
        <time>2021-08-15T08:26:30Z</time>
      </trkpt>
      <trkpt lat="50.60139" lon="3.20072">
        <ele>81.7</ele>
        <time>2021-08-15T08:26:35Z</time>
      </trkpt>
      <trkpt lat="50.60146" lon="3.20098">
        <ele>80.5</ele>
        <time>2021-08-15T08:26:41Z</time>
      </trkpt>
      <trkpt lat="50.60156" lon="3.20123">
        <ele>81.1</ele>
        <time>2021-08-15T08:26:47Z</time>
      </trkpt>
      <trkpt lat="50.60168" lon="3.20144">
        <ele>76.9</ele>
        <time>2021-08-15T08:26:52Z</time>
      </trkpt>
      <trkpt lat="50.60184" lon="3.20171">
        <ele>78.1</ele>
        <time>2021-08-15T08:26:57Z</time>
      </trkpt>
      <trkpt lat="50.6021" lon="3.20195">
        <ele>74.5</ele>
        <time>2021-08-15T08:27:03Z</time>
      </trkpt>
      <trkpt lat="50.60224" lon="3.20223">
        <ele>73.9</ele>
        <time>2021-08-15T08:27:09Z</time>
      </trkpt>
      <trkpt lat="50.60239" lon="3.20249">
        <ele>72.5</ele>
        <time>2021-08-15T08:27:15Z</time>
      </trkpt>
      <trkpt lat="50.6026" lon="3.20262">
        <ele>73.3</ele>
        <time>2021-08-15T08:27:21Z</time>
      </trkpt>
      <trkpt lat="50.60275" lon="3.20275">
        <ele>73.5</ele>
        <time>2021-08-15T08:27:26Z</time>
      </trkpt>
      <trkpt lat="50.60291" lon="3.20274">
        <ele>67.8</ele>
        <time>2021-08-15T08:27:32Z</time>
      </trkpt>
      <trkpt lat="50.60304" lon="3.20258">
        <ele>72.1</ele>
        <time>2021-08-15T08:27:37Z</time>
      </trkpt>
      <trkpt lat="50.60323" lon="3.20233">
        <ele>71.8</ele>
        <time>2021-08-15T08:27:43Z</time>
      </trkpt>
      <trkpt lat="50.60337" lon="3.20216">
        <ele>71.6</ele>
        <time>2021-08-15T08:27:48Z</time>
      </trkpt>
      <trkpt lat="50.60346" lon="3.20204">
        <ele>74.3</ele>
        <time>2021-08-15T08:27:53Z</time>
      </trkpt>
      <trkpt lat="50.6036" lon="3.20186">
        <ele>76.9</ele>
        <time>2021-08-15T08:27:58Z</time>
      </trkpt>
      <trkpt lat="50.60373" lon="3.20163">
        <ele>75.8</ele>
        <time>2021-08-15T08:28:03Z</time>
      </trkpt>
      <trkpt lat="50.60398" lon="3.20141">
        <ele>71.8</ele>
        <time>2021-08-15T08:28:09Z</time>
      </trkpt>
      <trkpt lat="50.60416" lon="3.20122">
        <ele>69.6</ele>
        <time>2021-08-15T08:28:14Z</time>
      </trkpt>
      <trkpt lat="50.60452" lon="3.20064">
        <ele>72.5</ele>
        <time>2021-08-15T08:28:20Z</time>
      </trkpt>
      <trkpt lat="50.60467" lon="3.20042">
        <ele>73.6</ele>
        <time>2021-08-15T08:28:26Z</time>
      </trkpt>
      <trkpt lat="50.60482" lon="3.20026">
        <ele>75.7</ele>
        <time>2021-08-15T08:28:31Z</time>
      </trkpt>
      <trkpt lat="50.60498" lon="3.20034">
        <ele>77</ele>
        <time>2021-08-15T08:28:37Z</time>
      </trkpt>
      <trkpt lat="50.60513" lon="3.20021">
        <ele>76</ele>
        <time>2021-08-15T08:28:42Z</time>
      </trkpt>
      <trkpt lat="50.60532" lon="3.20003">
        <ele>76.5</ele>
        <time>2021-08-15T08:28:48Z</time>
      </trkpt>
      <trkpt lat="50.60543" lon="3.19986">
        <ele>78.7</ele>
        <time>2021-08-15T08:28:53Z</time>
      </trkpt>
      <trkpt lat="50.60553" lon="3.19969">
        <ele>81.2</ele>
        <time>2021-08-15T08:28:58Z</time>
      </trkpt>
      <trkpt lat="50.60561" lon="3.19964">
        <ele>86.1</ele>
        <time>2021-08-15T08:29:03Z</time>
      </trkpt>
      <trkpt lat="50.60573" lon="3.19958">
        <ele>91.4</ele>
        <time>2021-08-15T08:29:09Z</time>
      </trkpt>
      <trkpt lat="50.60595" lon="3.19956">
        <ele>93.6</ele>
        <time>2021-08-15T08:29:14Z</time>
      </trkpt>
      <trkpt lat="50.60619" lon="3.19947">
        <ele>89.7</ele>
        <time>2021-08-15T08:29:20Z</time>
      </trkpt>
      <trkpt lat="50.60635" lon="3.19924">
        <ele>89.1</ele>
        <time>2021-08-15T08:29:25Z</time>
      </trkpt>
      <trkpt lat="50.60653" lon="3.19908">
        <ele>89.5</ele>
        <time>2021-08-15T08:29:31Z</time>
      </trkpt>
      <trkpt lat="50.60666" lon="3.1989">
        <ele>92</ele>
        <time>2021-08-15T08:29:36Z</time>
      </trkpt>
      <trkpt lat="50.60663" lon="3.19871">
        <ele>87.2</ele>
        <time>2021-08-15T08:29:42Z</time>
      </trkpt>
      <trkpt lat="50.60681" lon="3.1985">
        <ele>84</ele>
        <time>2021-08-15T08:29:47Z</time>
      </trkpt>
      <trkpt lat="50.60698" lon="3.1983">
        <ele>80.6</ele>
        <time>2021-08-15T08:29:53Z</time>
      </trkpt>
      <trkpt lat="50.6071" lon="3.19819">
        <ele>80</ele>
        <time>2021-08-15T08:29:59Z</time>
      </trkpt>
      <trkpt lat="50.60728" lon="3.19809">
        <ele>75.5</ele>
        <time>2021-08-15T08:30:04Z</time>
      </trkpt>
      <trkpt lat="50.60743" lon="3.198">
        <ele>76.8</ele>
        <time>2021-08-15T08:30:10Z</time>
      </trkpt>
      <trkpt lat="50.6076" lon="3.19789">
        <ele>71.1</ele>
        <time>2021-08-15T08:30:16Z</time>
      </trkpt>
      <trkpt lat="50.60786" lon="3.1977">
        <ele>72.8</ele>
        <time>2021-08-15T08:30:22Z</time>
      </trkpt>
      <trkpt lat="50.60809" lon="3.1975">
        <ele>73.1</ele>
        <time>2021-08-15T08:30:27Z</time>
      </trkpt>
      <trkpt lat="50.60836" lon="3.1973">
        <ele>68.3</ele>
        <time>2021-08-15T08:30:33Z</time>
      </trkpt>
      <trkpt lat="50.60873" lon="3.19704">
        <ele>65.4</ele>
        <time>2021-08-15T08:30:38Z</time>
      </trkpt>
      <trkpt lat="50.60894" lon="3.19679">
        <ele>67.9</ele>
        <time>2021-08-15T08:30:44Z</time>
      </trkpt>
      <trkpt lat="50.60912" lon="3.19664">
        <ele>69.1</ele>
        <time>2021-08-15T08:30:49Z</time>
      </trkpt>
      <trkpt lat="50.60934" lon="3.19655">
        <ele>71</ele>
        <time>2021-08-15T08:30:54Z</time>
      </trkpt>
      <trkpt lat="50.60953" lon="3.19635">
        <ele>73.6</ele>
        <time>2021-08-15T08:31:00Z</time>
      </trkpt>
      <trkpt lat="50.60972" lon="3.19612">
        <ele>71.9</ele>
        <time>2021-08-15T08:31:06Z</time>
      </trkpt>
      <trkpt lat="50.60989" lon="3.19579">
        <ele>72.6</ele>
        <time>2021-08-15T08:31:12Z</time>
      </trkpt>
      <trkpt lat="50.61011" lon="3.19553">
        <ele>70.1</ele>
        <time>2021-08-15T08:31:17Z</time>
      </trkpt>
      <trkpt lat="50.61027" lon="3.1954">
        <ele>77</ele>
        <time>2021-08-15T08:31:22Z</time>
      </trkpt>
      <trkpt lat="50.6105" lon="3.19528">
        <ele>75.9</ele>
        <time>2021-08-15T08:31:28Z</time>
      </trkpt>
      <trkpt lat="50.6107" lon="3.19519">
        <ele>77.1</ele>
        <time>2021-08-15T08:31:33Z</time>
      </trkpt>
      <trkpt lat="50.61089" lon="3.19525">
        <ele>78.5</ele>
        <time>2021-08-15T08:31:39Z</time>
      </trkpt>
      <trkpt lat="50.61109" lon="3.19529">
        <ele>78.5</ele>
        <time>2021-08-15T08:31:44Z</time>
      </trkpt>
      <trkpt lat="50.61129" lon="3.19528">
        <ele>79.8</ele>
        <time>2021-08-15T08:31:49Z</time>
      </trkpt>
      <trkpt lat="50.61143" lon="3.19533">
        <ele>80</ele>
        <time>2021-08-15T08:31:55Z</time>
      </trkpt>
      <trkpt lat="50.61151" lon="3.19535">
        <ele>83.7</ele>
        <time>2021-08-15T08:32:00Z</time>
      </trkpt>
      <trkpt lat="50.6116" lon="3.19532">
        <ele>82.9</ele>
        <time>2021-08-15T08:32:06Z</time>
      </trkpt>
      <trkpt lat="50.61187" lon="3.19533">
        <ele>82.8</ele>
        <time>2021-08-15T08:32:11Z</time>
      </trkpt>
      <trkpt lat="50.61216" lon="3.19532">
        <ele>84.2</ele>
        <time>2021-08-15T08:32:17Z</time>
      </trkpt>
      <trkpt lat="50.61239" lon="3.19537">
        <ele>83.9</ele>
        <time>2021-08-15T08:32:23Z</time>
      </trkpt>
      <trkpt lat="50.6126" lon="3.19542">
        <ele>86.4</ele>
        <time>2021-08-15T08:32:28Z</time>
      </trkpt>
      <trkpt lat="50.61281" lon="3.19541">
        <ele>86.9</ele>
        <time>2021-08-15T08:32:33Z</time>
      </trkpt>
      <trkpt lat="50.61308" lon="3.19538">
        <ele>85.8</ele>
        <time>2021-08-15T08:32:39Z</time>
      </trkpt>
      <trkpt lat="50.61323" lon="3.19541">
        <ele>85</ele>
        <time>2021-08-15T08:32:44Z</time>
      </trkpt>
      <trkpt lat="50.61334" lon="3.19551">
        <ele>84.3</ele>
        <time>2021-08-15T08:32:50Z</time>
      </trkpt>
      <trkpt lat="50.61344" lon="3.19549">
        <ele>82.6</ele>
        <time>2021-08-15T08:32:56Z</time>
      </trkpt>
      <trkpt lat="50.61359" lon="3.19548">
        <ele>86.6</ele>
        <time>2021-08-15T08:33:02Z</time>
      </trkpt>
      <trkpt lat="50.61373" lon="3.19551">
        <ele>86.8</ele>
        <time>2021-08-15T08:33:07Z</time>
      </trkpt>
      <trkpt lat="50.61389" lon="3.19549">
        <ele>88.7</ele>
        <time>2021-08-15T08:33:13Z</time>
      </trkpt>
      <trkpt lat="50.61404" lon="3.19546">
        <ele>90.7</ele>
        <time>2021-08-15T08:33:19Z</time>
      </trkpt>
      <trkpt lat="50.61419" lon="3.19552">
        <ele>89.6</ele>
        <time>2021-08-15T08:33:25Z</time>
      </trkpt>
      <trkpt lat="50.61437" lon="3.19567">
        <ele>88.2</ele>
        <time>2021-08-15T08:33:31Z</time>
      </trkpt>
      <trkpt lat="50.61457" lon="3.1957">
        <ele>82.5</ele>
        <time>2021-08-15T08:33:36Z</time>
      </trkpt>
      <trkpt lat="50.61473" lon="3.19582">
        <ele>82.6</ele>
        <time>2021-08-15T08:33:42Z</time>
      </trkpt>
      <trkpt lat="50.61488" lon="3.19592">
        <ele>81.7</ele>
        <time>2021-08-15T08:33:48Z</time>
      </trkpt>
      <trkpt lat="50.61507" lon="3.19601">
        <ele>85.6</ele>
        <time>2021-08-15T08:33:53Z</time>
      </trkpt>
      <trkpt lat="50.61531" lon="3.19602">
        <ele>86.3</ele>
        <time>2021-08-15T08:33:59Z</time>
      </trkpt>
      <trkpt lat="50.61549" lon="3.19621">
        <ele>83.6</ele>
        <time>2021-08-15T08:34:04Z</time>
      </trkpt>
      <trkpt lat="50.61561" lon="3.19642">
        <ele>81</ele>
        <time>2021-08-15T08:34:09Z</time>
      </trkpt>
      <trkpt lat="50.61577" lon="3.19672">
        <ele>79.1</ele>
        <time>2021-08-15T08:34:15Z</time>
      </trkpt>
      <trkpt lat="50.61586" lon="3.19695">
        <ele>78.9</ele>
        <time>2021-08-15T08:34:20Z</time>
      </trkpt>
      <trkpt lat="50.61596" lon="3.19715">
        <ele>81.5</ele>
        <time>2021-08-15T08:34:25Z</time>
      </trkpt>
      <trkpt lat="50.61606" lon="3.19735">
        <ele>83.8</ele>
        <time>2021-08-15T08:34:31Z</time>
      </trkpt>
      <trkpt lat="50.61611" lon="3.19764">
        <ele>78.2</ele>
        <time>2021-08-15T08:34:37Z</time>
      </trkpt>
      <trkpt lat="50.61626" lon="3.19779">
        <ele>75.9</ele>
        <time>2021-08-15T08:34:43Z</time>
      </trkpt>
      <trkpt lat="50.61641" lon="3.19792">
        <ele>75.9</ele>
        <time>2021-08-15T08:34:48Z</time>
      </trkpt>
      <trkpt lat="50.61663" lon="3.19802">
        <ele>72.5</ele>
        <time>2021-08-15T08:34:54Z</time>
      </trkpt>
      <trkpt lat="50.61683" lon="3.19797">
        <ele>71.3</ele>
        <time>2021-08-15T08:35:00Z</time>
      </trkpt>
      <trkpt lat="50.61698" lon="3.19794">
        <ele>71.1</ele>
        <time>2021-08-15T08:35:05Z</time>
      </trkpt>
      <trkpt lat="50.61714" lon="3.19787">
        <ele>72</ele>
        <time>2021-08-15T08:35:10Z</time>
      </trkpt>
      <trkpt lat="50.61736" lon="3.19776">
        <ele>68.7</ele>
        <time>2021-08-15T08:35:16Z</time>
      </trkpt>
      <trkpt lat="50.61754" lon="3.19778">
        <ele>69.5</ele>
        <time>2021-08-15T08:35:21Z</time>
      </trkpt>
      <trkpt lat="50.6178" lon="3.19791">
        <ele>71.6</ele>
        <time>2021-08-15T08:35:27Z</time>
      </trkpt>
      <trkpt lat="50.61801" lon="3.19784">
        <ele>70</ele>
        <time>2021-08-15T08:35:33Z</time>
      </trkpt>
      <trkpt lat="50.61827" lon="3.19762">
        <ele>70.6</ele>
        <time>2021-08-15T08:35:39Z</time>
      </trkpt>
      <trkpt lat="50.61848" lon="3.1975">
        <ele>69.5</ele>
        <time>2021-08-15T08:35:45Z</time>
      </trkpt>
      <trkpt lat="50.61874" lon="3.19734">
        <ele>74.2</ele>
        <time>2021-08-15T08:35:50Z</time>
      </trkpt>
      <trkpt lat="50.61888" lon="3.19739">
        <ele>76.3</ele>
        <time>2021-08-15T08:35:56Z</time>
      </trkpt>
      <trkpt lat="50.61901" lon="3.19736">
        <ele>77.7</ele>
        <time>2021-08-15T08:36:02Z</time>
      </trkpt>
      <trkpt lat="50.61917" lon="3.19734">
        <ele>75.2</ele>
        <time>2021-08-15T08:36:07Z</time>
      </trkpt>
      <trkpt lat="50.61939" lon="3.19732">
        <ele>73.5</ele>
        <time>2021-08-15T08:36:13Z</time>
      </trkpt>
      <trkpt lat="50.61948" lon="3.19724">
        <ele>73.7</ele>
        <time>2021-08-15T08:36:19Z</time>
      </trkpt>
      <trkpt lat="50.61965" lon="3.19724">
        <ele>77.7</ele>
        <time>2021-08-15T08:36:25Z</time>
      </trkpt>
      <trkpt lat="50.61985" lon="3.19719">
        <ele>82.9</ele>
        <time>2021-08-15T08:36:30Z</time>
      </trkpt>
      <trkpt lat="50.62" lon="3.1972">
        <ele>84.4</ele>
        <time>2021-08-15T08:36:36Z</time>
      </trkpt>
      <trkpt lat="50.62019" lon="3.19717">
        <ele>88</ele>
        <time>2021-08-15T08:36:41Z</time>
      </trkpt>
      <trkpt lat="50.6203" lon="3.19716">
        <ele>90</ele>
        <time>2021-08-15T08:36:47Z</time>
      </trkpt>
      <trkpt lat="50.62053" lon="3.19707">
        <ele>96.2</ele>
        <time>2021-08-15T08:36:53Z</time>
      </trkpt>
      <trkpt lat="50.62073" lon="3.19711">
        <ele>91.2</ele>
        <time>2021-08-15T08:36:59Z</time>
      </trkpt>
      <trkpt lat="50.62084" lon="3.19736">
        <ele>83.6</ele>
        <time>2021-08-15T08:37:05Z</time>
      </trkpt>
      <trkpt lat="50.62095" lon="3.19764">
        <ele>83.7</ele>
        <time>2021-08-15T08:37:11Z</time>
      </trkpt>
      <trkpt lat="50.62101" lon="3.1979">
        <ele>81.2</ele>
        <time>2021-08-15T08:37:16Z</time>
      </trkpt>
      <trkpt lat="50.621" lon="3.19829">
        <ele>77.2</ele>
        <time>2021-08-15T08:37:22Z</time>
      </trkpt>
      <trkpt lat="50.621" lon="3.19862">
        <ele>73.1</ele>
        <time>2021-08-15T08:37:27Z</time>
      </trkpt>
      <trkpt lat="50.62102" lon="3.19918">
        <ele>71.3</ele>
        <time>2021-08-15T08:37:33Z</time>
      </trkpt>
      <trkpt lat="50.62102" lon="3.19957">
        <ele>72.5</ele>
        <time>2021-08-15T08:37:39Z</time>
      </trkpt>
      <trkpt lat="50.62103" lon="3.19993">
        <ele>71.3</ele>
        <time>2021-08-15T08:37:45Z</time>
      </trkpt>
      <trkpt lat="50.62103" lon="3.20034">
        <ele>70.6</ele>
        <time>2021-08-15T08:37:51Z</time>
      </trkpt>
      <trkpt lat="50.62102" lon="3.20067">
        <ele>71.6</ele>
        <time>2021-08-15T08:37:56Z</time>
      </trkpt>
      <trkpt lat="50.621" lon="3.201">
        <ele>71.9</ele>
        <time>2021-08-15T08:38:02Z</time>
      </trkpt>
      <trkpt lat="50.621" lon="3.20132">
        <ele>72.5</ele>
        <time>2021-08-15T08:38:07Z</time>
      </trkpt>
      <trkpt lat="50.62099" lon="3.20166">
        <ele>74.7</ele>
        <time>2021-08-15T08:38:13Z</time>
      </trkpt>
      <trkpt lat="50.62101" lon="3.20208">
        <ele>74.3</ele>
        <time>2021-08-15T08:38:19Z</time>
      </trkpt>
      <trkpt lat="50.62103" lon="3.20254">
        <ele>74.2</ele>
        <time>2021-08-15T08:38:25Z</time>
      </trkpt>
      <trkpt lat="50.62102" lon="3.20295">
        <ele>74.2</ele>
        <time>2021-08-15T08:38:31Z</time>
      </trkpt>
      <trkpt lat="50.62095" lon="3.2032">
        <ele>74.7</ele>
        <time>2021-08-15T08:38:36Z</time>
      </trkpt>
      <trkpt lat="50.62069" lon="3.20312">
        <ele>72.6</ele>
        <time>2021-08-15T08:38:42Z</time>
      </trkpt>
      <trkpt lat="50.6206" lon="3.20332">
        <ele>71.9</ele>
        <time>2021-08-15T08:38:47Z</time>
      </trkpt>
      <trkpt lat="50.62059" lon="3.20366">
        <ele>73.9</ele>
        <time>2021-08-15T08:38:52Z</time>
      </trkpt>
      <trkpt lat="50.62057" lon="3.204">
        <ele>73.2</ele>
        <time>2021-08-15T08:38:57Z</time>
      </trkpt>
      <trkpt lat="50.62055" lon="3.20435">
        <ele>75.8</ele>
        <time>2021-08-15T08:39:03Z</time>
      </trkpt>
      <trkpt lat="50.62054" lon="3.20465">
        <ele>74.6</ele>
        <time>2021-08-15T08:39:08Z</time>
      </trkpt>
      <trkpt lat="50.62055" lon="3.20502">
        <ele>74.8</ele>
        <time>2021-08-15T08:39:14Z</time>
      </trkpt>
      <trkpt lat="50.62057" lon="3.20533">
        <ele>73.4</ele>
        <time>2021-08-15T08:39:19Z</time>
      </trkpt>
      <trkpt lat="50.62056" lon="3.20563">
        <ele>74.9</ele>
        <time>2021-08-15T08:39:24Z</time>
      </trkpt>
      <trkpt lat="50.62055" lon="3.20597">
        <ele>72.9</ele>
        <time>2021-08-15T08:39:30Z</time>
      </trkpt>
      <trkpt lat="50.62052" lon="3.20627">
        <ele>72.8</ele>
        <time>2021-08-15T08:39:36Z</time>
      </trkpt>
      <trkpt lat="50.62051" lon="3.20658">
        <ele>76.2</ele>
        <time>2021-08-15T08:39:42Z</time>
      </trkpt>
      <trkpt lat="50.62056" lon="3.20704">
        <ele>72.9</ele>
        <time>2021-08-15T08:39:47Z</time>
      </trkpt>
      <trkpt lat="50.62059" lon="3.2074">
        <ele>69.5</ele>
        <time>2021-08-15T08:39:52Z</time>
      </trkpt>
      <trkpt lat="50.62058" lon="3.20782">
        <ele>69.9</ele>
        <time>2021-08-15T08:39:57Z</time>
      </trkpt>
      <trkpt lat="50.62059" lon="3.20822">
        <ele>71.8</ele>
        <time>2021-08-15T08:40:03Z</time>
      </trkpt>
      <trkpt lat="50.62058" lon="3.20853">
        <ele>69.8</ele>
        <time>2021-08-15T08:40:08Z</time>
      </trkpt>
      <trkpt lat="50.62059" lon="3.20894">
        <ele>69.5</ele>
        <time>2021-08-15T08:40:14Z</time>
      </trkpt>
      <trkpt lat="50.62055" lon="3.20933">
        <ele>69.7</ele>
        <time>2021-08-15T08:40:20Z</time>
      </trkpt>
      <trkpt lat="50.62052" lon="3.2096">
        <ele>70.5</ele>
        <time>2021-08-15T08:40:25Z</time>
      </trkpt>
      <trkpt lat="50.62051" lon="3.20995">
        <ele>71.3</ele>
        <time>2021-08-15T08:40:31Z</time>
      </trkpt>
      <trkpt lat="50.62055" lon="3.21024">
        <ele>71</ele>
        <time>2021-08-15T08:40:36Z</time>
      </trkpt>
      <trkpt lat="50.62057" lon="3.21044">
        <ele>72.2</ele>
        <time>2021-08-15T08:40:42Z</time>
      </trkpt>
      <trkpt lat="50.62059" lon="3.21073">
        <ele>70.4</ele>
        <time>2021-08-15T08:40:47Z</time>
      </trkpt>
      <trkpt lat="50.62061" lon="3.21105">
        <ele>71.3</ele>
        <time>2021-08-15T08:40:53Z</time>
      </trkpt>
      <trkpt lat="50.62058" lon="3.2113">
        <ele>73.7</ele>
        <time>2021-08-15T08:40:59Z</time>
      </trkpt>
      <trkpt lat="50.62058" lon="3.21161">
        <ele>72</ele>
        <time>2021-08-15T08:41:05Z</time>
      </trkpt>
      <trkpt lat="50.62058" lon="3.21186">
        <ele>71.8</ele>
        <time>2021-08-15T08:41:10Z</time>
      </trkpt>
      <trkpt lat="50.62058" lon="3.21213">
        <ele>71.2</ele>
        <time>2021-08-15T08:41:16Z</time>
      </trkpt>
      <trkpt lat="50.62059" lon="3.21238">
        <ele>72.7</ele>
        <time>2021-08-15T08:41:21Z</time>
      </trkpt>
      <trkpt lat="50.62058" lon="3.21264">
        <ele>72</ele>
        <time>2021-08-15T08:41:26Z</time>
      </trkpt>
      <trkpt lat="50.62058" lon="3.21298">
        <ele>72.3</ele>
        <time>2021-08-15T08:41:31Z</time>
      </trkpt>
      <trkpt lat="50.62058" lon="3.21328">
        <ele>71.2</ele>
        <time>2021-08-15T08:41:36Z</time>
      </trkpt>
      <trkpt lat="50.62056" lon="3.2136">
        <ele>72.4</ele>
        <time>2021-08-15T08:41:42Z</time>
      </trkpt>
      <trkpt lat="50.62055" lon="3.21392">
        <ele>73</ele>
        <time>2021-08-15T08:41:48Z</time>
      </trkpt>
      <trkpt lat="50.62055" lon="3.21422">
        <ele>73.2</ele>
        <time>2021-08-15T08:41:53Z</time>
      </trkpt>
      <trkpt lat="50.62052" lon="3.21444">
        <ele>72.1</ele>
        <time>2021-08-15T08:41:59Z</time>
      </trkpt>
      <trkpt lat="50.6206" lon="3.2145">
        <ele>73.3</ele>
        <time>2021-08-15T08:42:04Z</time>
      </trkpt>
      <trkpt lat="50.6208" lon="3.2146">
        <ele>73.8</ele>
        <time>2021-08-15T08:42:10Z</time>
      </trkpt>
      <trkpt lat="50.62101" lon="3.21473">
        <ele>73.5</ele>
        <time>2021-08-15T08:42:16Z</time>
      </trkpt>
      <trkpt lat="50.62117" lon="3.21482">
        <ele>74</ele>
        <time>2021-08-15T08:42:22Z</time>
      </trkpt>
      <trkpt lat="50.62128" lon="3.21486">
        <ele>76.5</ele>
        <time>2021-08-15T08:42:27Z</time>
      </trkpt>
      <trkpt lat="50.62147" lon="3.21495">
        <ele>84.7</ele>
        <time>2021-08-15T08:42:33Z</time>
      </trkpt>
      <trkpt lat="50.62165" lon="3.21503">
        <ele>89.4</ele>
        <time>2021-08-15T08:42:39Z</time>
      </trkpt>
      <trkpt lat="50.62182" lon="3.21511">
        <ele>97.8</ele>
        <time>2021-08-15T08:42:45Z</time>
      </trkpt>
      <trkpt lat="50.62198" lon="3.2152">
        <ele>100</ele>
        <time>2021-08-15T08:42:50Z</time>
      </trkpt>
      <trkpt lat="50.62211" lon="3.21536">
        <ele>96.6</ele>
        <time>2021-08-15T08:42:56Z</time>
      </trkpt>
      <trkpt lat="50.62209" lon="3.21566">
        <ele>87.7</ele>
        <time>2021-08-15T08:43:01Z</time>
      </trkpt>
      <trkpt lat="50.62207" lon="3.21595">
        <ele>88</ele>
        <time>2021-08-15T08:43:06Z</time>
      </trkpt>
      <trkpt lat="50.62206" lon="3.21606">
        <ele>89.5</ele>
        <time>2021-08-15T08:43:11Z</time>
      </trkpt>
      <trkpt lat="50.62208" lon="3.2162">
        <ele>87.2</ele>
        <time>2021-08-15T08:43:17Z</time>
      </trkpt>
      <trkpt lat="50.62222" lon="3.21634">
        <ele>91.3</ele>
        <time>2021-08-15T08:43:22Z</time>
      </trkpt>
      <trkpt lat="50.62225" lon="3.2166">
        <ele>92.5</ele>
        <time>2021-08-15T08:43:28Z</time>
      </trkpt>
      <trkpt lat="50.62228" lon="3.21683">
        <ele>92</ele>
        <time>2021-08-15T08:43:33Z</time>
      </trkpt>
      <trkpt lat="50.62234" lon="3.21697">
        <ele>90.5</ele>
        <time>2021-08-15T08:43:38Z</time>
      </trkpt>
      <trkpt lat="50.62237" lon="3.21714">
        <ele>89.2</ele>
        <time>2021-08-15T08:43:44Z</time>
      </trkpt>
      <trkpt lat="50.6223" lon="3.2174">
        <ele>84</ele>
        <time>2021-08-15T08:43:50Z</time>
      </trkpt>
      <trkpt lat="50.62216" lon="3.21789">
        <ele>78.5</ele>
        <time>2021-08-15T08:43:55Z</time>
      </trkpt>
      <trkpt lat="50.62211" lon="3.21822">
        <ele>76.8</ele>
        <time>2021-08-15T08:44:01Z</time>
      </trkpt>
      <trkpt lat="50.62215" lon="3.21848">
        <ele>74.7</ele>
        <time>2021-08-15T08:44:07Z</time>
      </trkpt>
      <trkpt lat="50.6221" lon="3.21865">
        <ele>75.4</ele>
        <time>2021-08-15T08:44:13Z</time>
      </trkpt>
      <trkpt lat="50.62202" lon="3.21882">
        <ele>73.2</ele>
        <time>2021-08-15T08:44:18Z</time>
      </trkpt>
      <trkpt lat="50.62193" lon="3.21902">
        <ele>72.4</ele>
        <time>2021-08-15T08:44:24Z</time>
      </trkpt>
      <trkpt lat="50.62188" lon="3.2192">
        <ele>74.4</ele>
        <time>2021-08-15T08:44:30Z</time>
      </trkpt>
      <trkpt lat="50.62186" lon="3.21934">
        <ele>70.8</ele>
        <time>2021-08-15T08:44:36Z</time>
      </trkpt>
      <trkpt lat="50.62196" lon="3.2195">
        <ele>71.1</ele>
        <time>2021-08-15T08:44:41Z</time>
      </trkpt>
      <trkpt lat="50.62209" lon="3.21966">
        <ele>74.4</ele>
        <time>2021-08-15T08:44:47Z</time>
      </trkpt>
      <trkpt lat="50.62219" lon="3.21984">
        <ele>73.6</ele>
        <time>2021-08-15T08:44:52Z</time>
      </trkpt>
      <trkpt lat="50.62237" lon="3.22007">
        <ele>72.4</ele>
        <time>2021-08-15T08:44:57Z</time>
      </trkpt>
      <trkpt lat="50.6226" lon="3.22">
        <ele>75</ele>
        <time>2021-08-15T08:45:03Z</time>
      </trkpt>
      <trkpt lat="50.62279" lon="3.2199">
        <ele>73.2</ele>
        <time>2021-08-15T08:45:08Z</time>
      </trkpt>
      <trkpt lat="50.62287" lon="3.22016">
        <ele>72.5</ele>
        <time>2021-08-15T08:45:14Z</time>
      </trkpt>
      <trkpt lat="50.62287" lon="3.22014">
        <ele>71.6</ele>
        <time>2021-08-15T08:45:19Z</time>
      </trkpt>
      <trkpt lat="50.62287" lon="3.22013">
        <ele>70.8</ele>
        <time>2021-08-15T08:45:25Z</time>
      </trkpt>
      <trkpt lat="50.62281" lon="3.22028">
        <ele>71.6</ele>
        <time>2021-08-15T08:45:31Z</time>
      </trkpt>
      <trkpt lat="50.6227" lon="3.2204">
        <ele>72.1</ele>
        <time>2021-08-15T08:45:37Z</time>
      </trkpt>
      <trkpt lat="50.62266" lon="3.22053">
        <ele>71.3</ele>
        <time>2021-08-15T08:45:43Z</time>
      </trkpt>
      <trkpt lat="50.62259" lon="3.22063">
        <ele>70.6</ele>
        <time>2021-08-15T08:45:48Z</time>
      </trkpt>
      <trkpt lat="50.62257" lon="3.22068">
        <ele>70.1</ele>
        <time>2021-08-15T08:45:54Z</time>
      </trkpt>
      <trkpt lat="50.62257" lon="3.22067">
        <ele>69.7</ele>
        <time>2021-08-15T08:46:00Z</time>
      </trkpt>
      <trkpt lat="50.62258" lon="3.22067">
        <ele>69.7</ele>
        <time>2021-08-15T08:46:05Z</time>
      </trkpt>
      <trkpt lat="50.62258" lon="3.22067">
        <ele>69.2</ele>
        <time>2021-08-15T08:46:10Z</time>
      </trkpt>
      <trkpt lat="50.62258" lon="3.22068">
        <ele>69.3</ele>
        <time>2021-08-15T08:46:16Z</time>
      </trkpt>
      <trkpt lat="50.62258" lon="3.22068">
        <ele>67.7</ele>
        <time>2021-08-15T08:46:22Z</time>
      </trkpt>
      <trkpt lat="50.62257" lon="3.22069">
        <ele>67.1</ele>
        <time>2021-08-15T08:46:27Z</time>
      </trkpt>
      <trkpt lat="50.62257" lon="3.2207">
        <ele>68.2</ele>
        <time>2021-08-15T08:46:33Z</time>
      </trkpt>
      <trkpt lat="50.62258" lon="3.2207">
        <ele>68.5</ele>
        <time>2021-08-15T08:46:39Z</time>
      </trkpt>
      <trkpt lat="50.62258" lon="3.2207">
        <ele>69</ele>
        <time>2021-08-15T08:46:45Z</time>
      </trkpt>
      <trkpt lat="50.62257" lon="3.2207">
        <ele>69</ele>
        <time>2021-08-15T08:46:50Z</time>
      </trkpt>
      <trkpt lat="50.62257" lon="3.22068">
        <ele>68.3</ele>
        <time>2021-08-15T08:46:56Z</time>
      </trkpt>
      <trkpt lat="50.62256" lon="3.22067">
        <ele>69.2</ele>
        <time>2021-08-15T08:47:02Z</time>
      </trkpt>
      <trkpt lat="50.62256" lon="3.22068">
        <ele>70.1</ele>
        <time>2021-08-15T08:47:07Z</time>
      </trkpt>
      <trkpt lat="50.62256" lon="3.22068">
        <ele>70.7</ele>
        <time>2021-08-15T08:47:13Z</time>
      </trkpt>
      <trkpt lat="50.62256" lon="3.22068">
        <ele>71</ele>
        <time>2021-08-15T08:47:18Z</time>
      </trkpt>
      <trkpt lat="50.62256" lon="3.22068">
        <ele>71</ele>
        <time>2021-08-15T08:47:23Z</time>
      </trkpt>
      <trkpt lat="50.62256" lon="3.22068">
        <ele>70.4</ele>
        <time>2021-08-15T08:47:28Z</time>
      </trkpt>
      <trkpt lat="50.62256" lon="3.22068">
        <ele>70.8</ele>
        <time>2021-08-15T08:47:34Z</time>
      </trkpt>
      <trkpt lat="50.62256" lon="3.22068">
        <ele>70.3</ele>
        <time>2021-08-15T08:47:40Z</time>
      </trkpt>
      <trkpt lat="50.62256" lon="3.22068">
        <ele>71.2</ele>
        <time>2021-08-15T08:47:46Z</time>
      </trkpt>
      <trkpt lat="50.62258" lon="3.22068">
        <ele>72.1</ele>
        <time>2021-08-15T08:47:51Z</time>
      </trkpt>
      <trkpt lat="50.62265" lon="3.22061">
        <ele>71.6</ele>
        <time>2021-08-15T08:47:57Z</time>
      </trkpt>
      <trkpt lat="50.62275" lon="3.22053">
        <ele>74.4</ele>
        <time>2021-08-15T08:48:03Z</time>
      </trkpt>
      <trkpt lat="50.62282" lon="3.22058">
        <ele>76.8</ele>
        <time>2021-08-15T08:48:09Z</time>
      </trkpt>
      <trkpt lat="50.62279" lon="3.22076">
        <ele>74.7</ele>
        <time>2021-08-15T08:48:14Z</time>
      </trkpt>
      <trkpt lat="50.62277" lon="3.22094">
        <ele>76.4</ele>
        <time>2021-08-15T08:48:19Z</time>
      </trkpt>
      <trkpt lat="50.62271" lon="3.22114">
        <ele>75.6</ele>
        <time>2021-08-15T08:48:25Z</time>
      </trkpt>
      <trkpt lat="50.62259" lon="3.22142">
        <ele>75.3</ele>
        <time>2021-08-15T08:48:31Z</time>
      </trkpt>
      <trkpt lat="50.62252" lon="3.22156">
        <ele>74.6</ele>
        <time>2021-08-15T08:48:36Z</time>
      </trkpt>
      <trkpt lat="50.62239" lon="3.22162">
        <ele>72.1</ele>
        <time>2021-08-15T08:48:41Z</time>
      </trkpt>
      <trkpt lat="50.62217" lon="3.22147">
        <ele>70.9</ele>
        <time>2021-08-15T08:48:47Z</time>
      </trkpt>
      <trkpt lat="50.62206" lon="3.22132">
        <ele>72.7</ele>
        <time>2021-08-15T08:48:52Z</time>
      </trkpt>
      <trkpt lat="50.62193" lon="3.22108">
        <ele>75.8</ele>
        <time>2021-08-15T08:48:58Z</time>
      </trkpt>
      <trkpt lat="50.62181" lon="3.22083">
        <ele>76.2</ele>
        <time>2021-08-15T08:49:03Z</time>
      </trkpt>
      <trkpt lat="50.62173" lon="3.22085">
        <ele>70.2</ele>
        <time>2021-08-15T08:49:09Z</time>
      </trkpt>
      <trkpt lat="50.6216" lon="3.22108">
        <ele>64.9</ele>
        <time>2021-08-15T08:49:15Z</time>
      </trkpt>
      <trkpt lat="50.62149" lon="3.22135">
        <ele>64.7</ele>
        <time>2021-08-15T08:49:20Z</time>
      </trkpt>
      <trkpt lat="50.62137" lon="3.22158">
        <ele>66.5</ele>
        <time>2021-08-15T08:49:25Z</time>
      </trkpt>
      <trkpt lat="50.62117" lon="3.22188">
        <ele>68.7</ele>
        <time>2021-08-15T08:49:31Z</time>
      </trkpt>
      <trkpt lat="50.62103" lon="3.22225">
        <ele>66.5</ele>
        <time>2021-08-15T08:49:37Z</time>
      </trkpt>
      <trkpt lat="50.62093" lon="3.22262">
        <ele>64.2</ele>
        <time>2021-08-15T08:49:43Z</time>
      </trkpt>
      <trkpt lat="50.62085" lon="3.22292">
        <ele>64.5</ele>
        <time>2021-08-15T08:49:48Z</time>
      </trkpt>
      <trkpt lat="50.62076" lon="3.22323">
        <ele>65.4</ele>
        <time>2021-08-15T08:49:53Z</time>
      </trkpt>
      <trkpt lat="50.62066" lon="3.22352">
        <ele>67</ele>
        <time>2021-08-15T08:49:59Z</time>
      </trkpt>
      <trkpt lat="50.62058" lon="3.22379">
        <ele>66.6</ele>
        <time>2021-08-15T08:50:04Z</time>
      </trkpt>
      <trkpt lat="50.62048" lon="3.22409">
        <ele>70</ele>
        <time>2021-08-15T08:50:10Z</time>
      </trkpt>
      <trkpt lat="50.62041" lon="3.22429">
        <ele>69.9</ele>
        <time>2021-08-15T08:50:15Z</time>
      </trkpt>
      <trkpt lat="50.62034" lon="3.22449">
        <ele>70.5</ele>
        <time>2021-08-15T08:50:20Z</time>
      </trkpt>
      <trkpt lat="50.62026" lon="3.22477">
        <ele>69</ele>
        <time>2021-08-15T08:50:26Z</time>
      </trkpt>
      <trkpt lat="50.62016" lon="3.22503">
        <ele>68.1</ele>
        <time>2021-08-15T08:50:32Z</time>
      </trkpt>
      <trkpt lat="50.62005" lon="3.22532">
        <ele>68.9</ele>
        <time>2021-08-15T08:50:38Z</time>
      </trkpt>
      <trkpt lat="50.61998" lon="3.22551">
        <ele>69</ele>
        <time>2021-08-15T08:50:43Z</time>
      </trkpt>
      <trkpt lat="50.61988" lon="3.22583">
        <ele>69.4</ele>
        <time>2021-08-15T08:50:49Z</time>
      </trkpt>
      <trkpt lat="50.61981" lon="3.22607">
        <ele>70</ele>
        <time>2021-08-15T08:50:54Z</time>
      </trkpt>
      <trkpt lat="50.61971" lon="3.22636">
        <ele>70.5</ele>
        <time>2021-08-15T08:51:00Z</time>
      </trkpt>
      <trkpt lat="50.61959" lon="3.22664">
        <ele>68.8</ele>
        <time>2021-08-15T08:51:06Z</time>
      </trkpt>
      <trkpt lat="50.61948" lon="3.22692">
        <ele>68.7</ele>
        <time>2021-08-15T08:51:11Z</time>
      </trkpt>
      <trkpt lat="50.61937" lon="3.22721">
        <ele>68</ele>
        <time>2021-08-15T08:51:17Z</time>
      </trkpt>
      <trkpt lat="50.61927" lon="3.22755">
        <ele>68.6</ele>
        <time>2021-08-15T08:51:23Z</time>
      </trkpt>
      <trkpt lat="50.61919" lon="3.22787">
        <ele>69.5</ele>
        <time>2021-08-15T08:51:29Z</time>
      </trkpt>
      <trkpt lat="50.61909" lon="3.22815">
        <ele>70.2</ele>
        <time>2021-08-15T08:51:35Z</time>
      </trkpt>
      <trkpt lat="50.61901" lon="3.2284">
        <ele>69.7</ele>
        <time>2021-08-15T08:51:40Z</time>
      </trkpt>
      <trkpt lat="50.61895" lon="3.22867">
        <ele>70.1</ele>
        <time>2021-08-15T08:51:45Z</time>
      </trkpt>
      <trkpt lat="50.61894" lon="3.22897">
        <ele>70.6</ele>
        <time>2021-08-15T08:51:50Z</time>
      </trkpt>
      <trkpt lat="50.61894" lon="3.22925">
        <ele>70.1</ele>
        <time>2021-08-15T08:51:55Z</time>
      </trkpt>
      <trkpt lat="50.61892" lon="3.2296">
        <ele>70.3</ele>
        <time>2021-08-15T08:52:01Z</time>
      </trkpt>
      <trkpt lat="50.6189" lon="3.2299">
        <ele>70.7</ele>
        <time>2021-08-15T08:52:06Z</time>
      </trkpt>
      <trkpt lat="50.61903" lon="3.2302">
        <ele>71.1</ele>
        <time>2021-08-15T08:52:12Z</time>
      </trkpt>
      <trkpt lat="50.61922" lon="3.23039">
        <ele>71.8</ele>
        <time>2021-08-15T08:52:18Z</time>
      </trkpt>
      <trkpt lat="50.61936" lon="3.23058">
        <ele>72.8</ele>
        <time>2021-08-15T08:52:24Z</time>
      </trkpt>
      <trkpt lat="50.61946" lon="3.23075">
        <ele>73.6</ele>
        <time>2021-08-15T08:52:30Z</time>
      </trkpt>
      <trkpt lat="50.6196" lon="3.23096">
        <ele>75.6</ele>
        <time>2021-08-15T08:52:36Z</time>
      </trkpt>
      <trkpt lat="50.61973" lon="3.23112">
        <ele>79.4</ele>
        <time>2021-08-15T08:52:42Z</time>
      </trkpt>
      <trkpt lat="50.61965" lon="3.23134">
        <ele>80.4</ele>
        <time>2021-08-15T08:52:47Z</time>
      </trkpt>
      <trkpt lat="50.61958" lon="3.23164">
        <ele>78.3</ele>
        <time>2021-08-15T08:52:52Z</time>
      </trkpt>
      <trkpt lat="50.61953" lon="3.23201">
        <ele>76.2</ele>
        <time>2021-08-15T08:52:57Z</time>
      </trkpt>
      <trkpt lat="50.61946" lon="3.2324">
        <ele>74.2</ele>
        <time>2021-08-15T08:53:03Z</time>
      </trkpt>
      <trkpt lat="50.61941" lon="3.2326">
        <ele>76.1</ele>
        <time>2021-08-15T08:53:09Z</time>
      </trkpt>
      <trkpt lat="50.61937" lon="3.23283">
        <ele>74.4</ele>
        <time>2021-08-15T08:53:14Z</time>
      </trkpt>
      <trkpt lat="50.61934" lon="3.23316">
        <ele>76.5</ele>
        <time>2021-08-15T08:53:19Z</time>
      </trkpt>
      <trkpt lat="50.61929" lon="3.23349">
        <ele>73.1</ele>
        <time>2021-08-15T08:53:25Z</time>
      </trkpt>
      <trkpt lat="50.61916" lon="3.23366">
        <ele>74.8</ele>
        <time>2021-08-15T08:53:30Z</time>
      </trkpt>
      <trkpt lat="50.61912" lon="3.23401">
        <ele>74.8</ele>
        <time>2021-08-15T08:53:36Z</time>
      </trkpt>
      <trkpt lat="50.61912" lon="3.2343">
        <ele>76.7</ele>
        <time>2021-08-15T08:53:42Z</time>
      </trkpt>
      <trkpt lat="50.6191" lon="3.23451">
        <ele>82.1</ele>
        <time>2021-08-15T08:53:47Z</time>
      </trkpt>
      <trkpt lat="50.61911" lon="3.23456">
        <ele>79.4</ele>
        <time>2021-08-15T08:53:52Z</time>
      </trkpt>
      <trkpt lat="50.61908" lon="3.23466">
        <ele>82.6</ele>
        <time>2021-08-15T08:53:58Z</time>
      </trkpt>
      <trkpt lat="50.61901" lon="3.23506">
        <ele>82.9</ele>
        <time>2021-08-15T08:54:04Z</time>
      </trkpt>
      <trkpt lat="50.61902" lon="3.23543">
        <ele>80.4</ele>
        <time>2021-08-15T08:54:09Z</time>
      </trkpt>
      <trkpt lat="50.61902" lon="3.23581">
        <ele>77.6</ele>
        <time>2021-08-15T08:54:14Z</time>
      </trkpt>
      <trkpt lat="50.619" lon="3.23618">
        <ele>75.4</ele>
        <time>2021-08-15T08:54:19Z</time>
      </trkpt>
      <trkpt lat="50.61902" lon="3.23654">
        <ele>75.6</ele>
        <time>2021-08-15T08:54:25Z</time>
      </trkpt>
      <trkpt lat="50.619" lon="3.2369">
        <ele>76</ele>
        <time>2021-08-15T08:54:31Z</time>
      </trkpt>
      <trkpt lat="50.619" lon="3.23721">
        <ele>76.7</ele>
        <time>2021-08-15T08:54:36Z</time>
      </trkpt>
      <trkpt lat="50.61903" lon="3.23746">
        <ele>80.9</ele>
        <time>2021-08-15T08:54:42Z</time>
      </trkpt>
      <trkpt lat="50.61902" lon="3.2377">
        <ele>82.5</ele>
        <time>2021-08-15T08:54:47Z</time>
      </trkpt>
      <trkpt lat="50.619" lon="3.23797">
        <ele>83.6</ele>
        <time>2021-08-15T08:54:52Z</time>
      </trkpt>
      <trkpt lat="50.61896" lon="3.2383">
        <ele>83</ele>
        <time>2021-08-15T08:54:57Z</time>
      </trkpt>
      <trkpt lat="50.61896" lon="3.23865">
        <ele>82.4</ele>
        <time>2021-08-15T08:55:03Z</time>
      </trkpt>
      <trkpt lat="50.61893" lon="3.23903">
        <ele>81.2</ele>
        <time>2021-08-15T08:55:10Z</time>
      </trkpt>
      <trkpt lat="50.61891" lon="3.23934">
        <ele>79.8</ele>
        <time>2021-08-15T08:55:15Z</time>
      </trkpt>
      <trkpt lat="50.6189" lon="3.23971">
        <ele>78.2</ele>
        <time>2021-08-15T08:55:21Z</time>
      </trkpt>
      <trkpt lat="50.6189" lon="3.24002">
        <ele>78.6</ele>
        <time>2021-08-15T08:55:26Z</time>
      </trkpt>
      <trkpt lat="50.61891" lon="3.24028">
        <ele>81</ele>
        <time>2021-08-15T08:55:31Z</time>
      </trkpt>
      <trkpt lat="50.61888" lon="3.24052">
        <ele>79.9</ele>
        <time>2021-08-15T08:55:37Z</time>
      </trkpt>
      <trkpt lat="50.61886" lon="3.24081">
        <ele>78.1</ele>
        <time>2021-08-15T08:55:42Z</time>
      </trkpt>
      <trkpt lat="50.61889" lon="3.24119">
        <ele>77.7</ele>
        <time>2021-08-15T08:55:48Z</time>
      </trkpt>
      <trkpt lat="50.61896" lon="3.24147">
        <ele>77.1</ele>
        <time>2021-08-15T08:55:53Z</time>
      </trkpt>
      <trkpt lat="50.61905" lon="3.24178">
        <ele>77.1</ele>
        <time>2021-08-15T08:55:59Z</time>
      </trkpt>
      <trkpt lat="50.61913" lon="3.24206">
        <ele>77</ele>
        <time>2021-08-15T08:56:04Z</time>
      </trkpt>
      <trkpt lat="50.6193" lon="3.24224">
        <ele>75.9</ele>
        <time>2021-08-15T08:56:09Z</time>
      </trkpt>
      <trkpt lat="50.61951" lon="3.24237">
        <ele>75.4</ele>
        <time>2021-08-15T08:56:15Z</time>
      </trkpt>
      <trkpt lat="50.6197" lon="3.24246">
        <ele>75.2</ele>
        <time>2021-08-15T08:56:20Z</time>
      </trkpt>
      <trkpt lat="50.61994" lon="3.24257">
        <ele>74</ele>
        <time>2021-08-15T08:56:26Z</time>
      </trkpt>
      <trkpt lat="50.62015" lon="3.24271">
        <ele>74</ele>
        <time>2021-08-15T08:56:32Z</time>
      </trkpt>
      <trkpt lat="50.62034" lon="3.2428">
        <ele>74.2</ele>
        <time>2021-08-15T08:56:37Z</time>
      </trkpt>
      <trkpt lat="50.62055" lon="3.24296">
        <ele>73.6</ele>
        <time>2021-08-15T08:56:43Z</time>
      </trkpt>
      <trkpt lat="50.62073" lon="3.24316">
        <ele>74.5</ele>
        <time>2021-08-15T08:56:49Z</time>
      </trkpt>
      <trkpt lat="50.62087" lon="3.2433">
        <ele>74.4</ele>
        <time>2021-08-15T08:56:54Z</time>
      </trkpt>
      <trkpt lat="50.62102" lon="3.24347">
        <ele>74.5</ele>
        <time>2021-08-15T08:56:59Z</time>
      </trkpt>
      <trkpt lat="50.62121" lon="3.2437">
        <ele>74</ele>
        <time>2021-08-15T08:57:05Z</time>
      </trkpt>
      <trkpt lat="50.62134" lon="3.24394">
        <ele>73.6</ele>
        <time>2021-08-15T08:57:10Z</time>
      </trkpt>
      <trkpt lat="50.62134" lon="3.2443">
        <ele>73.7</ele>
        <time>2021-08-15T08:57:16Z</time>
      </trkpt>
      <trkpt lat="50.62132" lon="3.24467">
        <ele>73.5</ele>
        <time>2021-08-15T08:57:22Z</time>
      </trkpt>
      <trkpt lat="50.62133" lon="3.24495">
        <ele>73.6</ele>
        <time>2021-08-15T08:57:27Z</time>
      </trkpt>
      <trkpt lat="50.62128" lon="3.24527">
        <ele>72.8</ele>
        <time>2021-08-15T08:57:33Z</time>
      </trkpt>
      <trkpt lat="50.62121" lon="3.24563">
        <ele>71.4</ele>
        <time>2021-08-15T08:57:39Z</time>
      </trkpt>
      <trkpt lat="50.62113" lon="3.24591">
        <ele>73</ele>
        <time>2021-08-15T08:57:44Z</time>
      </trkpt>
      <trkpt lat="50.621" lon="3.24626">
        <ele>70.8</ele>
        <time>2021-08-15T08:57:50Z</time>
      </trkpt>
      <trkpt lat="50.62091" lon="3.24657">
        <ele>70.8</ele>
        <time>2021-08-15T08:57:55Z</time>
      </trkpt>
      <trkpt lat="50.62092" lon="3.24691">
        <ele>72.9</ele>
        <time>2021-08-15T08:58:01Z</time>
      </trkpt>
      <trkpt lat="50.6211" lon="3.24705">
        <ele>76.9</ele>
        <time>2021-08-15T08:58:06Z</time>
      </trkpt>
      <trkpt lat="50.62124" lon="3.24735">
        <ele>78.3</ele>
        <time>2021-08-15T08:58:12Z</time>
      </trkpt>
      <trkpt lat="50.6214" lon="3.2477">
        <ele>78.2</ele>
        <time>2021-08-15T08:58:18Z</time>
      </trkpt>
      <trkpt lat="50.62158" lon="3.24786">
        <ele>77</ele>
        <time>2021-08-15T08:58:23Z</time>
      </trkpt>
      <trkpt lat="50.62181" lon="3.248">
        <ele>74.4</ele>
        <time>2021-08-15T08:58:28Z</time>
      </trkpt>
      <trkpt lat="50.622" lon="3.2482">
        <ele>76.4</ele>
        <time>2021-08-15T08:58:34Z</time>
      </trkpt>
      <trkpt lat="50.6221" lon="3.24844">
        <ele>78.4</ele>
        <time>2021-08-15T08:58:39Z</time>
      </trkpt>
      <trkpt lat="50.62226" lon="3.24874">
        <ele>78.2</ele>
        <time>2021-08-15T08:58:45Z</time>
      </trkpt>
      <trkpt lat="50.62239" lon="3.24899">
        <ele>78.1</ele>
        <time>2021-08-15T08:58:50Z</time>
      </trkpt>
      <trkpt lat="50.62244" lon="3.24929">
        <ele>79.7</ele>
        <time>2021-08-15T08:58:56Z</time>
      </trkpt>
      <trkpt lat="50.62242" lon="3.24953">
        <ele>80</ele>
        <time>2021-08-15T08:59:02Z</time>
      </trkpt>
      <trkpt lat="50.62242" lon="3.24984">
        <ele>80.5</ele>
        <time>2021-08-15T08:59:07Z</time>
      </trkpt>
      <trkpt lat="50.6224" lon="3.25027">
        <ele>75.1</ele>
        <time>2021-08-15T08:59:13Z</time>
      </trkpt>
      <trkpt lat="50.62244" lon="3.25063">
        <ele>75.1</ele>
        <time>2021-08-15T08:59:18Z</time>
      </trkpt>
      <trkpt lat="50.62256" lon="3.251">
        <ele>75.1</ele>
        <time>2021-08-15T08:59:23Z</time>
      </trkpt>
      <trkpt lat="50.62267" lon="3.25134">
        <ele>75.3</ele>
        <time>2021-08-15T08:59:29Z</time>
      </trkpt>
      <trkpt lat="50.62278" lon="3.25167">
        <ele>73.1</ele>
        <time>2021-08-15T08:59:34Z</time>
      </trkpt>
      <trkpt lat="50.62289" lon="3.25212">
        <ele>72.6</ele>
        <time>2021-08-15T08:59:40Z</time>
      </trkpt>
      <trkpt lat="50.623" lon="3.25243">
        <ele>73.4</ele>
        <time>2021-08-15T08:59:45Z</time>
      </trkpt>
      <trkpt lat="50.62317" lon="3.25273">
        <ele>73.1</ele>
        <time>2021-08-15T08:59:51Z</time>
      </trkpt>
      <trkpt lat="50.62333" lon="3.25304">
        <ele>71.8</ele>
        <time>2021-08-15T08:59:57Z</time>
      </trkpt>
      <trkpt lat="50.6234" lon="3.25334">
        <ele>71.2</ele>
        <time>2021-08-15T09:00:02Z</time>
      </trkpt>
      <trkpt lat="50.62327" lon="3.25364">
        <ele>72.3</ele>
        <time>2021-08-15T09:00:07Z</time>
      </trkpt>
      <trkpt lat="50.62312" lon="3.25382">
        <ele>73.3</ele>
        <time>2021-08-15T09:00:13Z</time>
      </trkpt>
      <trkpt lat="50.62302" lon="3.25412">
        <ele>74.2</ele>
        <time>2021-08-15T09:00:19Z</time>
      </trkpt>
      <trkpt lat="50.62295" lon="3.2544">
        <ele>74.5</ele>
        <time>2021-08-15T09:00:24Z</time>
      </trkpt>
      <trkpt lat="50.62289" lon="3.25472">
        <ele>73.7</ele>
        <time>2021-08-15T09:00:30Z</time>
      </trkpt>
      <trkpt lat="50.62281" lon="3.25502">
        <ele>74.4</ele>
        <time>2021-08-15T09:00:35Z</time>
      </trkpt>
      <trkpt lat="50.62272" lon="3.25527">
        <ele>73.3</ele>
        <time>2021-08-15T09:00:41Z</time>
      </trkpt>
      <trkpt lat="50.62251" lon="3.25518">
        <ele>74</ele>
        <time>2021-08-15T09:00:46Z</time>
      </trkpt>
      <trkpt lat="50.62234" lon="3.25516">
        <ele>74.8</ele>
        <time>2021-08-15T09:00:51Z</time>
      </trkpt>
      <trkpt lat="50.62216" lon="3.25506">
        <ele>75</ele>
        <time>2021-08-15T09:00:57Z</time>
      </trkpt>
      <trkpt lat="50.62197" lon="3.25503">
        <ele>74.8</ele>
        <time>2021-08-15T09:01:02Z</time>
      </trkpt>
      <trkpt lat="50.62176" lon="3.25497">
        <ele>75</ele>
        <time>2021-08-15T09:01:08Z</time>
      </trkpt>
      <trkpt lat="50.62156" lon="3.25487">
        <ele>76.1</ele>
        <time>2021-08-15T09:01:14Z</time>
      </trkpt>
      <trkpt lat="50.62138" lon="3.25479">
        <ele>76</ele>
        <time>2021-08-15T09:01:19Z</time>
      </trkpt>
      <trkpt lat="50.62117" lon="3.25462">
        <ele>76.5</ele>
        <time>2021-08-15T09:01:25Z</time>
      </trkpt>
      <trkpt lat="50.62095" lon="3.25443">
        <ele>76.6</ele>
        <time>2021-08-15T09:01:31Z</time>
      </trkpt>
      <trkpt lat="50.62078" lon="3.25427">
        <ele>76.8</ele>
        <time>2021-08-15T09:01:36Z</time>
      </trkpt>
      <trkpt lat="50.6206" lon="3.25415">
        <ele>77.5</ele>
        <time>2021-08-15T09:01:41Z</time>
      </trkpt>
      <trkpt lat="50.62043" lon="3.254">
        <ele>77.7</ele>
        <time>2021-08-15T09:01:47Z</time>
      </trkpt>
      <trkpt lat="50.62025" lon="3.25381">
        <ele>77.6</ele>
        <time>2021-08-15T09:01:53Z</time>
      </trkpt>
      <trkpt lat="50.62007" lon="3.25365">
        <ele>77.6</ele>
        <time>2021-08-15T09:01:58Z</time>
      </trkpt>
      <trkpt lat="50.61986" lon="3.2535">
        <ele>77.3</ele>
        <time>2021-08-15T09:02:04Z</time>
      </trkpt>
      <trkpt lat="50.61973" lon="3.25337">
        <ele>77.8</ele>
        <time>2021-08-15T09:02:09Z</time>
      </trkpt>
      <trkpt lat="50.61958" lon="3.25322">
        <ele>78</ele>
        <time>2021-08-15T09:02:15Z</time>
      </trkpt>
      <trkpt lat="50.6194" lon="3.25302">
        <ele>78.3</ele>
        <time>2021-08-15T09:02:21Z</time>
      </trkpt>
      <trkpt lat="50.61922" lon="3.25289">
        <ele>78.8</ele>
        <time>2021-08-15T09:02:27Z</time>
      </trkpt>
      <trkpt lat="50.619" lon="3.25273">
        <ele>78.7</ele>
        <time>2021-08-15T09:02:33Z</time>
      </trkpt>
      <trkpt lat="50.61886" lon="3.25259">
        <ele>79.6</ele>
        <time>2021-08-15T09:02:38Z</time>
      </trkpt>
      <trkpt lat="50.61866" lon="3.25244">
        <ele>79.7</ele>
        <time>2021-08-15T09:02:44Z</time>
      </trkpt>
      <trkpt lat="50.61848" lon="3.25229">
        <ele>79.6</ele>
        <time>2021-08-15T09:02:49Z</time>
      </trkpt>
      <trkpt lat="50.6183" lon="3.25221">
        <ele>80</ele>
        <time>2021-08-15T09:02:55Z</time>
      </trkpt>
      <trkpt lat="50.61816" lon="3.25213">
        <ele>80.8</ele>
        <time>2021-08-15T09:03:00Z</time>
      </trkpt>
      <trkpt lat="50.61799" lon="3.25199">
        <ele>82</ele>
        <time>2021-08-15T09:03:06Z</time>
      </trkpt>
      <trkpt lat="50.61785" lon="3.25196">
        <ele>83</ele>
        <time>2021-08-15T09:03:12Z</time>
      </trkpt>
      <trkpt lat="50.61787" lon="3.25225">
        <ele>81.7</ele>
        <time>2021-08-15T09:03:17Z</time>
      </trkpt>
      <trkpt lat="50.61783" lon="3.25255">
        <ele>80.8</ele>
        <time>2021-08-15T09:03:22Z</time>
      </trkpt>
      <trkpt lat="50.61781" lon="3.25279">
        <ele>80.3</ele>
        <time>2021-08-15T09:03:27Z</time>
      </trkpt>
      <trkpt lat="50.61783" lon="3.25303">
        <ele>81.1</ele>
        <time>2021-08-15T09:03:32Z</time>
      </trkpt>
      <trkpt lat="50.6178" lon="3.25334">
        <ele>80.5</ele>
        <time>2021-08-15T09:03:38Z</time>
      </trkpt>
      <trkpt lat="50.61779" lon="3.25372">
        <ele>80.3</ele>
        <time>2021-08-15T09:03:44Z</time>
      </trkpt>
      <trkpt lat="50.61777" lon="3.25404">
        <ele>78.6</ele>
        <time>2021-08-15T09:03:50Z</time>
      </trkpt>
      <trkpt lat="50.61775" lon="3.25444">
        <ele>77.9</ele>
        <time>2021-08-15T09:03:56Z</time>
      </trkpt>
      <trkpt lat="50.61774" lon="3.25481">
        <ele>77.3</ele>
        <time>2021-08-15T09:04:02Z</time>
      </trkpt>
      <trkpt lat="50.61773" lon="3.2552">
        <ele>77.2</ele>
        <time>2021-08-15T09:04:08Z</time>
      </trkpt>
      <trkpt lat="50.6177" lon="3.25551">
        <ele>76.1</ele>
        <time>2021-08-15T09:04:13Z</time>
      </trkpt>
      <trkpt lat="50.6177" lon="3.25579">
        <ele>75.7</ele>
        <time>2021-08-15T09:04:18Z</time>
      </trkpt>
      <trkpt lat="50.61769" lon="3.2561">
        <ele>74.7</ele>
        <time>2021-08-15T09:04:23Z</time>
      </trkpt>
      <trkpt lat="50.61765" lon="3.25645">
        <ele>75.2</ele>
        <time>2021-08-15T09:04:29Z</time>
      </trkpt>
      <trkpt lat="50.61751" lon="3.25669">
        <ele>76</ele>
        <time>2021-08-15T09:04:35Z</time>
      </trkpt>
      <trkpt lat="50.61731" lon="3.25657">
        <ele>76.1</ele>
        <time>2021-08-15T09:04:41Z</time>
      </trkpt>
      <trkpt lat="50.61713" lon="3.25644">
        <ele>75.7</ele>
        <time>2021-08-15T09:04:46Z</time>
      </trkpt>
      <trkpt lat="50.61695" lon="3.25634">
        <ele>76</ele>
        <time>2021-08-15T09:04:51Z</time>
      </trkpt>
      <trkpt lat="50.61674" lon="3.25623">
        <ele>75</ele>
        <time>2021-08-15T09:04:57Z</time>
      </trkpt>
      <trkpt lat="50.61657" lon="3.25614">
        <ele>75.9</ele>
        <time>2021-08-15T09:05:02Z</time>
      </trkpt>
      <trkpt lat="50.6164" lon="3.25606">
        <ele>76.5</ele>
        <time>2021-08-15T09:05:07Z</time>
      </trkpt>
      <trkpt lat="50.61626" lon="3.25598">
        <ele>76.1</ele>
        <time>2021-08-15T09:05:13Z</time>
      </trkpt>
      <trkpt lat="50.61609" lon="3.2559">
        <ele>76.2</ele>
        <time>2021-08-15T09:05:18Z</time>
      </trkpt>
      <trkpt lat="50.61593" lon="3.25583">
        <ele>76.5</ele>
        <time>2021-08-15T09:05:23Z</time>
      </trkpt>
      <trkpt lat="50.61574" lon="3.25578">
        <ele>77.2</ele>
        <time>2021-08-15T09:05:29Z</time>
      </trkpt>
      <trkpt lat="50.61555" lon="3.25573">
        <ele>77.4</ele>
        <time>2021-08-15T09:05:34Z</time>
      </trkpt>
      <trkpt lat="50.61536" lon="3.25568">
        <ele>77.7</ele>
        <time>2021-08-15T09:05:40Z</time>
      </trkpt>
      <trkpt lat="50.61522" lon="3.25556">
        <ele>78.6</ele>
        <time>2021-08-15T09:05:45Z</time>
      </trkpt>
      <trkpt lat="50.61505" lon="3.25547">
        <ele>79</ele>
        <time>2021-08-15T09:05:51Z</time>
      </trkpt>
      <trkpt lat="50.61494" lon="3.2557">
        <ele>79.9</ele>
        <time>2021-08-15T09:05:56Z</time>
      </trkpt>
      <trkpt lat="50.61482" lon="3.25601">
        <ele>83.6</ele>
        <time>2021-08-15T09:06:02Z</time>
      </trkpt>
      <trkpt lat="50.61479" lon="3.25625">
        <ele>88.5</ele>
        <time>2021-08-15T09:06:08Z</time>
      </trkpt>
      <trkpt lat="50.61476" lon="3.25651">
        <ele>90.9</ele>
        <time>2021-08-15T09:06:14Z</time>
      </trkpt>
      <trkpt lat="50.61468" lon="3.25675">
        <ele>91.8</ele>
        <time>2021-08-15T09:06:19Z</time>
      </trkpt>
      <trkpt lat="50.61457" lon="3.25705">
        <ele>88.3</ele>
        <time>2021-08-15T09:06:25Z</time>
      </trkpt>
      <trkpt lat="50.61445" lon="3.25724">
        <ele>88.5</ele>
        <time>2021-08-15T09:06:31Z</time>
      </trkpt>
      <trkpt lat="50.61428" lon="3.25719">
        <ele>85.9</ele>
        <time>2021-08-15T09:06:36Z</time>
      </trkpt>
      <trkpt lat="50.61408" lon="3.25721">
        <ele>86</ele>
        <time>2021-08-15T09:06:42Z</time>
      </trkpt>
      <trkpt lat="50.61398" lon="3.25748">
        <ele>84.4</ele>
        <time>2021-08-15T09:06:48Z</time>
      </trkpt>
      <trkpt lat="50.61392" lon="3.25765">
        <ele>88.8</ele>
        <time>2021-08-15T09:06:53Z</time>
      </trkpt>
      <trkpt lat="50.61386" lon="3.25772">
        <ele>94.2</ele>
        <time>2021-08-15T09:06:59Z</time>
      </trkpt>
      <trkpt lat="50.61371" lon="3.25783">
        <ele>87.5</ele>
        <time>2021-08-15T09:07:04Z</time>
      </trkpt>
      <trkpt lat="50.61357" lon="3.25779">
        <ele>88.4</ele>
        <time>2021-08-15T09:07:09Z</time>
      </trkpt>
      <trkpt lat="50.61339" lon="3.25768">
        <ele>89.6</ele>
        <time>2021-08-15T09:07:15Z</time>
      </trkpt>
      <trkpt lat="50.61326" lon="3.25746">
        <ele>90.8</ele>
        <time>2021-08-15T09:07:21Z</time>
      </trkpt>
      <trkpt lat="50.61308" lon="3.25728">
        <ele>94.2</ele>
        <time>2021-08-15T09:07:27Z</time>
      </trkpt>
      <trkpt lat="50.61295" lon="3.25721">
        <ele>93.4</ele>
        <time>2021-08-15T09:07:32Z</time>
      </trkpt>
      <trkpt lat="50.61276" lon="3.25718">
        <ele>94.6</ele>
        <time>2021-08-15T09:07:38Z</time>
      </trkpt>
      <trkpt lat="50.61255" lon="3.25724">
        <ele>92.3</ele>
        <time>2021-08-15T09:07:44Z</time>
      </trkpt>
      <trkpt lat="50.61231" lon="3.25713">
        <ele>89.1</ele>
        <time>2021-08-15T09:07:50Z</time>
      </trkpt>
      <trkpt lat="50.61211" lon="3.25696">
        <ele>89.3</ele>
        <time>2021-08-15T09:07:55Z</time>
      </trkpt>
      <trkpt lat="50.61192" lon="3.25682">
        <ele>92.6</ele>
        <time>2021-08-15T09:08:00Z</time>
      </trkpt>
      <trkpt lat="50.61172" lon="3.25665">
        <ele>91.8</ele>
        <time>2021-08-15T09:08:06Z</time>
      </trkpt>
      <trkpt lat="50.61154" lon="3.2565">
        <ele>89.1</ele>
        <time>2021-08-15T09:08:11Z</time>
      </trkpt>
      <trkpt lat="50.61134" lon="3.25632">
        <ele>87.4</ele>
        <time>2021-08-15T09:08:17Z</time>
      </trkpt>
      <trkpt lat="50.61119" lon="3.25619">
        <ele>86.2</ele>
        <time>2021-08-15T09:08:22Z</time>
      </trkpt>
      <trkpt lat="50.61102" lon="3.25617">
        <ele>85.6</ele>
        <time>2021-08-15T09:08:28Z</time>
      </trkpt>
      <trkpt lat="50.61081" lon="3.25607">
        <ele>86.2</ele>
        <time>2021-08-15T09:08:34Z</time>
      </trkpt>
      <trkpt lat="50.61068" lon="3.25584">
        <ele>85.7</ele>
        <time>2021-08-15T09:08:40Z</time>
      </trkpt>
      <trkpt lat="50.61052" lon="3.25565">
        <ele>85.1</ele>
        <time>2021-08-15T09:08:45Z</time>
      </trkpt>
      <trkpt lat="50.61034" lon="3.25542">
        <ele>85.4</ele>
        <time>2021-08-15T09:08:51Z</time>
      </trkpt>
      <trkpt lat="50.61012" lon="3.25527">
        <ele>87.7</ele>
        <time>2021-08-15T09:08:57Z</time>
      </trkpt>
      <trkpt lat="50.60994" lon="3.25513">
        <ele>89.1</ele>
        <time>2021-08-15T09:09:02Z</time>
      </trkpt>
      <trkpt lat="50.60974" lon="3.25486">
        <ele>88.1</ele>
        <time>2021-08-15T09:09:08Z</time>
      </trkpt>
      <trkpt lat="50.60954" lon="3.2546">
        <ele>87.3</ele>
        <time>2021-08-15T09:09:14Z</time>
      </trkpt>
      <trkpt lat="50.60932" lon="3.2544">
        <ele>87.1</ele>
        <time>2021-08-15T09:09:20Z</time>
      </trkpt>
      <trkpt lat="50.60916" lon="3.25426">
        <ele>85.6</ele>
        <time>2021-08-15T09:09:25Z</time>
      </trkpt>
      <trkpt lat="50.60921" lon="3.254">
        <ele>81.2</ele>
        <time>2021-08-15T09:09:31Z</time>
      </trkpt>
      <trkpt lat="50.60932" lon="3.25365">
        <ele>83</ele>
        <time>2021-08-15T09:09:37Z</time>
      </trkpt>
      <trkpt lat="50.6094" lon="3.25344">
        <ele>84.1</ele>
        <time>2021-08-15T09:09:43Z</time>
      </trkpt>
      <trkpt lat="50.60946" lon="3.25327">
        <ele>84.5</ele>
        <time>2021-08-15T09:09:48Z</time>
      </trkpt>
      <trkpt lat="50.60954" lon="3.25299">
        <ele>81.9</ele>
        <time>2021-08-15T09:09:54Z</time>
      </trkpt>
      <trkpt lat="50.60968" lon="3.25266">
        <ele>83.7</ele>
        <time>2021-08-15T09:10:00Z</time>
      </trkpt>
      <trkpt lat="50.60977" lon="3.25246">
        <ele>85.9</ele>
        <time>2021-08-15T09:10:05Z</time>
      </trkpt>
      <trkpt lat="50.60981" lon="3.25231">
        <ele>90.4</ele>
        <time>2021-08-15T09:10:11Z</time>
      </trkpt>
      <trkpt lat="50.60982" lon="3.25214">
        <ele>92.7</ele>
        <time>2021-08-15T09:10:17Z</time>
      </trkpt>
      <trkpt lat="50.60974" lon="3.25184">
        <ele>91.5</ele>
        <time>2021-08-15T09:10:23Z</time>
      </trkpt>
      <trkpt lat="50.60978" lon="3.25154">
        <ele>90</ele>
        <time>2021-08-15T09:10:29Z</time>
      </trkpt>
      <trkpt lat="50.6098" lon="3.25157">
        <ele>92.4</ele>
        <time>2021-08-15T09:10:35Z</time>
      </trkpt>
      <trkpt lat="50.60967" lon="3.25141">
        <ele>88.5</ele>
        <time>2021-08-15T09:10:40Z</time>
      </trkpt>
      <trkpt lat="50.6095" lon="3.25125">
        <ele>90.6</ele>
        <time>2021-08-15T09:10:46Z</time>
      </trkpt>
      <trkpt lat="50.60933" lon="3.25114">
        <ele>92.2</ele>
        <time>2021-08-15T09:10:52Z</time>
      </trkpt>
      <trkpt lat="50.60922" lon="3.25108">
        <ele>92</ele>
        <time>2021-08-15T09:10:58Z</time>
      </trkpt>
      <trkpt lat="50.60907" lon="3.25102">
        <ele>89.8</ele>
        <time>2021-08-15T09:11:04Z</time>
      </trkpt>
      <trkpt lat="50.60894" lon="3.25098">
        <ele>91.9</ele>
        <time>2021-08-15T09:11:10Z</time>
      </trkpt>
      <trkpt lat="50.60885" lon="3.25091">
        <ele>94</ele>
        <time>2021-08-15T09:11:15Z</time>
      </trkpt>
      <trkpt lat="50.6087" lon="3.2509">
        <ele>94.1</ele>
        <time>2021-08-15T09:11:21Z</time>
      </trkpt>
      <trkpt lat="50.60856" lon="3.25089">
        <ele>91.1</ele>
        <time>2021-08-15T09:11:26Z</time>
      </trkpt>
      <trkpt lat="50.60838" lon="3.25075">
        <ele>89.7</ele>
        <time>2021-08-15T09:11:32Z</time>
      </trkpt>
      <trkpt lat="50.60826" lon="3.25061">
        <ele>88.7</ele>
        <time>2021-08-15T09:11:37Z</time>
      </trkpt>
      <trkpt lat="50.60812" lon="3.25046">
        <ele>90.1</ele>
        <time>2021-08-15T09:11:42Z</time>
      </trkpt>
      <trkpt lat="50.60797" lon="3.25032">
        <ele>91</ele>
        <time>2021-08-15T09:11:48Z</time>
      </trkpt>
      <trkpt lat="50.60781" lon="3.25019">
        <ele>91.1</ele>
        <time>2021-08-15T09:11:54Z</time>
      </trkpt>
      <trkpt lat="50.60769" lon="3.25006">
        <ele>91.8</ele>
        <time>2021-08-15T09:11:59Z</time>
      </trkpt>
      <trkpt lat="50.60753" lon="3.2499">
        <ele>92</ele>
        <time>2021-08-15T09:12:05Z</time>
      </trkpt>
      <trkpt lat="50.60739" lon="3.24976">
        <ele>90.3</ele>
        <time>2021-08-15T09:12:10Z</time>
      </trkpt>
      <trkpt lat="50.60727" lon="3.24962">
        <ele>90.8</ele>
        <time>2021-08-15T09:12:16Z</time>
      </trkpt>
      <trkpt lat="50.60713" lon="3.24947">
        <ele>91.6</ele>
        <time>2021-08-15T09:12:22Z</time>
      </trkpt>
      <trkpt lat="50.607" lon="3.24934">
        <ele>91.6</ele>
        <time>2021-08-15T09:12:27Z</time>
      </trkpt>
      <trkpt lat="50.60688" lon="3.24921">
        <ele>90.9</ele>
        <time>2021-08-15T09:12:32Z</time>
      </trkpt>
      <trkpt lat="50.60676" lon="3.24907">
        <ele>91.2</ele>
        <time>2021-08-15T09:12:37Z</time>
      </trkpt>
      <trkpt lat="50.60661" lon="3.24893">
        <ele>91.3</ele>
        <time>2021-08-15T09:12:43Z</time>
      </trkpt>
      <trkpt lat="50.60647" lon="3.2488">
        <ele>92.1</ele>
        <time>2021-08-15T09:12:48Z</time>
      </trkpt>
      <trkpt lat="50.60631" lon="3.24863">
        <ele>92.7</ele>
        <time>2021-08-15T09:12:54Z</time>
      </trkpt>
      <trkpt lat="50.60615" lon="3.24847">
        <ele>91.8</ele>
        <time>2021-08-15T09:13:00Z</time>
      </trkpt>
      <trkpt lat="50.606" lon="3.24836">
        <ele>91.8</ele>
        <time>2021-08-15T09:13:05Z</time>
      </trkpt>
      <trkpt lat="50.60587" lon="3.24853">
        <ele>90.5</ele>
        <time>2021-08-15T09:13:11Z</time>
      </trkpt>
      <trkpt lat="50.60581" lon="3.24874">
        <ele>89.2</ele>
        <time>2021-08-15T09:13:16Z</time>
      </trkpt>
      <trkpt lat="50.60574" lon="3.24894">
        <ele>88.8</ele>
        <time>2021-08-15T09:13:22Z</time>
      </trkpt>
      <trkpt lat="50.60567" lon="3.24911">
        <ele>87.6</ele>
        <time>2021-08-15T09:13:28Z</time>
      </trkpt>
      <trkpt lat="50.60559" lon="3.24932">
        <ele>86.7</ele>
        <time>2021-08-15T09:13:33Z</time>
      </trkpt>
      <trkpt lat="50.60552" lon="3.24955">
        <ele>85.5</ele>
        <time>2021-08-15T09:13:39Z</time>
      </trkpt>
      <trkpt lat="50.60542" lon="3.24972">
        <ele>85.3</ele>
        <time>2021-08-15T09:13:44Z</time>
      </trkpt>
      <trkpt lat="50.60534" lon="3.24998">
        <ele>84.4</ele>
        <time>2021-08-15T09:13:50Z</time>
      </trkpt>
      <trkpt lat="50.60527" lon="3.25018">
        <ele>83.9</ele>
        <time>2021-08-15T09:13:55Z</time>
      </trkpt>
      <trkpt lat="50.60517" lon="3.25036">
        <ele>83.7</ele>
        <time>2021-08-15T09:14:00Z</time>
      </trkpt>
      <trkpt lat="50.60508" lon="3.25064">
        <ele>84.2</ele>
        <time>2021-08-15T09:14:06Z</time>
      </trkpt>
      <trkpt lat="50.60501" lon="3.25087">
        <ele>84.1</ele>
        <time>2021-08-15T09:14:11Z</time>
      </trkpt>
      <trkpt lat="50.60492" lon="3.25107">
        <ele>85</ele>
        <time>2021-08-15T09:14:16Z</time>
      </trkpt>
      <trkpt lat="50.60484" lon="3.25136">
        <ele>85.5</ele>
        <time>2021-08-15T09:14:22Z</time>
      </trkpt>
      <trkpt lat="50.60481" lon="3.25163">
        <ele>87.1</ele>
        <time>2021-08-15T09:14:28Z</time>
      </trkpt>
      <trkpt lat="50.60471" lon="3.2519">
        <ele>87.4</ele>
        <time>2021-08-15T09:14:34Z</time>
      </trkpt>
      <trkpt lat="50.60463" lon="3.25211">
        <ele>88.1</ele>
        <time>2021-08-15T09:14:40Z</time>
      </trkpt>
      <trkpt lat="50.60452" lon="3.25236">
        <ele>88</ele>
        <time>2021-08-15T09:14:46Z</time>
      </trkpt>
      <trkpt lat="50.6044" lon="3.25251">
        <ele>89.9</ele>
        <time>2021-08-15T09:14:52Z</time>
      </trkpt>
      <trkpt lat="50.60427" lon="3.25237">
        <ele>88.9</ele>
        <time>2021-08-15T09:14:57Z</time>
      </trkpt>
      <trkpt lat="50.60409" lon="3.2522">
        <ele>87.5</ele>
        <time>2021-08-15T09:15:02Z</time>
      </trkpt>
      <trkpt lat="50.60388" lon="3.25202">
        <ele>88.7</ele>
        <time>2021-08-15T09:15:07Z</time>
      </trkpt>
      <trkpt lat="50.60368" lon="3.25185">
        <ele>89</ele>
        <time>2021-08-15T09:15:13Z</time>
      </trkpt>
      <trkpt lat="50.60347" lon="3.25169">
        <ele>89.9</ele>
        <time>2021-08-15T09:15:18Z</time>
      </trkpt>
      <trkpt lat="50.60325" lon="3.25152">
        <ele>90.7</ele>
        <time>2021-08-15T09:15:24Z</time>
      </trkpt>
      <trkpt lat="50.60301" lon="3.25137">
        <ele>90.5</ele>
        <time>2021-08-15T09:15:30Z</time>
      </trkpt>
      <trkpt lat="50.60282" lon="3.25128">
        <ele>90</ele>
        <time>2021-08-15T09:15:35Z</time>
      </trkpt>
      <trkpt lat="50.60259" lon="3.25123">
        <ele>91.1</ele>
        <time>2021-08-15T09:15:41Z</time>
      </trkpt>
      <trkpt lat="50.60236" lon="3.25125">
        <ele>92.4</ele>
        <time>2021-08-15T09:15:47Z</time>
      </trkpt>
      <trkpt lat="50.60214" lon="3.25136">
        <ele>94.6</ele>
        <time>2021-08-15T09:15:53Z</time>
      </trkpt>
      <trkpt lat="50.60197" lon="3.25145">
        <ele>97.7</ele>
        <time>2021-08-15T09:15:58Z</time>
      </trkpt>
      <trkpt lat="50.60176" lon="3.25157">
        <ele>98.5</ele>
        <time>2021-08-15T09:16:04Z</time>
      </trkpt>
      <trkpt lat="50.60158" lon="3.25171">
        <ele>98.2</ele>
        <time>2021-08-15T09:16:09Z</time>
      </trkpt>
      <trkpt lat="50.60137" lon="3.25187">
        <ele>97.5</ele>
        <time>2021-08-15T09:16:15Z</time>
      </trkpt>
      <trkpt lat="50.60124" lon="3.25195">
        <ele>97</ele>
        <time>2021-08-15T09:16:20Z</time>
      </trkpt>
      <trkpt lat="50.60115" lon="3.25204">
        <ele>97.7</ele>
        <time>2021-08-15T09:16:25Z</time>
      </trkpt>
      <trkpt lat="50.60104" lon="3.25209">
        <ele>96.3</ele>
        <time>2021-08-15T09:16:30Z</time>
      </trkpt>
      <trkpt lat="50.60093" lon="3.25222">
        <ele>96.3</ele>
        <time>2021-08-15T09:16:36Z</time>
      </trkpt>
      <trkpt lat="50.60077" lon="3.25242">
        <ele>97.5</ele>
        <time>2021-08-15T09:16:42Z</time>
      </trkpt>
      <trkpt lat="50.60059" lon="3.25251">
        <ele>100.7</ele>
        <time>2021-08-15T09:16:47Z</time>
      </trkpt>
      <trkpt lat="50.60043" lon="3.25257">
        <ele>101.1</ele>
        <time>2021-08-15T09:16:52Z</time>
      </trkpt>
      <trkpt lat="50.60028" lon="3.25265">
        <ele>101.2</ele>
        <time>2021-08-15T09:16:57Z</time>
      </trkpt>
      <trkpt lat="50.60007" lon="3.25277">
        <ele>101.1</ele>
        <time>2021-08-15T09:17:03Z</time>
      </trkpt>
      <trkpt lat="50.59984" lon="3.25287">
        <ele>99.5</ele>
        <time>2021-08-15T09:17:09Z</time>
      </trkpt>
      <trkpt lat="50.59967" lon="3.25287">
        <ele>99.5</ele>
        <time>2021-08-15T09:17:14Z</time>
      </trkpt>
      <trkpt lat="50.59956" lon="3.25303">
        <ele>104</ele>
        <time>2021-08-15T09:17:20Z</time>
      </trkpt>
      <trkpt lat="50.59952" lon="3.25311">
        <ele>107.6</ele>
        <time>2021-08-15T09:17:25Z</time>
      </trkpt>
      <trkpt lat="50.59943" lon="3.25317">
        <ele>111.1</ele>
        <time>2021-08-15T09:17:31Z</time>
      </trkpt>
      <trkpt lat="50.59932" lon="3.25328">
        <ele>115.3</ele>
        <time>2021-08-15T09:17:36Z</time>
      </trkpt>
      <trkpt lat="50.59917" lon="3.25346">
        <ele>114.8</ele>
        <time>2021-08-15T09:17:42Z</time>
      </trkpt>
      <trkpt lat="50.59902" lon="3.25359">
        <ele>112.5</ele>
        <time>2021-08-15T09:17:47Z</time>
      </trkpt>
      <trkpt lat="50.59886" lon="3.25377">
        <ele>112.7</ele>
        <time>2021-08-15T09:17:53Z</time>
      </trkpt>
      <trkpt lat="50.59871" lon="3.25399">
        <ele>114</ele>
        <time>2021-08-15T09:17:59Z</time>
      </trkpt>
      <trkpt lat="50.59855" lon="3.25418">
        <ele>113.1</ele>
        <time>2021-08-15T09:18:05Z</time>
      </trkpt>
      <trkpt lat="50.59843" lon="3.25436">
        <ele>110.4</ele>
        <time>2021-08-15T09:18:10Z</time>
      </trkpt>
      <trkpt lat="50.59829" lon="3.25449">
        <ele>109.3</ele>
        <time>2021-08-15T09:18:16Z</time>
      </trkpt>
      <trkpt lat="50.59813" lon="3.25466">
        <ele>106.4</ele>
        <time>2021-08-15T09:18:22Z</time>
      </trkpt>
      <trkpt lat="50.598" lon="3.25481">
        <ele>106.1</ele>
        <time>2021-08-15T09:18:27Z</time>
      </trkpt>
      <trkpt lat="50.59786" lon="3.25496">
        <ele>102.9</ele>
        <time>2021-08-15T09:18:32Z</time>
      </trkpt>
      <trkpt lat="50.59771" lon="3.25498">
        <ele>101.2</ele>
        <time>2021-08-15T09:18:38Z</time>
      </trkpt>
      <trkpt lat="50.59761" lon="3.2552">
        <ele>100.4</ele>
        <time>2021-08-15T09:18:43Z</time>
      </trkpt>
      <trkpt lat="50.59743" lon="3.2555">
        <ele>100.4</ele>
        <time>2021-08-15T09:18:49Z</time>
      </trkpt>
      <trkpt lat="50.59727" lon="3.25572">
        <ele>101.1</ele>
        <time>2021-08-15T09:18:55Z</time>
      </trkpt>
      <trkpt lat="50.59705" lon="3.25595">
        <ele>100.1</ele>
        <time>2021-08-15T09:19:00Z</time>
      </trkpt>
      <trkpt lat="50.59698" lon="3.25611">
        <ele>97.9</ele>
        <time>2021-08-15T09:19:06Z</time>
      </trkpt>
      <trkpt lat="50.59703" lon="3.2563">
        <ele>97.2</ele>
        <time>2021-08-15T09:19:12Z</time>
      </trkpt>
      <trkpt lat="50.59712" lon="3.25651">
        <ele>96.7</ele>
        <time>2021-08-15T09:19:17Z</time>
      </trkpt>
      <trkpt lat="50.59721" lon="3.2568">
        <ele>96.6</ele>
        <time>2021-08-15T09:19:23Z</time>
      </trkpt>
      <trkpt lat="50.5973" lon="3.25697">
        <ele>96.2</ele>
        <time>2021-08-15T09:19:28Z</time>
      </trkpt>
      <trkpt lat="50.59732" lon="3.25703">
        <ele>101.4</ele>
        <time>2021-08-15T09:19:33Z</time>
      </trkpt>
      <trkpt lat="50.59733" lon="3.257">
        <ele>98.5</ele>
        <time>2021-08-15T09:19:39Z</time>
      </trkpt>
      <trkpt lat="50.59737" lon="3.25702">
        <ele>98.3</ele>
        <time>2021-08-15T09:19:44Z</time>
      </trkpt>
      <trkpt lat="50.5974" lon="3.257">
        <ele>98.7</ele>
        <time>2021-08-15T09:19:49Z</time>
      </trkpt>
      <trkpt lat="50.5974" lon="3.25701">
        <ele>98.9</ele>
        <time>2021-08-15T09:19:54Z</time>
      </trkpt>
      <trkpt lat="50.5974" lon="3.25701">
        <ele>98.5</ele>
        <time>2021-08-15T09:20:00Z</time>
      </trkpt>
      <trkpt lat="50.59741" lon="3.25702">
        <ele>98.3</ele>
        <time>2021-08-15T09:20:06Z</time>
      </trkpt>
      <trkpt lat="50.59741" lon="3.25703">
        <ele>98</ele>
        <time>2021-08-15T09:20:11Z</time>
      </trkpt>
      <trkpt lat="50.59742" lon="3.25703">
        <ele>98.8</ele>
        <time>2021-08-15T09:20:17Z</time>
      </trkpt>
      <trkpt lat="50.59743" lon="3.25703">
        <ele>99.1</ele>
        <time>2021-08-15T09:20:22Z</time>
      </trkpt>
      <trkpt lat="50.59744" lon="3.25703">
        <ele>99</ele>
        <time>2021-08-15T09:20:27Z</time>
      </trkpt>
      <trkpt lat="50.59745" lon="3.25703">
        <ele>97.2</ele>
        <time>2021-08-15T09:20:32Z</time>
      </trkpt>
      <trkpt lat="50.59746" lon="3.25702">
        <ele>97.8</ele>
        <time>2021-08-15T09:20:37Z</time>
      </trkpt>
      <trkpt lat="50.59745" lon="3.25701">
        <ele>96.9</ele>
        <time>2021-08-15T09:20:43Z</time>
      </trkpt>
      <trkpt lat="50.59745" lon="3.257">
        <ele>96.4</ele>
        <time>2021-08-15T09:20:48Z</time>
      </trkpt>
      <trkpt lat="50.59744" lon="3.257">
        <ele>93.8</ele>
        <time>2021-08-15T09:20:53Z</time>
      </trkpt>
      <trkpt lat="50.59744" lon="3.257">
        <ele>93.8</ele>
        <time>2021-08-15T09:20:58Z</time>
      </trkpt>
    </trkseg>
  </trk>
</gpx>